ftp/pub/palmer/observations_modified/2019/June/AR190627_BASE.txt

Download

Sample DateTime	Unit Id	WS Avg 2min	WD Avg 2min	WGS 10min	WGD 10min	Air Temp	Rel Humidity	Dew Point	Pyranometer	Quantum	Air Pressure	Snow Level	Rainfall	PW Current	Visibility	CBase 1	CBase 2	CBase 3	Vert Vis
2019/06/27  00:00:00  BASE  3.44568  91   4.02192  87   -8.8  43    -19.2 0     0     989.4    NA       0.0000   9999     0     0     0    
2019/06/27  00:01:00  BASE  3.65148  91   4.02192  87   -8.8  43    -19.2 0     0     989.5    NA       0.0000   9999     0     0     0    
2019/06/27  00:02:00  BASE  3.3516   93   4.02192  87   -8.7  43    -19.2 0     0     989.5    NA       0.0000   9999     0     0     0    
2019/06/27  00:03:00  BASE  3.09876  93   4.02192  87   -8.7  43    -19.2 0     0     989.5    NA       0.0000   9999     0     0     0    
2019/06/27  00:04:00  BASE  3.0282   93   4.02192  87   -8.7  43    -19.2 0     0     989.5    NA       0.0000   9999     0     0     0    
2019/06/27  00:05:00  BASE  2.95176  93   4.02192  87   -8.6  42    -19.1 0     0     989.5    NA       0.0000   9999     0     0     0    
2019/06/27  00:06:00  BASE  2.86356  91   4.02192  87   -8.5  42    -19.2 0     0     989.5    NA       0.0000   9999     0     0     0    
2019/06/27  00:07:00  BASE  2.92236  93   4.02192  87   -8.5  42    -19.2 0     0     989.5    NA       0.0000   9999     0     0     0    
2019/06/27  00:08:00  BASE  3.09288  102  4.02192  118  -8.4  42    -19.1 0     0     989.5    NA       0.0000   9999     0     0     0    
2019/06/27  00:09:00  BASE  3.234    114  4.02192  118  -8.2  41    -19.1 0     0     989.6    NA       0.0000   9999     0     0     0    
2019/06/27  00:10:00  BASE  2.98116  118  4.02192  118  -8.1  41    -19.0 0     0     989.6    NA       0.0000   9999     0     0     0    
2019/06/27  00:11:01  BASE  2.793    116  4.02192  118  -8.0  41    -19.0 0     0     989.6    NA       0.0000   9999     0     0     0    
2019/06/27  00:12:00  BASE  2.9694   113  4.02192  118  -7.8  41    -18.9 0     0     989.6    NA       0.0000   9999     0     0     0    
2019/06/27  00:13:00  BASE  3.12816  112  4.02192  118  -7.7  40    -19.0 0     0     989.6    NA       0.0000   9999     0     0     0    
2019/06/27  00:14:01  BASE  3.22224  112  4.02192  118  -7.7  40    -19.1 0     0     989.6    NA       0.0000   9999     0     0     0    
2019/06/27  00:15:00  BASE  3.12816  107  4.02192  118  -7.8  40    -19.1 0     0     989.6    NA       0.0000   9999     0     0     0    
2019/06/27  00:16:00  BASE  3.11052  99   4.02192  118  -8.0  40    -19.1 0     0     989.7    NA       0.0000   9999     0     0     0    
2019/06/27  00:17:00  BASE  3.26928  96   4.02192  118  -8.2  41    -19.2 0     0     989.7    NA       0.0000   9999     0     0     0    
2019/06/27  00:18:00  BASE  3.55152  91   4.08072  91   -8.5  42    -19.2 0     0     989.7    NA       0.0000   9999     0     0     0    
2019/06/27  00:19:01  BASE  3.37512  86   4.08072  91   -8.7  43    -19.1 0     0     989.7    NA       0.0000   9999     0     0     0    
2019/06/27  00:20:01  BASE  3.12816  87   4.08072  91   -8.8  43    -19.1 0     0     989.7    NA       0.0000   9999     0     0     0    
2019/06/27  00:21:01  BASE  3.381    89   4.08072  91   -8.8  43    -19.2 0     0     989.7    NA       0.0000   9999     0     0     0    
2019/06/27  00:22:01  BASE  3.51624  86   4.08072  91   -8.8  43    -19.2 0     0     989.7    NA       0.0000   9999     0     0     0    
2019/06/27  00:23:01  BASE  3.31044  88   4.08072  91   -8.8  43    -19.2 0     0     989.7    NA       0.0000   9999     0     0     0    
2019/06/27  00:24:01  BASE  3.22224  91   4.08072  91   -8.7  43    -19.1 0     0     989.7    NA       0.0000   9999     0     0     0    
2019/06/27  00:25:00  BASE  3.22224  92   4.08072  91   -8.7  43    -19.1 0     0     989.7    NA       0.0000   9999     0     0     0    
2019/06/27  00:26:00  BASE  3.22812  91   4.08072  91   -8.6  43    -19.0 0     0     989.7    NA       0.0000   9999     0     0     0    
2019/06/27  00:27:00  BASE  3.37512  89   4.08072  91   -8.5  42    -19.0 0     0     989.7    NA       0.0000   9999     0     0     0    
2019/06/27  00:28:00  BASE  3.19872  90   3.93372  83   -8.4  42    -19.0 0     0     989.7    NA       0.0000   9999     0     0     0    
2019/06/27  00:29:00  BASE  2.96352  92   3.93372  83   -8.4  42    -19.1 0     0     989.7    NA       0.0000   9999     0     0     0    
2019/06/27  00:30:00  BASE  3.16344  91   3.93372  83   -8.4  42    -19.1 0     0     989.7    NA       0.0000   9999     0     0     0    
2019/06/27  00:31:00  BASE  3.4398   90   3.93372  83   -8.4  42    -19.0 0     0     989.7    NA       0.0000   9999     0     0     0    
2019/06/27  00:32:00  BASE  3.53388  88   3.83964  92   -8.5  42    -19.1 0     0     989.7    NA       0.0000   9999     0     0     0    
2019/06/27  00:33:00  BASE  3.39864  87   3.83964  92   -8.5  42    -19.0 0     0     989.7    NA       0.0000   9999     0     0     0    
2019/06/27  00:34:00  BASE  2.98116  87   3.83964  92   -8.4  42    -18.9 0     0     989.7    NA       0.0000   9999     0     0     0    
2019/06/27  00:35:00  BASE  2.88708  89   3.83964  92   -8.3  42    -18.9 0     0     989.7    NA       0.0000   9999     0     0     0    
2019/06/27  00:36:00  BASE  3.11052  90   3.83964  92   -8.3  42    -18.9 0     0     989.7    NA       0.0000   9999     0     0     0    
2019/06/27  00:37:00  BASE  3.10464  90   3.83964  92   -8.3  42    -18.8 0     0     989.7    NA       0.0000   9999     0     0     0    
2019/06/27  00:38:00  BASE  3.25164  90   4.05132  90   -8.3  43    -18.7 0     0     989.7    NA       0.0000   9999     0     0     0    
2019/06/27  00:39:00  BASE  3.49272  88   4.05132  90   -8.4  43    -18.7 0     0     989.7    NA       0.0000   9999     0     0     0    
2019/06/27  00:40:00  BASE  3.53976  85   4.05132  90   -8.5  43    -18.8 0     0     989.7    NA       0.0000   9999     0     0     0    
2019/06/27  00:41:00  BASE  3.50448  89   4.05132  90   -8.5  43    -18.9 0     0     989.7    NA       0.0000   9999     0     0     0    
2019/06/27  00:42:00  BASE  3.26928  91   4.05132  90   -8.5  42    -19.1 0     0     989.7    NA       0.0000   9999     0     0     0    
2019/06/27  00:43:00  BASE  3.05172  91   4.05132  90   -8.5  41    -19.3 0     0     989.7    NA       0.0000   9999     0     0     0    
2019/06/27  00:44:00  BASE  3.04584  96   4.05132  90   -8.4  41    -19.4 0     0     989.7    NA       0.0000   9999     0     0     0    
2019/06/27  00:45:00  BASE  3.16344  100  4.05132  90   -8.3  41    -19.3 0     0     989.7    NA       0.0000   9999     0     0     0    
2019/06/27  00:46:00  BASE  3.33396  103  4.2042   110  -8.2  40    -19.3 0     0     989.7    NA       0.0000   9999     0     0     0    
2019/06/27  00:47:00  BASE  3.06348  106  4.2042   110  -8.1  40    -19.3 0     0     989.7    NA       0.0000   9999     0     0     0    
2019/06/27  00:48:00  BASE  2.69304  104  4.2042   110  -8.0  39    -19.4 0     0     989.7    NA       0.0000   9999     0     0     0    
2019/06/27  00:49:00  BASE  2.72244  105  4.2042   110  -8.0  39    -19.6 0     0     989.7    NA       0.0000   9999     0     0     0    
2019/06/27  00:50:01  BASE  2.98704  105  4.2042   110  -8.0  39    -19.6 0     0     989.8    NA       0.0000   9999     0     0     0    
2019/06/27  00:51:01  BASE  3.4104   106  4.2042   110  -7.9  39    -19.6 0     0     989.8    NA       0.0000   9999     0     0     0    
2019/06/27  00:52:01  BASE  3.76908  107  4.41588  109  -7.9  38    -19.6 0     0     989.8    NA       0.0000   9999     0     0     0    
2019/06/27  00:53:01  BASE  4.11012  105  4.47468  92   -8.0  39    -19.6 0     0     989.8    NA       0.0000   9999     0     0     0    
2019/06/27  00:54:01  BASE  4.41588  93   4.80984  83   -8.3  39    -19.7 0     0     989.8    NA       0.0000   9999     0     0     0    
2019/06/27  00:55:01  BASE  4.18656  85   4.80984  83   -8.5  40    -19.8 0     0     989.9    NA       0.0000   9999     0     0     0    
2019/06/27  00:56:01  BASE  3.72204  91   4.80984  83   -8.8  40    -19.9 0     0     989.9    NA       0.0000   9999     0     0     0    
2019/06/27  00:57:01  BASE  3.44568  96   4.80984  83   -9.1  41    -20.0 0     0     989.9    NA       0.0000   9999     0     0     0    
2019/06/27  00:58:01  BASE  2.99292  91   4.80984  83   -9.2  41    -20.0 0     0     989.9    NA       0.0000   9999     0     0     0    
2019/06/27  00:59:01  BASE  2.7342   86   4.80984  83   -9.0  41    -19.8 0     0     989.9    NA       0.0000   9999     0     0     0    
2019/06/27  01:00:01  BASE  2.98116  86   4.80984  83   -8.8  40    -19.8 0     0     989.9    NA       0.0000   9999     0     0     0    
2019/06/27  01:01:01  BASE  3.1458   88   4.80984  83   -8.6  40    -19.8 0     0     989.9    NA       0.0000   9999     0     0     0    
2019/06/27  01:02:01  BASE  3.06936  89   4.80984  83   -8.5  40    -19.8 0     0     989.9    NA       0.0000   9999     0     0     0    
2019/06/27  01:03:01  BASE  3.12228  87   4.80984  83   -8.4  39    -19.8 0     0     990.0    NA       0.0000   9999     0     0     0    
2019/06/27  01:04:01  BASE  3.4104   88   4.53936  80   -8.5  39    -19.9 0     0     990.0    NA       0.0000   9999     0     0     0    
2019/06/27  01:05:01  BASE  3.35748  94   3.99252  88   -8.5  39    -19.9 0     0     990.0    NA       0.0000   9999     0     0     0    
2019/06/27  01:06:01  BASE  3.18696  99   4.2042   96   -8.5  39    -19.9 0     0     990.0    NA       0.0000   9999     0     0     0    
2019/06/27  01:07:01  BASE  3.63384  96   4.38648  87   -8.4  39    -19.9 0     0     990.0    NA       0.0000   9999     0     0     0    
2019/06/27  01:08:01  BASE  3.78672  92   4.38648  87   -8.4  39    -19.9 0     0     990.1    NA       0.0000   9999     0     0     0    
2019/06/27  01:09:01  BASE  3.50448  94   4.38648  87   -8.4  39    -19.9 0     0     990.1    NA       0.0000   9999     0     0     0    
2019/06/27  01:10:01  BASE  3.71028  105  4.41588  116  -8.4  39    -19.8 0     0     990.0    NA       0.0000   9999     0     0     0    
2019/06/27  01:11:01  BASE  3.89256  107  4.41588  116  -8.3  39    -19.7 0     0     990.0    NA       0.0000   9999     0     0     0    
2019/06/27  01:12:01  BASE  3.7926   99   4.41588  116  -8.2  39    -19.6 0     0     990.0    NA       0.0000   9999     0     0     0    
2019/06/27  01:13:01  BASE  4.01016  92   4.44528  94   -8.2  39    -19.6 0     0     990.0    NA       0.0000   9999     0     0     0    
2019/06/27  01:14:01  BASE  3.95724  85   4.44528  94   -8.3  40    -19.6 0     0     990.1    NA       0.0000   9999     0     0     0    
2019/06/27  01:15:01  BASE  3.47508  86   4.44528  94   -8.3  40    -19.6 0     0     990.1    NA       0.0000   9999     0     0     0    
2019/06/27  01:16:01  BASE  3.22812  87   4.44528  94   -8.4  40    -19.7 0     0     990.1    NA       0.0000   9999     0     0     0    
2019/06/27  01:17:01  BASE  3.22224  87   4.44528  94   -8.6  40    -19.8 0     0     990.1    NA       0.0000   9999     0     0     0    
2019/06/27  01:18:01  BASE  3.15756  86   4.44528  94   -8.5  40    -19.7 0     0     990.1    NA       0.0000   9999     0     0     0    
2019/06/27  01:19:01  BASE  2.98116  85   4.44528  94   -8.4  40    -19.6 0     0     990.1    NA       0.0000   9999     0     0     0    
2019/06/27  01:20:01  BASE  2.98704  86   4.44528  94   -8.3  39    -19.7 0     0     990.1    NA       0.0000   9999     0     0     0    
2019/06/27  01:21:01  BASE  3.06936  88   4.44528  94   -8.4  39    -19.8 0     0     990.1    NA       0.0000   9999     0     0     0    
2019/06/27  01:22:01  BASE  3.087    82   4.44528  94   -8.5  40    -19.8 0     0     990.1    NA       0.0000   9999     0     0     0    
2019/06/27  01:23:01  BASE  3.16932  78   4.05132  82   -8.6  40    -19.7 0     0     990.1    NA       0.0000   9999     0     0     0    
2019/06/27  01:24:01  BASE  3.5574   84   4.35708  90   -8.8  41    -19.7 0     0     990.1    NA       0.0000   9999     0     0     0    
2019/06/27  01:25:01  BASE  3.69264  90   4.35708  90   -9.1  42    -19.7 0     0     990.2    NA       0.0000   9999     0     0     0    
2019/06/27  01:26:01  BASE  3.42216  91   4.35708  90   -9.2  43    -19.5 0     0     990.2    NA       0.0000   9999     0     0     0    
2019/06/27  01:27:01  BASE  3.25752  90   4.35708  90   -9.1  43    -19.3 0     0     990.2    NA       0.0000   9999     0     0     0    
2019/06/27  01:28:01  BASE  3.18696  89   4.35708  90   -9.2  43    -19.4 0     0     990.2    NA       0.0000   9999     0     0     0    
2019/06/27  01:29:01  BASE  3.19284  90   4.35708  90   -9.2  43    -19.5 0     0     990.2    NA       0.0000   9999     0     0     0    
2019/06/27  01:30:01  BASE  3.1458   86   4.35708  90   -9.1  43    -19.4 0     0     990.2    NA       0.0000   9999     0     0     0    
2019/06/27  01:31:01  BASE  3.33984  80   4.35708  90   -9.0  42    -19.5 0     0     990.2    NA       0.0000   9999     0     0     0    
2019/06/27  01:32:01  BASE  3.60444  85   4.35708  90   -8.9  41    -19.7 0     0     990.2    NA       0.0000   9999     0     0     0    
2019/06/27  01:33:01  BASE  3.2928   93   4.35708  90   -8.8  41    -19.7 0     0     990.2    NA       0.0000   9999     0     0     0    
2019/06/27  01:34:01  BASE  3.11052  89   4.08072  75   -8.6  40    -19.7 0     0     990.2    NA       0.0000   9999     0     0     0    
2019/06/27  01:35:01  BASE  3.33984  85   4.08072  75   -8.5  40    -19.8 0     0     990.2    NA       0.0000   9999     0     0     0    
2019/06/27  01:36:01  BASE  3.46332  90   4.08072  75   -8.5  39    -19.9 0     0     990.2    NA       0.0000   9999     0     0     0    
2019/06/27  01:37:01  BASE  3.4398   93   4.08072  75   -8.4  39    -19.8 0     0     990.3    NA       0.0000   9999     0     0     0    
2019/06/27  01:38:01  BASE  3.37512  92   4.08072  75   -8.4  39    -19.8 0     0     990.3    NA       0.0000   9999     0     0     0    
2019/06/27  01:39:01  BASE  3.40452  95   4.08072  75   -8.4  39    -19.8 0     0     990.3    NA       0.0000   9999     0     0     0    
2019/06/27  01:40:01  BASE  3.28692  102  4.08072  75   -8.3  39    -19.8 0     0     990.3    NA       0.0000   9999     0     0     0    
2019/06/27  01:41:01  BASE  3.0576   103  3.93372  95   -8.2  39    -19.8 0     0     990.3    NA       0.0000   9999     0     0     0    
2019/06/27  01:42:01  BASE  2.97528  98   3.75144  92   -8.2  38    -19.9 0     0     990.2    NA       0.0000   9999     0     0     0    
2019/06/27  01:43:01  BASE  2.96352  95   3.75144  92   -8.2  38    -20.0 0     0     990.2    NA       0.0000   9999     0     0     0    
2019/06/27  01:44:01  BASE  2.83416  95   3.75144  92   -8.3  38    -20.0 0     0     990.2    NA       0.0000   9999     0     0     0    
2019/06/27  01:45:01  BASE  2.78712  96   3.75144  92   -8.4  39    -20.0 0     0     990.3    NA       0.0000   9999     0     0     0    
2019/06/27  01:46:01  BASE  2.85768  99   3.75144  92   -8.6  39    -20.0 0     0     990.3    NA       0.0000   9999     0     0     0    
2019/06/27  01:47:01  BASE  2.82828  101  3.62796  98   -8.5  39    -19.9 0     0     990.3    NA       0.0000   9999     0     0     0    
2019/06/27  01:48:01  BASE  2.78712  101  3.62796  98   -8.4  39    -19.9 0     0     990.3    NA       0.0000   9999     0     0     0    
2019/06/27  01:49:01  BASE  2.78124  101  3.35748  103  -8.3  39    -19.8 0     0     990.3    NA       0.0000   9999     0     0     0    
2019/06/27  01:50:01  BASE  2.75184  102  3.32808  104  -8.1  39    -19.8 0     0     990.3    NA       0.0000   9999     0     0     0    
2019/06/27  01:51:01  BASE  2.86356  99   3.32808  104  -8.1  38    -19.8 0     0     990.4    NA       0.0000   9999     0     0     0    
2019/06/27  01:52:01  BASE  2.92236  94   3.26928  92   -8.2  38    -19.9 0     0     990.4    NA       0.0000   9999     0     0     0    
2019/06/27  01:53:01  BASE  2.8812   92   3.26928  92   -8.3  38    -20.0 0     0     990.4    NA       0.0000   9999     0     0     0    
2019/06/27  01:54:01  BASE  2.92236  92   3.26928  92   -8.4  39    -20.0 0     0     990.4    NA       0.0000   9999     0     0     0    
2019/06/27  01:55:01  BASE  2.94     90   3.26928  92   -8.4  39    -19.9 0     0     990.4    NA       0.0000   9999     0     0     0    
2019/06/27  01:56:01  BASE  2.8224   91   3.26928  92   -8.3  39    -19.9 0     0     990.4    NA       0.0000   9999     0     0     0    
2019/06/27  01:57:01  BASE  2.94588  95   3.75144  101  -8.2  39    -19.8 0     0     990.4    NA       0.0000   9999     0     0     0    
2019/06/27  01:58:01  BASE  3.1458   95   3.75144  101  -8.0  38    -19.8 0     0     990.4    NA       0.0000   9999     0     0     0    
2019/06/27  01:59:01  BASE  3.07524  91   3.75144  101  -7.9  38    -19.8 0     0     990.4    NA       0.0000   9999     0     0     0    
2019/06/27  02:00:01  BASE  3.09876  93   3.75144  101  -7.9  38    -19.9 0     0     990.4    NA       0.0000   9999     0     0     0    
2019/06/27  02:01:01  BASE  3.10464  92   3.75144  101  -7.9  38    -19.9 0     0     990.4    NA       0.0000   9999     0     0     0    
2019/06/27  02:02:01  BASE  2.91648  90   3.75144  101  -7.9  38    -19.8 0     0     990.4    NA       0.0000   9999     0     0     0    
2019/06/27  02:03:01  BASE  2.7342   91   3.75144  101  -7.9  38    -19.9 0     0     990.4    NA       0.0000   9999     0     0     0    
2019/06/27  02:04:01  BASE  2.81652  90   3.75144  101  -7.8  37    -19.9 0     0     990.4    NA       0.0000   9999     0     0     0    
2019/06/27  02:05:01  BASE  2.94     90   3.75144  101  -7.9  37    -19.9 0     0     990.4    NA       0.0000   9999     0     0     0    
2019/06/27  02:06:01  BASE  3.1458   89   3.75144  101  -8.1  38    -20.0 0     0     990.4    NA       0.0000   9999     0     0     0    
2019/06/27  02:07:01  BASE  3.22224  88   3.65736  89   -8.2  38    -19.9 0     0     990.4    NA       0.0000   9999     0     0     0    
2019/06/27  02:08:01  BASE  3.09288  89   3.65736  89   -8.4  39    -19.9 0     0     990.4    NA       0.0000   9999     0     0     0    
2019/06/27  02:09:01  BASE  3.11052  89   3.65736  89   -8.5  40    -19.8 0     0     990.4    NA       0.0000   9999     0     0     0    
2019/06/27  02:10:01  BASE  3.28692  86   3.81024  86   -8.6  40    -19.7 0     0     990.4    NA       0.0000   9999     0     0     0    
2019/06/27  02:11:01  BASE  3.57504  85   3.81024  88   -8.6  41    -19.6 0     0     990.4    NA       0.0000   9999     0     0     0    
2019/06/27  02:12:01  BASE  3.74556  84   3.96312  84   -8.7  41    -19.6 0     0     990.4    NA       0.0000   9999     0     0     0    
2019/06/27  02:13:01  BASE  3.8514   84   4.02192  80   -8.7  42    -19.4 0     0     990.4    NA       0.0000   9999     0     0     0    
2019/06/27  02:14:01  BASE  3.94548  85   4.29828  88   -8.7  42    -19.3 0     0     990.4    NA       0.0000   9999     0     0     0    
2019/06/27  02:15:01  BASE  3.96312  86   4.29828  88   -8.6  42    -19.1 0     0     990.4    NA       0.0000   9999     0     0     0    
2019/06/27  02:16:01  BASE  4.0866   87   4.35708  90   -8.6  43    -19.0 0     0     990.4    NA       0.0000   9999     0     0     0    
2019/06/27  02:17:01  BASE  4.19244  87   4.38648  86   -8.7  43    -19.0 0     0     990.4    NA       0.0000   9999     0     0     0    
2019/06/27  02:18:01  BASE  4.15716  88   4.41588  87   -8.8  43    -19.0 0     0     990.3    NA       0.0000   9999     0     0     0    
2019/06/27  02:19:01  BASE  4.12188  88   4.41588  87   -8.8  43    -19.0 0     0     990.4    NA       0.0000   9999     0     0     0    
2019/06/27  02:20:01  BASE  4.12188  88   4.47468  90   -8.9  44    -19.1 0     0     990.4    NA       0.0000   9999     0     0     0    
2019/06/27  02:21:01  BASE  4.25712  90   4.50996  92   -9.1  44    -19.1 0     0     990.4    NA       0.0000   9999     0     0     0    
2019/06/27  02:22:01  BASE  4.21008  91   4.50996  92   -9.1  44    -19.0 0     0     990.4    NA       0.0000   9999     0     0     0    
2019/06/27  02:23:01  BASE  3.98664  92   4.50996  92   -9.1  45    -19.0 0     0     990.4    NA       0.0000   9999     0     0     0    
2019/06/27  02:24:01  BASE  3.8808   90   4.50996  92   -9.2  45    -18.9 0     0     990.4    NA       0.0000   9999     0     0     0    
2019/06/27  02:25:01  BASE  3.95724  90   4.50996  92   -9.1  45    -18.9 0     0     990.4    NA       0.0000   9999     0     0     0    
2019/06/27  02:26:01  BASE  4.116    93   4.50996  92   -9.1  45    -18.8 0     0     990.4    NA       0.0000   9999     0     0     0    
2019/06/27  02:27:01  BASE  4.15716  93   4.50996  92   -9.2  45    -18.9 0     0     990.4    NA       0.0000   9999     0     0     0    
2019/06/27  02:28:01  BASE  4.13952  93   4.50996  92   -9.2  45    -18.9 0     0     990.4    NA       0.0000   9999     0     0     0    
2019/06/27  02:29:01  BASE  4.12776  93   4.50996  92   -9.2  45    -19.0 0     0     990.4    NA       0.0000   9999     0     0     0    
2019/06/27  02:30:01  BASE  4.12188  92   4.50996  92   -9.3  45    -19.0 0     0     990.4    NA       0.0000   9999     0     0     0    
2019/06/27  02:31:01  BASE  4.2336   90   4.53936  92   -9.3  45    -19.0 0     0     990.4    NA       0.0000   9999     0     0     0    
2019/06/27  02:32:01  BASE  4.43352  90   4.68636  88   -9.3  45    -19.0 0     0     990.4    NA       0.0000   9999     0     0     0    
2019/06/27  02:33:01  BASE  4.50996  91   4.68636  88   -9.3  45    -18.9 0     0     990.5    NA       0.0000   9999     0     0     0    
2019/06/27  02:34:01  BASE  4.42764  91   4.68636  88   -9.3  46    -18.9 0     0     990.5    NA       0.0000   9999     0     0     0    
2019/06/27  02:35:01  BASE  4.4688   93   4.68636  88   -9.4  46    -18.9 0     0     990.5    NA       0.0000   9999     0     0     0    
2019/06/27  02:36:01  BASE  4.40412  95   4.68636  88   -9.4  46    -19.0 0     0     990.5    NA       0.0000   9999     0     0     0    
2019/06/27  02:37:01  BASE  4.21596  97   4.68636  88   -9.5  46    -19.0 0     0     990.6    NA       0.0000   9999     0     0     0    
2019/06/27  02:38:01  BASE  4.09836  97   4.68636  88   -9.6  46    -19.0 0     0     990.6    NA       0.0000   9999     0     0     0    
2019/06/27  02:39:01  BASE  4.06308  96   4.68636  88   -9.6  46    -19.1 0     0     990.6    NA       0.0000   9999     0     0     0    
2019/06/27  02:40:01  BASE  4.03368  95   4.68636  88   -9.6  46    -19.1 0     0     990.7    NA       0.0000   9999     0     0     0    
2019/06/27  02:41:01  BASE  4.02192  94   4.68636  88   -9.5  46    -19.0 0     0     990.7    NA       0.0000   9999     0     0     0    
2019/06/27  02:42:01  BASE  4.00428  94   4.65696  94   -9.5  46    -19.0 0     0     990.7    NA       0.0000   9999     0     0     0    
2019/06/27  02:43:01  BASE  3.84552  93   4.65696  94   -9.4  46    -19.0 0     0     990.7    NA       0.0000   9999     0     0     0    
2019/06/27  02:44:01  BASE  3.65736  91   4.65696  94   -9.2  45    -18.9 0     0     990.7    NA       0.0000   9999     0     0     0    
2019/06/27  02:45:01  BASE  3.528    90   4.50996  95   -9.0  44    -19.0 0     0     990.7    NA       0.0000   9999     0     0     0    
2019/06/27  02:46:01  BASE  3.48684  88   4.2336   94   -8.9  44    -19.0 0     0     990.7    NA       0.0000   9999     0     0     0    
2019/06/27  02:47:01  BASE  3.44568  86   4.2042   95   -8.7  43    -19.1 0     0     990.7    NA       0.0000   9999     0     0     0    
2019/06/27  02:48:01  BASE  3.37512  82   4.2042   95   -8.5  42    -19.2 0     0     990.7    NA       0.0000   9999     0     0     0    
2019/06/27  02:49:01  BASE  3.23988  82   4.2042   95   -8.4  41    -19.3 0     0     990.7    NA       0.0000   9999     0     0     0    
2019/06/27  02:50:01  BASE  3.18108  83   4.2042   95   -8.3  41    -19.3 0     0     990.7    NA       0.0000   9999     0     0     0    
2019/06/27  02:51:01  BASE  3.30456  78   4.08072  99   -8.2  40    -19.3 0     0     990.7    NA       0.0000   9999     0     0     0    
2019/06/27  02:52:01  BASE  3.21636  81   3.96312  93   -8.2  40    -19.4 0     0     990.7    NA       0.0000   9999     0     0     0    
2019/06/27  02:53:01  BASE  3.08112  85   3.81024  71   -8.2  40    -19.4 0     0     990.8    NA       0.0000   9999     0     0     0    
2019/06/27  02:54:01  BASE  2.9694   83   3.81024  71   -8.2  40    -19.3 0     0     990.8    NA       0.0000   9999     0     0     0    
2019/06/27  02:55:01  BASE  2.87532  80   3.81024  71   -8.2  40    -19.3 0     0     990.8    NA       0.0000   9999     0     0     0    
2019/06/27  02:56:01  BASE  2.91648  83   3.81024  71   -8.2  40    -19.3 0     0     990.8    NA       0.0000   9999     0     0     0    
2019/06/27  02:57:01  BASE  2.89296  84   3.81024  71   -8.2  40    -19.3 0     0     990.8    NA       0.0000   9999     0     0     0    
2019/06/27  02:58:01  BASE  2.7342   84   3.81024  71   -8.2  40    -19.3 0     0     990.8    NA       0.0000   9999     0     0     0    
2019/06/27  02:59:01  BASE  2.71656  82   3.81024  71   -8.2  40    -19.4 0     0     990.9    NA       0.0000   9999     0     0     0    
2019/06/27  03:00:01  BASE  2.9106   79   3.81024  71   -8.2  40    -19.4 0     0     990.9    NA       0.0000   9999     0     0     0    
2019/06/27  03:01:01  BASE  2.8518   81   3.26928  91   -8.2  40    -19.3 0     0     990.9    NA       0.0000   9999     0     0     0    
2019/06/27  03:02:01  BASE  2.81652  87   3.26928  91   -8.3  41    -19.3 0     0     990.9    NA       0.0000   9999     0     0     0    
2019/06/27  03:03:01  BASE  2.94588  88   3.2046   78   -8.3  41    -19.3 0     0     990.9    NA       0.0000   9999     0     0     0    
2019/06/27  03:04:01  BASE  2.89884  88   3.2046   78   -8.4  41    -19.4 0     0     991.0    NA       0.0000   9999     0     0     0    
2019/06/27  03:05:01  BASE  2.81064  88   3.2046   78   -8.6  41    -19.4 0     0     991.0    NA       0.0000   9999     0     0     0    
2019/06/27  03:06:01  BASE  2.75772  84   3.2046   78   -8.6  42    -19.4 0     0     991.0    NA       0.0000   9999     0     0     0    
2019/06/27  03:07:01  BASE  2.86356  84   3.2046   78   -8.7  42    -19.4 0     0     991.0    NA       0.0000   9999     0     0     0    
2019/06/27  03:08:01  BASE  2.94     85   3.2046   78   -8.7  42    -19.3 0     0     991.0    NA       0.0000   9999     0     0     0    
2019/06/27  03:09:01  BASE  2.9106   88   3.2046   78   -8.7  42    -19.3 0     0     991.0    NA       0.0000   9999     0     0     0    
2019/06/27  03:10:01  BASE  2.71656  90   3.1458   86   -8.6  42    -19.3 0     0     991.0    NA       0.0000   9999     0     0     0    
2019/06/27  03:11:01  BASE  2.49312  87   3.1458   86   -8.6  42    -19.3 0     0     991.0    NA       0.0000   9999     0     0     0    
2019/06/27  03:12:01  BASE  2.352    85   3.1458   86   -8.6  42    -19.2 0     0     991.0    NA       0.0000   9999     0     0     0    
2019/06/27  03:13:01  BASE  2.24028  92   3.0576   81   -8.7  42    -19.3 0     0     991.0    NA       0.0000   9999     0     0     0    
2019/06/27  03:14:01  BASE  2.16384  92   3.0576   81   -8.6  42    -19.3 0     0     991.0    NA       0.0000   9999     0     0     0    
2019/06/27  03:15:01  BASE  1.92864  82   3.0576   81   -8.5  42    -19.2 0     0     991.0    NA       0.0000   9999     0     0     0    
2019/06/27  03:16:01  BASE  2.00508  82   3.0576   81   -8.5  41    -19.3 0     0     991.0    NA       0.0000   9999     0     0     0    
2019/06/27  03:17:01  BASE  2.12268  87   3.02232  85   -8.4  41    -19.3 0     0     991.0    NA       0.0000   9999     0     0     0    
2019/06/27  03:18:01  BASE  1.97568  92   3.02232  85   -8.3  41    -19.3 0     0     991.0    NA       0.0000   9999     0     0     0    
2019/06/27  03:19:01  BASE  1.911    94   2.75184  91   -8.2  40    -19.3 0     0     991.1    NA       0.0000   9999     0     0     0    
2019/06/27  03:20:01  BASE  1.77576  91   2.75184  91   -8.2  40    -19.4 0     0     991.2    NA       0.0000   9999     0     0     0    
2019/06/27  03:21:01  BASE  1.66404  90   2.54016  83   -8.2  40    -19.4 0     0     991.2    NA       0.0000   9999     0     0     0    
2019/06/27  03:22:01  BASE  1.6464   83   2.54016  83   -8.1  40    -19.5 0     0     991.2    NA       0.0000   9999     0     0     0    
2019/06/27  03:23:01  BASE  1.54644  77   2.54016  83   -8.1  39    -19.5 0     0     991.2    NA       0.0000   9999     0     0     0    
2019/06/27  03:24:01  BASE  1.37004  80   2.54016  83   -8.0  39    -19.6 0     0     991.2    NA       0.0000   9999     0     0     0    
2019/06/27  03:25:01  BASE  1.22892  87   2.54016  83   -8.0  39    -19.6 0     0     991.2    NA       0.0000   9999     0     0     0    
2019/06/27  03:26:01  BASE  1.12308  93   2.35788  87   -7.9  38    -19.7 0     0     991.2    NA       0.0000   9999     0     0     0    
2019/06/27  03:27:01  BASE  0.97608  96   2.1168   101  -7.9  38    -19.7 0     0     991.3    NA       0.0000   9999     0     0     0    
2019/06/27  03:28:01  BASE  0.90552  102  1.9992   91   -7.9  38    -19.7 0     0     991.3    NA       0.0000   9999     0     0     0    
2019/06/27  03:29:01  BASE  0.86436  107  1.84632  90   -7.9  38    -19.7 0     0     991.3    NA       0.0000   9999     0     0     0    
2019/06/27  03:30:01  BASE  0.85848  108  1.81692  74   -7.8  38    -19.7 0     0     991.3    NA       0.0000   9999     0     0     0    
2019/06/27  03:31:01  BASE  0.9702   102  1.81692  74   -7.8  38    -19.7 0     0     991.3    NA       0.0000   9999     0     0     0    
2019/06/27  03:32:01  BASE  1.09368  93   1.63464  95   -7.7  38    -19.6 0     0     991.3    NA       0.0000   9999     0     0     0    
2019/06/27  03:33:01  BASE  1.21128  87   1.63464  95   -7.7  38    -19.7 0     0     991.3    NA       0.0000   9999     0     0     0    
2019/06/27  03:34:01  BASE  1.46412  87   1.75224  90   -7.7  37    -19.7 0     0     991.3    NA       0.0000   9999     0     0     0    
2019/06/27  03:35:01  BASE  1.48176  88   1.75224  90   -7.6  37    -19.8 0     0     991.3    NA       0.0000   9999     0     0     0    
2019/06/27  03:36:01  BASE  1.24656  93   1.75224  90   -7.6  37    -19.7 0     0     991.3    NA       0.0000   9999     0     0     0    
2019/06/27  03:37:01  BASE  1.22892  95   1.75224  90   -7.7  37    -19.8 0     0     991.3    NA       0.0000   9999     0     0     0    
2019/06/27  03:38:01  BASE  1.24656  89   1.75224  90   -7.7  37    -19.8 0     0     991.3    NA       0.0000   9999     0     0     0    
2019/06/27  03:39:01  BASE  1.38768  87   1.81692  91   -7.7  37    -19.8 0     0     991.3    NA       0.0000   9999     0     0     0    
2019/06/27  03:40:01  BASE  1.6758   86   2.0286   82   -7.8  38    -19.8 0     0     991.4    NA       0.0000   9999     0     0     0    
2019/06/27  03:41:01  BASE  1.89924  84   2.1168   83   -8.0  38    -19.9 0     0     991.4    NA       0.0000   9999     0     0     0    
2019/06/27  03:42:01  BASE  2.0286   84   2.32848  89   -8.0  38    -19.8 0     0     991.4    NA       0.0000   9999     0     0     0    
2019/06/27  03:43:01  BASE  2.01096  88   2.32848  89   -8.1  38    -19.8 0     0     991.4    NA       0.0000   9999     0     0     0    
2019/06/27  03:44:01  BASE  1.99332  90   2.32848  89   -8.2  39    -19.8 0     0     991.4    NA       0.0000   9999     0     0     0    
2019/06/27  03:45:01  BASE  1.911    87   2.32848  89   -8.3  39    -19.8 0     0     991.4    NA       0.0000   9999     0     0     0    
2019/06/27  03:46:01  BASE  1.76988  83   2.32848  89   -8.2  39    -19.7 0     0     991.4    NA       0.0000   9999     0     0     0    
2019/06/27  03:47:01  BASE  1.82868  73   2.32848  89   -8.2  39    -19.8 0     0     991.4    NA       0.0000   9999     0     0     0    
2019/06/27  03:48:01  BASE  1.89336  66   2.32848  89   -8.1  39    -19.8 0     0     991.5    NA       0.0000   9999     0     0     0    
2019/06/27  03:49:01  BASE  1.79928  67   2.32848  89   -8.1  39    -19.8 0     0     991.5    NA       0.0000   9999     0     0     0    
2019/06/27  03:50:01  BASE  1.84632  66   2.32848  89   -8.0  38    -19.7 0     0     991.5    NA       0.0000   9999     0     0     0    
2019/06/27  03:51:01  BASE  2.03448  63   2.48136  58   -8.0  38    -19.8 0     0     991.5    NA       0.0000   9999     0     0     0    
2019/06/27  03:52:01  BASE  2.02272  61   2.48136  58   -8.1  39    -19.7 0     0     991.5    NA       0.0000   9999     0     0     0    
2019/06/27  03:53:00  BASE  1.84632  53   2.48136  58   -8.1  39    -19.6 0     0     991.5    NA       0.0000   9999     0     0     0    
2019/06/27  03:54:00  BASE  1.55232  46   2.48136  58   -8.1  40    -19.4 0     0     991.5    NA       0.0000   9999     0     0     0    
2019/06/27  03:55:01  BASE  1.45824  48   2.48136  58   -8.2  41    -19.2 0     0     991.5    NA       0.0000   9999     0     0     0    
2019/06/27  03:56:00  BASE  1.41708  46   2.48136  58   -8.2  42    -18.8 0     0     991.5    NA       0.0000   9999     0     0     0    
2019/06/27  03:57:00  BASE  1.21716  41   2.48136  58   -8.1  43    -18.5 0     0     991.5    NA       0.0000   9999     0     0     0    
2019/06/27  03:58:00  BASE  0.94668  40   2.48136  58   -8.1  44    -18.2 0     0     991.5    NA       0.0000   9999     0     0     0    
2019/06/27  03:59:00  BASE  0.84084  43   2.48136  58   -8.0  45    -18.0 0     0     991.5    NA       0.0000   9999     0     0     0    
2019/06/27  04:00:01  BASE  1.02312  41   2.48136  58   -8.1  45    -18.0 0     0     991.5    NA       0.0000   9999     0     0     0    
2019/06/27  04:01:01  BASE  0.81732  21   2.42256  70   -8.1  45    -18.0 0     0     991.5    NA       0.0000   9999     0     0     0    
2019/06/27  04:02:00  BASE  0.45276  13   2.24028  70   -8.1  45    -18.0 0     0     991.5    NA       0.0000   9999     0     0     0    
2019/06/27  04:03:00  BASE  0.1176   14   1.84632  39   -8.2  45    -18.1 0     0     991.5    NA       0.0000   9999     0     0     0    
2019/06/27  04:04:00  BASE  0.59976  44   1.69344  48   -8.3  45    -18.1 0     0     991.5    NA       0.0000   9999     0     0     0    
2019/06/27  04:05:00  BASE  1.07016  59   1.72284  70   -8.4  46    -18.0 0     0     991.5    NA       0.0000   9999     0     0     0    
2019/06/27  04:06:00  BASE  1.25244  59   1.72284  70   -8.4  46    -18.0 0     0     991.5    NA       0.0000   9999     0     0     0    
2019/06/27  04:07:00  BASE  1.32888  63   1.72284  72   -8.3  46    -18.0 0     0     991.5    NA       0.0000   9999     0     0     0    
2019/06/27  04:08:00  BASE  1.15836  64   1.72284  72   -8.2  46    -17.9 0     0     991.5    NA       0.0000   9999     0     0     0    
2019/06/27  04:09:00  BASE  0.87612  58   1.72284  72   -8.1  45    -17.9 0     0     991.4    NA       0.0000   9999     0     0     0    
2019/06/27  04:10:00  BASE  0.82908  44   1.72284  72   -8.0  45    -17.9 0     0     991.5    NA       0.0000   9999     0     0     0    
2019/06/27  04:11:00  BASE  1.08192  39   1.72284  72   -7.9  44    -18.0 0     0     991.4    NA       0.0000   9999     0     0     0    
2019/06/27  04:12:00  BASE  1.14072  31   1.72284  72   -7.9  44    -17.9 0     0     991.5    NA       0.0000   9999     0     0     0    
2019/06/27  04:13:00  BASE  1.03488  13   1.72284  72   -7.9  44    -18.0 0     0     991.4    NA       0.0000   9999     0     0     0    
2019/06/27  04:14:00  BASE  0.87612  3    1.72284  72   -8.0  45    -17.9 0     0     991.4    NA       0.0000   9999     0     0     0    
2019/06/27  04:15:00  BASE  0.72912  341  1.72284  72   -8.0  45    -17.8 0     0     991.4    NA       0.0000   9999     0     0     0    
2019/06/27  04:16:00  BASE  0.77028  318  1.72284  72   -8.0  46    -17.6 0     0     991.4    NA       0.0000   9999     0     0     0    
2019/06/27  04:17:00  BASE  0.81144  306  1.57584  66   -8.1  47    -17.5 0     0     991.5    NA       0.0000   9999     0     0     0    
2019/06/27  04:18:00  BASE  0.71148  293  1.45236  40   -8.1  48    -17.3 0     0     991.5    NA       0.0000   9999     0     0     0    
2019/06/27  04:19:00  BASE  0.31752  290  1.45236  40   -8.1  49    -17.0 0     0     991.5    NA       0.0000   9999     0     0     0    
2019/06/27  04:20:00  BASE  0.02352  291  1.45236  40   -8.2  50    -16.7 0     0     991.5    NA       0.0000   9999     0     0     0    
2019/06/27  04:21:00  BASE  0        291  1.35828  17   -8.2  52    -16.4 0     0     991.5    NA       0.0000   9999     0     0     0    
2019/06/27  04:22:00  BASE  0        291  1.35828  17   -8.1  53    -16.1 0     0     991.5    NA       0.0000   9999     0     0     0    
2019/06/27  04:23:00  BASE  0.09996  297  1.0878   321  -8.1  53    -16.0 0     0     991.5    NA       0.0000   9999     0     0     0    
2019/06/27  04:24:00  BASE  0.37044  317  1.0878   321  -8.1  53    -16.1 0     0     991.5    NA       0.0000   9999     0     0     0    
2019/06/27  04:25:00  BASE  0.2646   316  0.9702   318  -8.1  52    -16.2 0     0     991.5    NA       0.0000   9999     0     0     0    
2019/06/27  04:26:00  BASE  0        291  0.9702   318  -8.1  51    -16.4 0     0     991.5    NA       0.0000   9999     0     0     0    
2019/06/27  04:27:00  BASE  0        308  0.9702   318  -8.1  51    -16.6 0     0     991.5    NA       0.0000   9999     0     0     0    
2019/06/27  04:28:00  BASE  0        328  0.9702   318  -8.1  50    -16.7 0     0     991.5    NA       0.0000   9999     0     0     0    
2019/06/27  04:29:00  BASE  0.43512  38   1.35828  112  -8.1  49    -16.9 0     0     991.6    NA       0.0000   9999     0     0     0    
2019/06/27  04:30:00  BASE  0.7644   93   1.45236  100  -8.1  48    -17.1 0     0     991.6    NA       0.0000   9999     0     0     0    
2019/06/27  04:31:00  BASE  1.07016  83   1.75224  74   -8.0  47    -17.3 0     0     991.6    NA       0.0000   9999     0     0     0    
2019/06/27  04:32:00  BASE  1.37004  81   1.75224  74   -8.0  46    -17.7 0     0     991.6    NA       0.0000   9999     0     0     0    
2019/06/27  04:33:00  BASE  1.41708  77   1.75224  68   -7.9  44    -18.1 0     0     991.6    NA       0.0000   9999     0     0     0    
2019/06/27  04:34:00  BASE  1.7052   70   2.1462   74   -7.8  42    -18.4 0     0     991.6    NA       0.0000   9999     0     0     0    
2019/06/27  04:35:00  BASE  2.15796  67   2.56956  76   -7.7  41    -18.7 0     0     991.5    NA       0.0000   9999     0     0     0    
2019/06/27  04:36:00  BASE  2.34612  68   2.56956  76   -7.7  40    -18.9 0     0     991.5    NA       0.0000   9999     0     0     0    
2019/06/27  04:37:00  BASE  2.11092  68   2.56956  76   -7.7  40    -19.0 0     0     991.5    NA       0.0000   9999     0     0     0    
2019/06/27  04:38:00  BASE  2.1462   69   2.56956  76   -7.8  40    -18.9 0     0     991.5    NA       0.0000   9999     0     0     0    
2019/06/27  04:39:00  BASE  2.33436  68   2.69304  69   -7.9  41    -18.9 0     0     991.5    NA       0.0000   9999     0     0     0    
2019/06/27  04:40:00  BASE  2.28732  63   2.69304  69   -8.0  42    -18.7 0     0     991.5    NA       0.0000   9999     0     0     0    
2019/06/27  04:41:00  BASE  2.205    61   2.69304  69   -8.1  43    -18.5 0     0     991.5    NA       0.0000   9999     0     0     0    
2019/06/27  04:42:00  BASE  2.1168   60   2.69304  69   -8.2  44    -18.3 0     0     991.5    NA       0.0000   9999     0     0     0    
2019/06/27  04:43:00  BASE  2.10504  61   2.69304  69   -8.2  44    -18.2 0     0     991.5    NA       0.0000   9999     0     0     0    
2019/06/27  04:44:00  BASE  2.18148  62   2.69304  69   -8.1  45    -18.0 0     0     991.5    NA       0.0000   9999     0     0     0    
2019/06/27  04:45:00  BASE  2.12856  63   2.69304  69   -8.1  44    -18.1 0     0     991.6    NA       0.0000   9999     0     0     0    
2019/06/27  04:46:00  BASE  2.0874   60   2.69304  69   -8.1  44    -18.2 0     0     991.6    NA       0.0000   9999     0     0     0    
2019/06/27  04:47:00  BASE  2.11092  53   2.69304  69   -8.0  44    -18.3 0     0     991.6    NA       0.0000   9999     0     0     0    
2019/06/27  04:48:00  BASE  2.04036  50   2.69304  69   -8.0  43    -18.3 0     0     991.6    NA       0.0000   9999     0     0     0    
2019/06/27  04:49:00  BASE  1.94628  48   2.35788  52   -8.0  44    -18.3 0     0     991.6    NA       0.0000   9999     0     0     0    
2019/06/27  04:50:00  BASE  1.90512  45   2.35788  52   -8.0  44    -18.2 0     0     991.6    NA       0.0000   9999     0     0     0    
2019/06/27  04:51:00  BASE  1.80516  44   2.35788  52   -8.0  44    -18.1 0     0     991.6    NA       0.0000   9999     0     0     0    
2019/06/27  04:52:00  BASE  1.72284  47   2.35788  52   -8.0  45    -18.0 0     0     991.6    NA       0.0000   9999     0     0     0    
2019/06/27  04:53:00  BASE  1.68168  53   2.35788  52   -8.0  45    -18.0 0     0     991.6    NA       0.0000   9999     0     0     0    
2019/06/27  04:54:01  BASE  1.5582   55   2.35788  52   -7.9  44    -18.0 0     0     991.6    NA       0.0000   9999     0     0     0    
2019/06/27  04:55:00  BASE  1.47     54   2.35788  52   -7.8  44    -18.1 0     0     991.6    NA       0.0000   9999     0     0     0    
2019/06/27  04:56:00  BASE  1.49352  53   2.35788  52   -7.8  43    -18.1 0     0     991.6    NA       0.0000   9999     0     0     0    
2019/06/27  04:57:00  BASE  1.54056  52   2.0286   40   -7.7  43    -18.1 0     0     991.6    NA       0.0000   9999     0     0     0    
2019/06/27  04:58:00  BASE  1.71108  50   2.0286   40   -7.7  43    -18.1 0     0     991.6    NA       0.0000   9999     0     0     0    
2019/06/27  04:59:00  BASE  1.74636  45   2.0286   40   -7.7  43    -18.0 0     0     991.6    NA       0.0000   9999     0     0     0    
2019/06/27  05:00:00  BASE  1.57584  41   1.96392  45   -7.7  44    -17.8 0     0     991.6    NA       0.0000   9999     0     0     0    
2019/06/27  05:01:00  BASE  1.5288   41   1.96392  45   -7.8  45    -17.7 0     0     991.6    NA       0.0000   9999     0     0     0    
2019/06/27  05:02:00  BASE  1.65228  41   1.96392  37   -7.8  45    -17.7 0     0     991.6    NA       0.0000   9999     0     0     0    
2019/06/27  05:03:00  BASE  1.5876   42   1.96392  37   -7.9  45    -17.6 0     0     991.6    NA       0.0000   9999     0     0     0    
2019/06/27  05:04:00  BASE  1.45236  43   1.96392  37   -7.9  46    -17.6 0     0     991.6    NA       0.0000   9999     0     0     0    
2019/06/27  05:05:00  BASE  1.54644  45   1.96392  37   -7.9  45    -17.6 0     0     991.6    NA       0.0000   9999     0     0     0    
2019/06/27  05:06:00  BASE  1.59348  48   1.96392  37   -7.8  45    -17.7 0     0     991.6    NA       0.0000   9999     0     0     0    
2019/06/27  05:07:00  BASE  1.68168  53   1.96392  37   -7.9  45    -17.6 0     0     991.7    NA       0.0000   9999     0     0     0    
2019/06/27  05:08:00  BASE  1.86984  55   2.0874   49   -7.9  46    -17.6 0     0     991.6    NA       0.0000   9999     0     0     0    
2019/06/27  05:09:00  BASE  2.04624  52   2.26968  49   -7.9  45    -17.7 0     0     991.6    NA       0.0000   9999     0     0     0    
2019/06/27  05:10:00  BASE  2.16384  49   2.42256  50   -7.9  45    -17.7 0     0     991.6    NA       0.0000   9999     0     0     0    
2019/06/27  05:11:00  BASE  2.02272  48   2.42256  50   -8.0  45    -17.7 0     0     991.6    NA       0.0000   9999     0     0     0    
2019/06/27  05:12:00  BASE  1.85808  48   2.42256  50   -7.9  45    -17.7 0     0     991.6    NA       0.0000   9999     0     0     0    
2019/06/27  05:13:00  BASE  2.02272  47   2.45196  48   -7.9  45    -17.7 0     0     991.6    NA       0.0000   9999     0     0     0    
2019/06/27  05:14:00  BASE  2.13444  47   2.45196  48   -7.9  46    -17.7 0     0     991.6    NA       0.0000   9999     0     0     0    
2019/06/27  05:15:00  BASE  2.15208  49   2.45196  48   -7.9  46    -17.7 0     0     991.6    NA       0.0000   9999     0     0     0    
2019/06/27  05:16:00  BASE  2.12268  50   2.45196  48   -8.0  46    -17.7 0     0     991.6    NA       0.0000   9999     0     0     0    
2019/06/27  05:17:00  BASE  2.11092  48   2.45196  48   -8.0  45    -17.7 0     0     991.6    NA       0.0000   9999     0     0     0    
2019/06/27  05:18:00  BASE  2.14032  45   2.45196  48   -8.0  45    -17.8 0     0     991.6    NA       0.0000   9999     0     0     0    
2019/06/27  05:19:00  BASE  2.09328  46   2.45196  48   -8.0  45    -17.9 0     0     991.6    NA       0.0000   9999     0     0     0    
2019/06/27  05:20:00  BASE  2.07564  46   2.45196  48   -8.0  45    -17.8 0     0     991.6    NA       0.0000   9999     0     0     0    
2019/06/27  05:21:00  BASE  2.08152  47   2.45196  48   -8.0  45    -17.8 0     0     991.6    NA       0.0000   9999     0     0     0    
2019/06/27  05:22:00  BASE  2.21088  51   2.54016  56   -8.0  45    -17.8 0     0     991.6    NA       0.0000   9999     0     0     0    
2019/06/27  05:23:00  BASE  2.25792  51   2.54016  56   -8.0  45    -17.8 0     0     991.6    NA       0.0000   9999     0     0     0    
2019/06/27  05:24:00  BASE  2.21676  53   2.54016  56   -8.0  45    -17.8 0     0     991.6    NA       0.0000   9999     0     0     0    
2019/06/27  05:25:00  BASE  2.18736  52   2.54016  56   -8.0  45    -17.8 0     0     991.6    NA       0.0000   9999     0     0     0    
2019/06/27  05:26:00  BASE  2.13444  49   2.54016  56   -7.9  45    -17.8 0     0     991.6    NA       0.0000   9999     0     0     0    
2019/06/27  05:27:00  BASE  1.99332  48   2.54016  56   -7.9  45    -17.8 0     0     991.6    NA       0.0000   9999     0     0     0    
2019/06/27  05:28:00  BASE  1.84044  48   2.54016  56   -7.8  45    -17.7 0     0     991.6    NA       0.0000   9999     0     0     0    
2019/06/27  05:29:00  BASE  1.79928  47   2.54016  56   -7.8  46    -17.5 0     0     991.6    NA       0.0000   9999     0     0     0    
2019/06/27  05:30:00  BASE  1.7346   45   2.54016  56   -7.8  46    -17.5 0     0     991.6    NA       0.0000   9999     0     0     0    
2019/06/27  05:31:00  BASE  1.69932  46   2.54016  56   -7.8  46    -17.4 0     0     991.6    NA       0.0000   9999     0     0     0    
2019/06/27  05:32:00  BASE  1.74048  47   2.45196  58   -7.8  46    -17.4 0     0     991.6    NA       0.0000   9999     0     0     0    
2019/06/27  05:33:00  BASE  1.81104  44   2.45196  58   -7.8  46    -17.4 0     0     991.6    NA       0.0000   9999     0     0     0    
2019/06/27  05:34:00  BASE  1.8522   41   2.26968  54   -7.8  46    -17.4 0     0     991.6    NA       0.0000   9999     0     0     0    
2019/06/27  05:35:00  BASE  1.89336  38   2.26968  54   -7.8  46    -17.4 0     0     991.6    NA       0.0000   9999     0     0     0    
2019/06/27  05:36:00  BASE  1.9992   34   2.21088  38   -7.9  46    -17.5 0     0     991.6    NA       0.0000   9999     0     0     0    
2019/06/27  05:37:00  BASE  1.98744  31   2.21088  38   -8.0  46    -17.6 0     0     991.6    NA       0.0000   9999     0     0     0    
2019/06/27  05:38:00  BASE  1.92864  30   2.21088  38   -8.1  46    -17.7 0     0     991.6    NA       0.0000   9999     0     0     0    
2019/06/27  05:39:00  BASE  1.88748  27   2.21088  38   -8.1  46    -17.6 0     0     991.6    NA       0.0000   9999     0     0     0    
2019/06/27  05:40:00  BASE  1.83456  23   2.21088  38   -8.2  47    -17.5 0     0     991.6    NA       0.0000   9999     0     0     0    
2019/06/27  05:41:00  BASE  1.90512  22   2.21088  20   -8.2  48    -17.3 0     0     991.6    NA       0.0000   9999     0     0     0    
2019/06/27  05:42:00  BASE  1.94628  21   2.21088  20   -8.2  49    -17.1 0     0     991.6    NA       0.0000   9999     0     0     0    
2019/06/27  05:43:01  BASE  1.87572  23   2.21088  20   -8.1  49    -16.9 0     0     991.6    NA       0.0000   9999     0     0     0    
2019/06/27  05:44:01  BASE  1.8816   25   2.21088  20   -8.1  50    -16.7 0     0     991.6    NA       0.0000   9999     0     0     0    
2019/06/27  05:45:01  BASE  2.1756   28   2.56956  31   -8.0  50    -16.6 0     0     991.7    NA       0.0000   9999     0     0     0    
2019/06/27  05:46:01  BASE  2.4402   32   2.81064  36   -8.0  50    -16.6 0     0     991.7    NA       0.0000   9999     0     0     0    
2019/06/27  05:47:01  BASE  2.48724  33   2.90472  34   -8.1  50    -16.6 0     0     991.7    NA       0.0000   9999     0     0     0    
2019/06/27  05:48:01  BASE  2.40492  34   2.90472  34   -8.2  51    -16.6 0     0     991.7    NA       0.0000   9999     0     0     0    
2019/06/27  05:49:01  BASE  2.32848  37   2.90472  34   -8.2  51    -16.5 0     0     991.7    NA       0.0000   9999     0     0     0    
2019/06/27  05:50:01  BASE  2.44608  36   2.90472  34   -8.3  52    -16.5 0     0     991.7    NA       0.0000   9999     0     0     0    
2019/06/27  05:51:01  BASE  2.48724  32   2.90472  34   -8.3  52    -16.5 0     0     991.8    NA       0.0000   9999     0     0     0    
2019/06/27  05:52:01  BASE  2.31084  33   2.90472  34   -8.4  52    -16.5 0     0     991.8    NA       0.0000   9999     0     0     0    
2019/06/27  05:53:01  BASE  2.205    35   2.90472  34   -8.4  52    -16.5 0     0     991.8    NA       0.0000   9999     0     0     0    
2019/06/27  05:54:01  BASE  2.24616  36   2.90472  34   -8.4  52    -16.5 0     0     991.8    NA       0.0000   9999     0     0     0    
2019/06/27  05:55:01  BASE  2.24616  40   2.90472  34   -8.4  52    -16.6 0     0     991.8    NA       0.0000   9999     0     0     0    
2019/06/27  05:56:01  BASE  2.13444  42   2.90472  34   -8.4  51    -16.7 0     0     991.8    NA       0.0000   9999     0     0     0    
2019/06/27  05:57:01  BASE  1.99332  42   2.75184  34   -8.4  51    -16.7 0     0     991.8    NA       0.0000   9999     0     0     0    
2019/06/27  05:58:01  BASE  1.84632  45   2.75184  34   -8.4  51    -16.7 0     0     991.8    NA       0.0000   9999     0     0     0    
2019/06/27  05:59:01  BASE  1.71696  47   2.75184  34   -8.3  51    -16.7 0     0     991.8    NA       0.0000   9999     0     0     0    
2019/06/27  06:00:01  BASE  1.74636  40   2.69304  37   -8.3  50    -16.8 0     0     991.9    NA       0.0000   9999     0     0     0    
2019/06/27  06:01:01  BASE  1.79928  36   2.54016  39   -8.2  50    -16.8 0     0     992.0    NA       0.0000   9999     0     0     0    
2019/06/27  06:02:01  BASE  1.8228   39   2.54016  39   -8.2  50    -16.8 0     0     992.0    NA       0.0000   9999     0     0     0    
2019/06/27  06:03:01  BASE  1.8522   38   2.54016  39   -8.2  50    -16.8 0     0     992.0    NA       0.0000   9999     0     0     0    
2019/06/27  06:04:01  BASE  1.89924  35   2.32848  40   -8.3  51    -16.7 0     0     992.0    NA       0.0000   9999     0     0     0    
2019/06/27  06:05:01  BASE  2.0286   35   2.42256  34   -8.3  51    -16.7 0     0     992.0    NA       0.0000   9999     0     0     0    
2019/06/27  06:06:01  BASE  2.12268  40   2.81064  40   -8.3  51    -16.6 0     0     992.0    NA       0.0000   9999     0     0     0    
2019/06/27  06:07:01  BASE  2.2344   43   2.81064  40   -8.3  52    -16.5 0     0     992.0    NA       0.0000   9999     0     0     0    
2019/06/27  06:08:01  BASE  2.34024  42   2.81064  40   -8.3  52    -16.5 0     0     992.0    NA       0.0000   9999     0     0     0    
2019/06/27  06:09:01  BASE  2.26968  42   2.81064  40   -8.4  52    -16.5 0     0     992.0    NA       0.0000   9999     0     0     0    
2019/06/27  06:10:01  BASE  2.28732  43   2.84592  47   -8.4  52    -16.5 0     0     992.0    NA       0.0000   9999     0     0     0    
2019/06/27  06:11:01  BASE  2.37552  43   3.0576   40   -8.4  52    -16.5 0     0     992.0    NA       0.0000   9999     0     0     0    
2019/06/27  06:12:01  BASE  2.4108   48   3.0576   40   -8.4  52    -16.5 0     0     992.0    NA       0.0000   9999     0     0     0    
2019/06/27  06:13:01  BASE  2.4108   50   3.0576   40   -8.4  52    -16.5 0     0     992.0    NA       0.0000   9999     0     0     0    
2019/06/27  06:14:01  BASE  2.24028  50   3.0576   40   -8.4  52    -16.5 0     0     992.0    NA       0.0000   9999     0     0     0    
2019/06/27  06:15:01  BASE  2.33436  51   3.0576   40   -8.4  52    -16.4 0     0     992.0    NA       0.0000   9999     0     0     0    
2019/06/27  06:16:01  BASE  2.36964  51   3.0576   40   -8.3  52    -16.4 0     0     992.0    NA       0.0000   9999     0     0     0    
2019/06/27  06:17:01  BASE  2.31672  49   3.0576   40   -8.3  52    -16.3 0     0     992.0    NA       0.0000   9999     0     0     0    
2019/06/27  06:18:01  BASE  2.499    48   3.0576   40   -8.3  52    -16.3 0     0     992.0    NA       0.0000   9999     0     0     0    
2019/06/27  06:19:01  BASE  2.4696   49   3.0576   40   -8.3  52    -16.3 0     0     992.1    NA       0.0000   9999     0     0     0    
2019/06/27  06:20:01  BASE  2.40492  46   3.0576   40   -8.3  52    -16.4 0     0     992.0    NA       0.0000   9999     0     0     0    
2019/06/27  06:21:01  BASE  2.33436  47   2.87532  53   -8.3  52    -16.4 0     0     992.1    NA       0.0000   9999     0     0     0    
2019/06/27  06:22:01  BASE  2.25792  49   2.87532  53   -8.3  52    -16.4 0     0     992.1    NA       0.0000   9999     0     0     0    
2019/06/27  06:23:01  BASE  2.29908  49   2.87532  53   -8.3  52    -16.3 0     0     992.1    NA       0.0000   9999     0     0     0    
2019/06/27  06:24:01  BASE  2.28732  49   2.87532  53   -8.3  53    -16.3 0     0     992.1    NA       0.0000   9999     0     0     0    
2019/06/27  06:25:01  BASE  2.31672  50   2.87532  53   -8.3  53    -16.2 0     0     992.1    NA       0.0000   9999     0     0     0    
2019/06/27  06:26:01  BASE  2.42256  52   2.87532  53   -8.3  53    -16.2 0     0     992.1    NA       0.0000   9999     0     0     0    
2019/06/27  06:27:01  BASE  2.38728  51   2.87532  53   -8.2  53    -16.1 0     0     992.1    NA       0.0000   9999     0     0     0    
2019/06/27  06:28:01  BASE  2.39904  51   2.81064  53   -8.2  54    -15.9 0     0     992.1    NA       0.0000   9999     0     0     0    
2019/06/27  06:29:01  BASE  2.5578   49   2.87532  42   -8.2  54    -15.9 0     0     992.2    NA       0.0000   9999     0     0     0    
2019/06/27  06:30:01  BASE  2.50488  45   2.87532  42   -8.2  54    -15.8 0     0     992.2    NA       0.0000   9999     0     0     0    
2019/06/27  06:31:01  BASE  2.38728  45   2.87532  42   -8.3  55    -15.7 0     0     992.2    NA       0.0000   9999     0     0     0    
2019/06/27  06:32:01  BASE  2.4696   44   3.1164   45   -8.3  55    -15.6 0     0     992.2    NA       0.0000   9999     0     0     0    
2019/06/27  06:33:01  BASE  2.47548  45   3.1164   45   -8.3  56    -15.6 0     0     992.2    NA       0.0000   9999     0     0     0    
2019/06/27  06:34:01  BASE  2.30496  48   3.1164   45   -8.3  56    -15.4 0     0     992.1    NA       0.0000   9999     0     0     0    
2019/06/27  06:35:01  BASE  2.31084  51   3.1164   45   -8.3  57    -15.3 0     0     992.2    NA       0.0000   9999     0     0     0    
2019/06/27  06:36:01  BASE  2.44608  51   3.1164   45   -8.3  57    -15.3 0     0     992.2    NA       0.0000   9999     0     0     0    
2019/06/27  06:37:01  BASE  2.55192  52   3.1164   45   -8.3  57    -15.3 0     0     992.2    NA       0.0000   9999     0     0     0    
2019/06/27  06:38:01  BASE  2.646    55   3.1164   45   -8.3  57    -15.3 0     0     992.2    NA       0.0000   9999     0     0     0    
2019/06/27  06:39:01  BASE  2.57544  54   3.1164   45   -8.3  57    -15.2 0     0     992.2    NA       0.0000   9999     0     0     0    
2019/06/27  06:40:01  BASE  2.74008  55   3.35748  48   -8.3  58    -15.1 0     0     992.2    NA       0.0000   9999     0     0     0    
2019/06/27  06:41:01  BASE  2.74596  56   3.35748  48   -8.3  58    -15.0 0     0     992.2    NA       0.0000   9999     0     0     0    
2019/06/27  06:42:01  BASE  2.58132  54   3.35748  48   -8.2  59    -14.9 0     0     992.2    NA       0.0000   9999     0     0     0    
2019/06/27  06:43:01  BASE  2.58132  54   3.35748  48   -8.2  59    -14.8 0     0     992.2    NA       0.0000   9999     0     0     0    
2019/06/27  06:44:01  BASE  2.44608  54   3.35748  48   -8.2  60    -14.7 0     0     992.2    NA       0.0000   9999     0     0     0    
2019/06/27  06:45:01  BASE  2.4402   54   3.35748  48   -8.2  60    -14.7 0     0     992.2    NA       0.0000   9999     0     0     0    
2019/06/27  06:46:01  BASE  2.29908  52   3.35748  48   -8.2  59    -14.7 0     0     992.2    NA       0.0000   9999     0     0     0    
2019/06/27  06:47:01  BASE  2.15796  50   3.35748  48   -8.2  59    -14.8 0     0     992.2    NA       0.0000   9999     0     0     0    
2019/06/27  06:48:01  BASE  2.48136  50   3.35748  48   -8.2  59    -14.8 0     0     992.2    NA       0.0000   9999     0     0     0    
2019/06/27  06:49:01  BASE  2.5872   51   3.35748  48   -8.2  59    -14.8 0     0     992.2    NA       0.0000   9999     0     0     0    
2019/06/27  06:50:01  BASE  2.499    54   3.2046   61   -8.2  59    -14.8 0     0     992.2    NA       0.0000   9999     0     0     0    
2019/06/27  06:51:01  BASE  2.56368  56   3.2046   61   -8.2  60    -14.7 0     0     992.2    NA       0.0000   9999     0     0     0    
2019/06/27  06:52:01  BASE  2.60484  56   3.2046   61   -8.2  60    -14.7 0     0     992.3    NA       0.0000   9999     0     0     0    
2019/06/27  06:53:01  BASE  2.69892  54   3.48096  43   -8.2  60    -14.6 0     0     992.3    NA       0.0000   9999     0     0     0    
2019/06/27  06:54:01  BASE  2.61072  48   3.48096  43   -8.2  60    -14.6 0     0     992.3    NA       0.0000   9999     0     0     0    
2019/06/27  06:55:01  BASE  2.59896  48   3.48096  43   -8.3  60    -14.6 0     0     992.3    NA       0.0000   9999     0     0     0    
2019/06/27  06:56:01  BASE  2.69892  51   3.48096  43   -8.3  61    -14.6 0     0     992.3    NA       0.0000   9999     0     0     0    
2019/06/27  06:57:01  BASE  2.62836  51   3.48096  43   -8.4  61    -14.5 0     0     992.3    NA       0.0000   9999     0     0     0    
2019/06/27  06:58:01  BASE  2.44608  49   3.48096  43   -8.4  61    -14.5 0     0     992.3    NA       0.0000   9999     0     0     0    
2019/06/27  06:59:01  BASE  2.83416  46   3.96312  42   -8.3  61    -14.5 0     0     992.3    NA       0.0000   9999     0     0     0    
2019/06/27  07:00:01  BASE  3.21048  47   4.08072  42   -8.4  61    -14.5 0     0     992.3    NA       0.0000   9999     0     0     0    
2019/06/27  07:01:01  BASE  2.66364  52   4.08072  42   -8.4  62    -14.5 0     0     992.3    NA       0.0000   9999     0     0     0    
2019/06/27  07:02:01  BASE  2.5578   53   4.08072  42   -8.4  62    -14.5 0     0     992.3    NA       0.0000   9999     0     0     0    
2019/06/27  07:03:01  BASE  2.74596  52   4.08072  42   -8.4  62    -14.4 0     0     992.3    NA       0.0000   9999     0     0     0    
2019/06/27  07:04:01  BASE  2.48724  53   4.08072  42   -8.4  62    -14.4 0     0     992.3    NA       0.0000   9999     0     0     0    
2019/06/27  07:05:01  BASE  2.55192  53   4.08072  42   -8.3  62    -14.4 0     0     992.3    NA       0.0000   9999     0     0     0    
2019/06/27  07:06:01  BASE  2.98704  51   4.08072  42   -8.3  62    -14.4 0     0     992.3    NA       0.0000   9999     0     0     0    
2019/06/27  07:07:01  BASE  3.0576   52   4.08072  42   -8.4  62    -14.4 0     0     992.3    NA       0.0000   9999     0     0     0    
2019/06/27  07:08:01  BASE  2.88708  54   4.08072  42   -8.4  62    -14.4 0     0     992.3    NA       0.0000   9999     0     0     0    
2019/06/27  07:09:01  BASE  2.91648  55   4.08072  42   -8.4  62    -14.4 0     0     992.3    NA       0.0000   9999     0     0     0    
2019/06/27  07:10:01  BASE  2.87532  57   3.62796  40   -8.5  63    -14.3 0     0     992.3    NA       0.0000   9999     0     0     0    
2019/06/27  07:11:01  BASE  2.64012  58   3.62796  40   -8.5  63    -14.3 0     0     992.3    NA       0.0000   9999     0     0     0    
2019/06/27  07:12:01  BASE  2.499    57   3.62796  40   -8.4  63    -14.2 0     0     992.4    NA       0.0000   9999     0     0     0    
2019/06/27  07:13:01  BASE  2.352    56   3.62796  40   -8.4  63    -14.2 0     0     992.4    NA       0.0000   9999     0     0     0    
2019/06/27  07:14:01  BASE  2.15796  55   3.62796  40   -8.4  63    -14.2 0     0     992.4    NA       0.0000   9999     0     0     0    
2019/06/27  07:15:01  BASE  2.12856  53   3.62796  40   -8.4  63    -14.2 0     0     992.4    NA       0.0000   9999     0     0     0    
2019/06/27  07:16:01  BASE  2.16384  50   3.48096  58   -8.3  63    -14.2 0     0     992.5    NA       0.0000   9999     0     0     0    
2019/06/27  07:17:01  BASE  2.06388  50   3.48096  58   -8.3  63    -14.1 0     0     992.5    NA       0.0000   9999     0     0     0    
2019/06/27  07:18:01  BASE  2.16384  52   3.48096  58   -8.3  63    -14.1 0     0     992.5    NA       0.0000   9999     0     0     0    
2019/06/27  07:19:01  BASE  2.3226   54   3.02232  63   -8.2  62    -14.1 0     0     992.5    NA       0.0000   9999     0     0     0    
2019/06/27  07:20:01  BASE  2.16384  53   2.78124  63   -8.2  62    -14.1 0     0     992.5    NA       0.0000   9999     0     0     0    
2019/06/27  07:21:01  BASE  2.21676  54   2.78124  63   -8.2  63    -14.1 0     0     992.5    NA       0.0000   9999     0     0     0    
2019/06/27  07:22:01  BASE  2.32848  57   2.78124  63   -8.2  63    -14.0 0     0     992.6    NA       0.0000   9999     0     0     0    
2019/06/27  07:23:01  BASE  2.22264  55   2.56956  52   -8.1  63    -14.0 0     0     992.6    NA       0.0000   9999     0     0     0    
2019/06/27  07:24:01  BASE  2.06976  50   2.56956  52   -8.1  63    -13.9 0     0     992.6    NA       0.0000   9999     0     0     0    
2019/06/27  07:25:01  BASE  2.10504  47   2.56956  52   -8.1  63    -13.9 0     0     992.6    NA       0.0000   9999     0     0     0    
2019/06/27  07:26:01  BASE  2.29908  50   2.59896  50   -8.1  63    -14.0 0     0     992.6    NA       0.0000   9999     0     0     0    
2019/06/27  07:27:01  BASE  2.27556  53   2.59896  50   -8.2  63    -14.0 0     0     992.7    NA       0.0000   9999     0     0     0    
2019/06/27  07:28:01  BASE  2.205    50   2.59896  50   -8.1  63    -14.0 0     0     992.7    NA       0.0000   9999     0     0     0    
2019/06/27  07:29:01  BASE  2.24028  49   2.84592  50   -8.1  63    -14.0 0     0     992.7    NA       0.0000   9999     0     0     0    
2019/06/27  07:30:01  BASE  2.38728  49   2.84592  50   -8.1  63    -14.0 0     0     992.7    NA       0.0000   9999     0     0     0    
2019/06/27  07:31:01  BASE  2.28732  52   2.84592  50   -8.1  62    -14.0 0     0     992.8    NA       0.0000   9999     0     0     0    
2019/06/27  07:32:01  BASE  2.14032  54   2.84592  50   -8.1  62    -14.0 0     0     992.8    NA       0.0000   9999     0     0     0    
2019/06/27  07:33:01  BASE  2.25792  52   2.84592  50   -8.1  62    -14.1 0     0     992.8    NA       0.0000   9999     0     0     0    
2019/06/27  07:34:01  BASE  2.34024  53   2.84592  50   -8.1  62    -14.1 0     0     992.8    NA       0.0000   9999     0     0     0    
2019/06/27  07:35:01  BASE  2.40492  52   2.84592  50   -8.1  62    -14.1 0     0     992.8    NA       0.0000   9999     0     0     0    
2019/06/27  07:36:01  BASE  2.48136  51   2.84592  50   -8.1  62    -14.1 0     0     992.8    NA       0.0000   9999     0     0     0    
2019/06/27  07:37:01  BASE  2.43432  53   2.84592  50   -8.2  62    -14.1 0     0     992.8    NA       0.0000   9999     0     0     0    
2019/06/27  07:38:01  BASE  2.32848  53   2.84592  50   -8.2  62    -14.1 0     0     992.8    NA       0.0000   9999     0     0     0    
2019/06/27  07:39:01  BASE  2.39316  51   2.81064  45   -8.2  62    -14.1 0     0     992.8    NA       0.0000   9999     0     0     0    
2019/06/27  07:40:01  BASE  2.41668  47   2.81064  45   -8.2  62    -14.2 0     0     992.8    NA       0.0000   9999     0     0     0    
2019/06/27  07:41:01  BASE  2.3814   47   2.90472  49   -8.3  62    -14.2 0     0     992.8    NA       0.0000   9999     0     0     0    
2019/06/27  07:42:01  BASE  2.59896  46   2.99292  33   -8.3  62    -14.3 0     0     992.8    NA       0.0000   9999     0     0     0    
2019/06/27  07:43:01  BASE  2.7048   45   3.1164   41   -8.4  62    -14.3 0     0     992.8    NA       0.0000   9999     0     0     0    
2019/06/27  07:44:01  BASE  2.49312  47   3.1164   41   -8.4  62    -14.4 0     0     992.8    NA       0.0000   9999     0     0     0    
2019/06/27  07:45:01  BASE  2.29908  48   3.1164   41   -8.4  62    -14.4 0     0     992.8    NA       0.0000   9999     0     0     0    
2019/06/27  07:46:01  BASE  2.25204  47   3.1164   41   -8.4  62    -14.4 0     0     992.8    NA       0.0000   9999     0     0     0    
2019/06/27  07:47:01  BASE  2.31672  50   3.1164   41   -8.3  62    -14.4 0     0     992.7    NA       0.0000   9999     0     0     0    
2019/06/27  07:48:01  BASE  2.21676  54   3.1164   41   -8.3  62    -14.4 0     0     992.8    NA       0.0000   9999     0     0     0    
2019/06/27  07:49:01  BASE  2.205    55   3.1164   41   -8.2  61    -14.4 0     0     992.8    NA       0.0000   9999     0     0     0    
2019/06/27  07:50:01  BASE  2.25792  52   3.1164   41   -8.2  61    -14.4 0     0     992.8    NA       0.0000   9999     0     0     0    
2019/06/27  07:51:01  BASE  2.32848  52   3.1164   41   -8.2  60    -14.5 0     0     992.8    NA       0.0000   9999     0     0     0    
2019/06/27  07:52:01  BASE  2.499    56   3.1164   41   -8.2  60    -14.6 0     0     992.8    NA       0.0000   9999     0     0     0    
2019/06/27  07:53:01  BASE  2.36964  55   2.93412  67   -8.2  59    -14.7 0     0     992.8    NA       0.0000   9999     0     0     0    
2019/06/27  07:54:01  BASE  2.1462   53   2.93412  67   -8.1  59    -14.7 0     0     992.8    NA       0.0000   9999     0     0     0    
2019/06/27  07:55:01  BASE  2.1462   52   2.93412  67   -8.2  59    -14.8 0     0     992.8    NA       0.0000   9999     0     0     0    
2019/06/27  07:56:01  BASE  2.10504  50   2.93412  67   -8.2  59    -14.8 0     0     992.8    NA       0.0000   9999     0     0     0    
2019/06/27  07:57:01  BASE  2.04036  51   2.93412  67   -8.1  58    -14.9 0     0     992.8    NA       0.0000   9999     0     0     0    
2019/06/27  07:58:01  BASE  2.06976  52   2.93412  67   -8.1  58    -14.9 0     0     992.8    NA       0.0000   9999     0     0     0    
2019/06/27  07:59:01  BASE  2.10504  51   2.93412  67   -8.2  58    -15.0 0     0     992.8    NA       0.0000   9999     0     0     0    
2019/06/27  08:00:01  BASE  2.14032  50   2.93412  67   -8.1  58    -15.0 0     0     992.7    NA       0.0000   9999     0     0     0    
2019/06/27  08:01:01  BASE  2.16384  50   2.93412  67   -8.1  58    -15.0 0     0     992.7    NA       0.0000   9999     0     0     0    
2019/06/27  08:02:01  BASE  2.2344   53   2.51076  49   -8.1  57    -15.1 0     0     992.7    NA       0.0000   9999     0     0     0    
2019/06/27  08:03:01  BASE  2.36964  54   2.63424  58   -8.1  57    -15.2 0     0     992.7    NA       0.0000   9999     0     0     0    
2019/06/27  08:04:01  BASE  2.52252  57   2.69304  59   -8.1  56    -15.3 0     0     992.8    NA       0.0000   9999     0     0     0    
2019/06/27  08:05:01  BASE  2.56368  61   2.69304  59   -8.1  56    -15.4 0     0     992.8    NA       0.0000   9999     0     0     0    
2019/06/27  08:06:01  BASE  2.53428  60   2.69304  59   -8.1  55    -15.4 0     0     992.8    NA       0.0000   9999     0     0     0    
2019/06/27  08:07:01  BASE  2.49312  56   2.69304  59   -8.1  55    -15.5 0     0     992.8    NA       0.0000   9999     0     0     0    
2019/06/27  08:08:01  BASE  2.50488  57   2.69304  59   -8.1  55    -15.6 0     0     992.7    NA       0.0000   9999     0     0     0    
2019/06/27  08:09:01  BASE  2.45196  56   2.69304  55   -8.1  55    -15.6 0     0     992.7    NA       0.0000   9999     0     0     0    
2019/06/27  08:10:01  BASE  2.37552  53   2.69304  55   -8.1  54    -15.7 0     0     992.7    NA       0.0000   9999     0     0     0    
2019/06/27  08:11:01  BASE  2.3226   53   2.69304  55   -8.1  54    -15.7 0     0     992.7    NA       0.0000   9999     0     0     0    
2019/06/27  08:12:01  BASE  2.2344   53   2.69304  55   -8.1  54    -15.7 0     0     992.7    NA       0.0000   9999     0     0     0    
2019/06/27  08:13:01  BASE  2.09328  50   2.69304  55   -8.1  54    -15.7 0     0     992.7    NA       0.0000   9999     0     0     0    
2019/06/27  08:14:01  BASE  2.04036  50   2.69304  55   -8.1  54    -15.7 0     0     992.7    NA       0.0000   9999     0     0     0    
2019/06/27  08:15:01  BASE  2.1168   50   2.69304  55   -8.0  54    -15.7 0     0     992.7    NA       0.0000   9999     0     0     0    
2019/06/27  08:16:01  BASE  2.02272  45   2.69304  55   -8.0  53    -15.8 0     0     992.7    NA       0.0000   9999     0     0     0    
2019/06/27  08:17:01  BASE  1.911    45   2.69304  55   -8.0  53    -15.9 0     0     992.7    NA       0.0000   9999     0     0     0    
2019/06/27  08:18:01  BASE  1.88748  47   2.69304  55   -8.0  53    -15.9 0     0     992.7    NA       0.0000   9999     0     0     0    
2019/06/27  08:19:01  BASE  1.85808  47   2.48136  58   -8.0  53    -15.9 0     0     992.8    NA       0.0000   9999     0     0     0    
2019/06/27  08:20:01  BASE  1.91688  45   2.45196  58   -8.0  53    -15.9 0     0     992.8    NA       0.0000   9999     0     0     0    
2019/06/27  08:21:01  BASE  1.9404   43   2.45196  58   -8.0  53    -15.9 0     0     992.8    NA       0.0000   9999     0     0     0    
2019/06/27  08:22:01  BASE  1.88748  42   2.35788  51   -8.0  53    -15.9 0     0     992.7    NA       0.0000   9999     0     0     0    
2019/06/27  08:23:01  BASE  1.88748  45   2.35788  51   -8.0  53    -16.0 0     0     992.7    NA       0.0000   9999     0     0     0    
2019/06/27  08:24:01  BASE  1.94628  46   2.35788  42   -8.0  53    -15.9 0     0     992.7    NA       0.0000   9999     0     0     0    
2019/06/27  08:25:01  BASE  1.9698   45   2.35788  42   -8.0  53    -15.9 0     0     992.7    NA       0.0000   9999     0     0     0    
2019/06/27  08:26:01  BASE  2.01684  43   2.38728  27   -8.0  53    -15.9 0     0     992.7    NA       0.0000   9999     0     0     0    
2019/06/27  08:27:01  BASE  1.9992   43   2.38728  27   -8.0  53    -15.9 0     0     992.7    NA       0.0000   9999     0     0     0    
2019/06/27  08:28:01  BASE  1.82868  39   2.38728  27   -8.1  53    -15.9 0     0     992.7    NA       0.0000   9999     0     0     0    
2019/06/27  08:29:01  BASE  1.764    33   2.38728  27   -8.1  53    -16.0 0     0     992.7    NA       0.0000   9999     0     0     0    
2019/06/27  08:30:01  BASE  1.7052   37   2.38728  27   -8.1  53    -16.0 0     0     992.7    NA       0.0000   9999     0     0     0    
2019/06/27  08:31:01  BASE  1.81104  34   2.63424  33   -8.2  53    -16.0 0     0     992.7    NA       0.0000   9999     0     0     0    
2019/06/27  08:32:01  BASE  2.19324  22   2.69304  24   -8.2  53    -16.0 0     0     992.7    NA       0.0000   9999     0     0     0    
2019/06/27  08:33:01  BASE  2.36964  23   2.93412  29   -8.2  53    -16.0 0     0     992.7    NA       0.0000   9999     0     0     0    
2019/06/27  08:34:01  BASE  2.28144  28   2.93412  29   -8.2  54    -15.9 0     0     992.7    NA       0.0000   9999     0     0     0    
2019/06/27  08:35:01  BASE  2.19912  31   2.93412  29   -8.3  54    -15.9 0     0     992.7    NA       0.0000   9999     0     0     0    
2019/06/27  08:36:00  BASE  2.10504  33   2.93412  29   -8.3  55    -15.8 0     0     992.7    NA       0.0000   9999     0     0     0    
2019/06/27  08:37:01  BASE  1.96392  31   2.93412  29   -8.3  55    -15.8 0     0     992.7    NA       0.0000   9999     0     0     0    
2019/06/27  08:38:01  BASE  1.90512  30   2.93412  29   -8.3  55    -15.7 0     0     992.7    NA       0.0000   9999     0     0     0    
2019/06/27  08:39:01  BASE  2.03448  34   2.93412  29   -8.3  56    -15.6 0     0     992.7    NA       0.0000   9999     0     0     0    
2019/06/27  08:40:00  BASE  2.13444  41   2.93412  29   -8.3  56    -15.6 0     0     992.7    NA       0.0000   9999     0     0     0    
2019/06/27  08:41:01  BASE  1.86396  45   2.93412  29   -8.3  56    -15.5 0     0     992.7    NA       0.0000   9999     0     0     0    
2019/06/27  08:42:01  BASE  1.37004  44   2.93412  29   -8.2  56    -15.4 0     0     992.8    NA       0.0000   9999     0     0     0    
2019/06/27  08:43:01  BASE  1.4112   47   2.63424  49   -8.1  56    -15.4 0     0     992.7    NA       0.0000   9999     0     0     0    
2019/06/27  08:44:01  BASE  1.84632  50   2.63424  49   -8.1  55    -15.5 0     0     992.7    NA       0.0000   9999     0     0     0    
2019/06/27  08:45:01  BASE  1.97568  48   2.63424  49   -8.0  54    -15.6 0     0     992.7    NA       0.0000   9999     0     0     0    
2019/06/27  08:46:01  BASE  1.89924  45   2.63424  49   -7.9  54    -15.7 0     0     992.7    NA       0.0000   9999     0     0     0    
2019/06/27  08:47:01  BASE  1.84632  43   2.63424  49   -7.9  53    -15.8 0     0     992.7    NA       0.0000   9999     0     0     0    
2019/06/27  08:48:01  BASE  1.92276  40   2.63424  49   -8.0  53    -15.9 0     0     992.7    NA       0.0000   9999     0     0     0    
2019/06/27  08:49:00  BASE  1.87572  38   2.63424  49   -8.1  54    -15.8 0     0     992.8    NA       0.0000   9999     0     0     0    
2019/06/27  08:50:00  BASE  1.7346   40   2.24028  52   -8.1  54    -15.7 0     0     992.8    NA       0.0000   9999     0     0     0    
2019/06/27  08:51:01  BASE  1.75812  42   2.24028  52   -8.2  55    -15.7 0     0     992.8    NA       0.0000   9999     0     0     0    
2019/06/27  08:52:01  BASE  1.89924  39   2.24028  52   -8.2  56    -15.6 0     0     992.7    NA       0.0000   9999     0     0     0    
2019/06/27  08:53:01  BASE  2.08152  32   2.69304  23   -8.3  56    -15.5 0     0     992.7    NA       0.0000   9999     0     0     0    
2019/06/27  08:54:01  BASE  2.42256  27   2.90472  22   -8.3  57    -15.4 0     0     992.7    NA       0.0000   9999     0     0     0    
2019/06/27  08:55:01  BASE  2.52252  26   2.90472  22   -8.3  57    -15.4 0     0     992.7    NA       0.0000   9999     0     0     0    
2019/06/27  08:56:00  BASE  2.1756   35   2.90472  22   -8.4  57    -15.3 0     0     992.7    NA       0.0000   9999     0     0     0    
2019/06/27  08:57:00  BASE  2.03448  43   2.90472  22   -8.5  57    -15.4 0     0     992.7    NA       0.0000   9999     0     0     0    
2019/06/27  08:58:00  BASE  2.08152  43   2.90472  22   -8.5  57    -15.4 0     0     992.7    NA       0.0000   9999     0     0     0    
2019/06/27  08:59:00  BASE  2.12268  42   2.90472  22   -8.5  57    -15.4 0     0     992.7    NA       0.0000   9999     0     0     0    
2019/06/27  09:00:00  BASE  2.24028  40   3.29868  40   -8.4  57    -15.5 0     0     992.7    NA       0.0000   9999     0     0     0    
2019/06/27  09:01:01  BASE  2.76948  39   3.62796  44   -8.4  56    -15.5 0     0     992.7    NA       0.0000   9999     0     0     0    
2019/06/27  09:02:01  BASE  3.31632  40   3.62796  44   -8.4  57    -15.5 0     0     992.7    NA       0.0000   9999     0     0     0    
2019/06/27  09:03:00  BASE  3.33396  40   3.62796  44   -8.5  57    -15.4 0     0     992.7    NA       0.0000   9999     0     0     0    
2019/06/27  09:04:00  BASE  3.13404  38   3.62796  44   -8.6  59    -15.2 0     0     992.7    NA       0.0000   9999     0     0     0    
2019/06/27  09:05:00  BASE  3.06936  39   3.62796  44   -8.6  60    -15.0 0     0     992.7    NA       0.0000   9999     0     0     0    
2019/06/27  09:06:00  BASE  3.1164   43   3.62796  44   -8.7  61    -14.8 0     0     992.7    NA       0.0000   9999     0     0     0    
2019/06/27  09:07:00  BASE  2.94     43   3.62796  44   -8.7  63    -14.5 0     0     992.7    NA       0.0000   9999     0     0     0    
2019/06/27  09:08:01  BASE  2.62836  46   3.62796  44   -8.7  63    -14.4 0     0     992.7    NA       0.0000   9999     0     0     0    
2019/06/27  09:09:00  BASE  2.60484  49   3.62796  44   -8.6  64    -14.2 0     0     992.7    NA       0.0000   9999     0     0     0    
2019/06/27  09:10:00  BASE  2.78124  50   3.62796  44   -8.5  64    -14.1 0     0     992.7    NA       0.0000   9999     0     0     0    
2019/06/27  09:11:00  BASE  2.89884  50   3.53976  42   -8.4  64    -14.0 0     0     992.7    NA       0.0000   9999     0     0     0    
2019/06/27  09:12:01  BASE  3.04584  46   3.48096  39   -8.4  64    -14.0 0     0     992.7    NA       0.0000   9999     0     0     0    
2019/06/27  09:13:00  BASE  3.06348  46   3.41628  62   -8.4  63    -14.1 0     0     992.7    NA       0.0000   9999     0     0     0    
2019/06/27  09:14:00  BASE  3.06348  47   3.41628  62   -8.4  63    -14.1 0     0     992.6    NA       0.0000   9999     0     0     0    
2019/06/27  09:15:01  BASE  3.00468  48   3.41628  62   -8.4  63    -14.1 0     0     992.7    NA       0.0000   9999     0     0     0    
2019/06/27  09:16:01  BASE  2.95176  51   3.41628  62   -8.4  64    -14.1 0     0     992.7    NA       0.0000   9999     0     0     0    
2019/06/27  09:17:00  BASE  3.087    51   3.48096  45   -8.4  64    -14.0 0     0     992.7    NA       0.0000   9999     0     0     0    
2019/06/27  09:18:01  BASE  3.16932  52   3.81024  54   -8.3  65    -13.8 0     0     992.7    NA       0.0000   9999     0     0     0    
2019/06/27  09:19:01  BASE  3.32808  52   3.81024  54   -8.3  65    -13.7 0     0     992.7    NA       0.0000   9999     0     0     0    
2019/06/27  09:20:00  BASE  3.3222   49   3.81024  54   -8.2  65    -13.6 0     0     992.7    NA       0.0000   9999     0     0     0    
2019/06/27  09:21:01  BASE  3.25164  51   3.81024  54   -8.2  65    -13.6 0     0     992.7    NA       0.0000   9999     0     0     0    
2019/06/27  09:22:01  BASE  3.43392  51   3.86904  46   -8.1  65    -13.6 0     0     992.7    NA       0.0000   9999     0     0     0    
2019/06/27  09:23:01  BASE  3.31044  51   3.86904  46   -8.2  65    -13.6 0     0     992.7    NA       0.0000   9999     0     0     0    
2019/06/27  09:24:00  BASE  3.31044  49   3.86904  42   -8.2  65    -13.6 0     0     992.7    NA       0.0000   9999     0     0     0    
2019/06/27  09:25:01  BASE  3.62208  45   4.05132  44   -8.2  65    -13.6 0     0     992.7    NA       0.0000   9999     0     0     0    
2019/06/27  09:26:00  BASE  3.59268  48   4.05132  44   -8.3  65    -13.7 0     0     992.7    NA       0.0000   9999     0     0     0    
2019/06/27  09:27:00  BASE  3.47508  48   4.05132  44   -8.4  65    -13.8 0     0     992.7    NA       0.0000   9999     0     0     0    
2019/06/27  09:28:01  BASE  3.50448  45   4.05132  44   -8.4  65    -13.8 0     0     992.6    NA       0.0000   9999     0     0     0    
2019/06/27  09:29:01  BASE  3.56916  41   4.05132  44   -8.5  66    -13.8 0     0     992.7    NA       0.0000   9999     0     0     0    
2019/06/27  09:30:00  BASE  3.51624  40   4.05132  44   -8.6  66    -13.9 0     0     992.7    NA       0.0000   9999     0     0     0    
2019/06/27  09:31:00  BASE  3.09876  49   4.05132  44   -8.6  66    -13.8 0     0     992.7    NA       0.0000   9999     0     0     0    
2019/06/27  09:32:01  BASE  3.15168  50   4.05132  44   -8.6  66    -13.7 0     0     992.6    NA       0.0000   9999     0     0     0    
2019/06/27  09:33:00  BASE  3.5868   43   4.05132  44   -8.6  66    -13.7 0     0     992.6    NA       0.0000   9999     0     0     0    
2019/06/27  09:34:00  BASE  3.81024  41   4.263    42   -8.6  66    -13.7 0     0     992.6    NA       0.0000   9999     0     0     0    
2019/06/27  09:35:00  BASE  3.85728  45   4.41588  41   -8.6  67    -13.7 0     0     992.7    NA       0.0000   9999     0     0     0    
2019/06/27  09:36:00  BASE  3.7632   48   4.41588  41   -8.5  67    -13.6 0     0     992.7    NA       0.0000   9999     0     0     0    
2019/06/27  09:37:01  BASE  3.98076  44   4.44528  46   -8.6  67    -13.7 0     0     992.7    NA       0.0000   9999     0     0     0    
2019/06/27  09:38:00  BASE  4.01016  44   4.44528  46   -8.6  67    -13.6 0     0     992.7    NA       0.0000   9999     0     0     0    
2019/06/27  09:39:00  BASE  3.6162   45   4.44528  46   -8.6  67    -13.6 0     0     992.7    NA       0.0000   9999     0     0     0    
2019/06/27  09:40:01  BASE  3.34572  47   4.44528  46   -8.5  67    -13.6 0     0     992.7    NA       0.0000   9999     0     0     0    
2019/06/27  09:41:00  BASE  3.03996  49   4.44528  46   -8.5  67    -13.6 0     0     992.7    NA       0.0000   9999     0     0     0    
2019/06/27  09:42:00  BASE  3.33984  46   4.53936  41   -8.5  67    -13.6 0     0     992.7    NA       0.0000   9999     0     0     0    
2019/06/27  09:43:00  BASE  3.56328  50   4.53936  41   -8.5  67    -13.6 0     0     992.7    NA       0.0000   9999     0     0     0    
2019/06/27  09:44:00  BASE  3.31632  58   4.53936  41   -8.5  67    -13.6 0     0     992.7    NA       0.0000   9999     0     0     0    
2019/06/27  09:45:00  BASE  3.22224  63   4.53936  41   -8.4  66    -13.6 0     0     992.7    NA       0.0000   9999     0     0     0    
2019/06/27  09:46:01  BASE  3.01056  66   4.53936  41   -8.4  66    -13.6 0     0     992.7    NA       0.0000   9999     0     0     0    
2019/06/27  09:47:00  BASE  3.03996  64   4.53936  41   -8.4  66    -13.7 0     0     992.7    NA       0.0000   9999     0     0     0    
2019/06/27  09:48:00  BASE  3.11052  64   4.53936  41   -8.3  65    -13.7 0     0     992.7    NA       0.0000   9999     0     0     0    
2019/06/27  09:49:00  BASE  2.97528  60   4.53936  41   -8.3  65    -13.7 0     0     992.7    NA       0.0000   9999     0     0     0    
2019/06/27  09:50:01  BASE  2.84592  61   4.53936  41   -8.2  64    -13.8 0     0     992.7    NA       0.0000   9999     0     0     0    
2019/06/27  09:51:00  BASE  2.7342   64   4.53936  41   -8.2  64    -13.8 0     0     992.7    NA       0.0000   9999     0     0     0    
2019/06/27  09:52:01  BASE  2.8518   66   4.02192  40   -8.2  63    -13.9 0     0     992.7    NA       0.0000   9999     0     0     0    
2019/06/27  09:53:00  BASE  2.8812   66   4.02192  40   -8.1  63    -13.9 0     0     992.7    NA       0.0000   9999     0     0     0    
2019/06/27  09:54:00  BASE  2.65776  63   3.81024  69   -8.1  63    -14.0 0     0     992.7    NA       0.0000   9999     0     0     0    
2019/06/27  09:55:00  BASE  2.8518   69   3.81024  69   -8.1  63    -14.0 0     0     992.7    NA       0.0000   9999     0     0     0    
2019/06/27  09:56:00  BASE  2.94588  71   3.81024  69   -8.1  62    -14.1 0     0     992.7    NA       0.0000   9999     0     0     0    
2019/06/27  09:57:00  BASE  2.7048   66   3.72204  53   -8.1  62    -14.1 0     0     992.7    NA       0.0000   9999     0     0     0    
2019/06/27  09:58:01  BASE  2.92824  64   3.62796  76   -8.1  62    -14.2 0     0     992.8    NA       0.0000   9999     0     0     0    
2019/06/27  09:59:00  BASE  3.2046   63   3.75144  64   -8.1  62    -14.2 0     0     992.8    NA       0.0000   9999     0     0     0    
2019/06/27  10:00:00  BASE  3.16932  65   3.75144  64   -8.1  62    -14.2 0     0     992.8    NA       0.0000   9999     0     0     0    
2019/06/27  10:01:00  BASE  3.11052  67   3.75144  64   -8.2  62    -14.2 0     0     992.8    NA       0.0000   9999     0     0     0    
2019/06/27  10:02:00  BASE  3.02232  64   3.75144  64   -8.2  62    -14.2 0     0     992.9    NA       0.0000   9999     0     0     0    
2019/06/27  10:03:00  BASE  3.02232  63   3.75144  64   -8.2  62    -14.2 0     0     992.9    NA       0.0000   9999     0     0     0    
2019/06/27  10:04:01  BASE  3.13992  63   3.75144  64   -8.2  62    -14.2 0     0     992.9    NA       0.0000   9999     0     0     0    
2019/06/27  10:05:00  BASE  3.2928   64   3.75144  64   -8.2  62    -14.2 0     0     992.9    NA       0.0000   9999     0     0     0    
2019/06/27  10:06:00  BASE  3.22812  65   3.75144  64   -8.2  62    -14.2 0     0     992.9    NA       0.0000   9999     0     0     0    
2019/06/27  10:07:00  BASE  3.09876  63   3.75144  64   -8.1  62    -14.2 0     0     992.9    NA       0.0000   9999     0     0     0    
2019/06/27  10:08:00  BASE  3.19284  63   3.75144  64   -8.1  61    -14.3 0     0     992.9    NA       0.0000   9999     0     0     0    
2019/06/27  10:09:00  BASE  2.9694   62   3.69264  61   -8.1  61    -14.3 0     0     992.9    NA       0.0000   9999     0     0     0    
2019/06/27  10:10:00  BASE  2.793    58   3.62796  62   -8.0  60    -14.4 0     0     992.9    NA       0.0000   9999     0     0     0    
2019/06/27  10:11:00  BASE  2.9694   58   3.62796  62   -8.0  60    -14.5 0     0     992.9    NA       0.0000   9999     0     0     0    
2019/06/27  10:12:00  BASE  2.94     56   3.62796  62   -8.0  59    -14.6 0     0     992.9    NA       0.0000   9999     0     0     0    
2019/06/27  10:13:00  BASE  2.81652  54   3.62796  62   -8.0  59    -14.7 0     0     992.9    NA       0.0000   9999     0     0     0    
2019/06/27  10:14:00  BASE  2.85768  57   3.62796  62   -8.0  59    -14.7 0     0     992.9    NA       0.0000   9999     0     0     0    
2019/06/27  10:15:00  BASE  2.9106   50   3.62796  62   -8.1  59    -14.8 0     0     992.9    NA       0.0000   9999     0     0     0    
2019/06/27  10:16:01  BASE  2.98704  47   3.62796  62   -8.1  59    -14.8 0     0     992.9    NA       0.0000   9999     0     0     0    
2019/06/27  10:17:00  BASE  2.92236  57   3.62796  62   -8.1  59    -14.8 0     0     992.9    NA       0.0000   9999     0     0     0    
2019/06/27  10:18:01  BASE  2.5872   56   3.59856  65   -8.2  59    -14.8 0     0     992.9    NA       0.0000   9999     0     0     0    
2019/06/27  10:19:00  BASE  2.36964  47   3.59856  65   -8.1  59    -14.7 0     0     992.9    NA       0.0000   9999     0     0     0    
2019/06/27  10:20:00  BASE  2.45784  51   3.59856  65   -8.1  59    -14.7 0     0     992.9    NA       0.0000   9999     0     0     0    
2019/06/27  10:21:00  BASE  2.71068  53   3.59856  65   -8.1  59    -14.8 0     0     992.9    NA       0.0000   9999     0     0     0    
2019/06/27  10:22:00  BASE  2.80476  51   3.51036  44   -8.1  58    -14.8 0     0     992.9    NA       0.0000   9999     0     0     0    
2019/06/27  10:23:00  BASE  2.8518   50   3.51036  44   -8.0  58    -14.9 0     0     992.9    NA       0.0000   9999     0     0     0    
2019/06/27  10:24:00  BASE  2.95764  45   3.69264  45   -8.0  57    -15.0 0     0     992.9    NA       0.0000   9999     0     0     0    
2019/06/27  10:25:00  BASE  3.19284  42   3.78084  34   -8.0  57    -15.0 0     0     992.9    NA       0.0000   9999     0     0     0    
2019/06/27  10:26:00  BASE  3.2634   48   3.78084  34   -8.1  57    -15.0 0     0     992.9    NA       0.0000   9999     0     0     0    
2019/06/27  10:27:00  BASE  3.00468  57   3.78084  34   -8.1  58    -15.0 0     0     992.9    NA       0.0000   9999     0     0     0    
2019/06/27  10:28:00  BASE  2.66952  53   3.78084  34   -8.1  58    -15.0 0     0     992.9    NA       0.0000   9999     0     0     0    
2019/06/27  10:29:00  BASE  2.55192  42   3.78084  34   -8.2  58    -15.0 0     0     992.9    NA       0.0000   9999     0     0     0    
2019/06/27  10:30:00  BASE  2.86944  50   3.78084  34   -8.2  58    -15.0 0     0     992.9    NA       0.0000   9999     0     0     0    
2019/06/27  10:31:00  BASE  2.95764  58   3.78084  34   -8.1  58    -15.0 0     0     992.9    NA       0.0000   9999     0     0     0    
2019/06/27  10:32:01  BASE  2.59896  54   3.78084  34   -8.0  57    -15.0 0     0     992.9    NA       0.0000   9999     0     0     0    
2019/06/27  10:33:00  BASE  2.4696   53   3.78084  34   -8.0  57    -15.0 0     0     992.9    NA       0.0000   9999     0     0     0    
2019/06/27  10:34:00  BASE  2.5284   52   3.78084  34   -7.9  57    -15.1 0     0     992.9    NA       0.0000   9999     0     0     0    
2019/06/27  10:35:00  BASE  2.74596  48   3.53976  39   -7.9  57    -15.0 0     0     992.9    NA       0.0000   9999     0     0     0    
2019/06/27  10:36:01  BASE  3.087    44   4.02192  41   -7.9  57    -15.0 0     0     993.0    NA       0.0000   9999     0     0     0    
2019/06/27  10:37:00  BASE  2.95764  46   4.02192  41   -8.0  57    -15.0 0     0     993.0    NA       0.0000   9999     0     0     0    
2019/06/27  10:38:00  BASE  2.57544  47   4.02192  41   -8.1  58    -15.0 0     0     993.0    NA       0.0000   9999     0     0     0    
2019/06/27  10:39:00  BASE  2.69892  46   4.02192  41   -8.1  58    -14.9 0     0     993.0    NA       0.0000   9999     0     0     0    
2019/06/27  10:40:00  BASE  2.81652  48   4.02192  41   -8.2  58    -14.9 0     0     993.0    NA       0.0000   9999     0     0     0    
2019/06/27  10:41:00  BASE  2.7342   55   4.02192  41   -8.1  58    -14.9 0     0     993.0    NA       0.0000   9999     0     0     0    
2019/06/27  10:42:00  BASE  2.84004  58   4.02192  41   -8.1  58    -14.9 0     0     993.0    NA       0.0000   9999     0     0     0    
2019/06/27  10:43:00  BASE  2.81652  57   4.02192  41   -8.1  58    -14.9 0     0     993.0    NA       0.0000   9999     0     0     0    
2019/06/27  10:44:00  BASE  2.61072  54   4.02192  41   -8.0  58    -14.9 0     0     993.0    NA       0.0000   9999     0     0     0    
2019/06/27  10:45:00  BASE  2.5872   54   4.02192  41   -8.0  57    -14.9 0     0     993.0    NA       0.0000   9999     0     0     0    
2019/06/27  10:46:00  BASE  2.78124  53   3.35748  54   -7.9  57    -15.0 0     0     993.0    NA       0.0000   9999     0     0     0    
2019/06/27  10:47:00  BASE  2.74596  50   3.35748  54   -7.9  56    -15.0 0     0     993.0    NA       0.0000   9999     0     0     0    
2019/06/27  10:48:00  BASE  2.71656  52   3.41628  61   -7.8  56    -15.0 0     0     993.0    NA       0.0000   9999     0     0     0    
2019/06/27  10:49:00  BASE  2.72832  50   3.41628  61   -7.8  56    -15.1 0     0     993.0    NA       0.0000   9999     0     0     0    
2019/06/27  10:50:00  BASE  2.47548  45   3.41628  61   -7.8  56    -15.1 0     0     993.0    NA       0.0000   9999     0     0     0    
2019/06/27  10:51:00  BASE  2.42256  40   3.41628  61   -7.8  56    -15.1 0     0     993.0    NA       0.0000   9999     0     0     0    
2019/06/27  10:52:00  BASE  2.53428  43   3.41628  61   -7.8  56    -15.1 0     0     993.0    NA       0.0000   9999     0     0     0    
2019/06/27  10:53:00  BASE  2.5284   51   3.41628  61   -7.8  56    -15.0 0     0     993.0    NA       0.0000   9999     0     0     0    
2019/06/27  10:54:00  BASE  2.35788  50   3.41628  61   -7.8  56    -15.0 0     0     993.0    NA       0.0000   9999     0     0     0    
2019/06/27  10:55:00  BASE  2.51664  48   3.41628  40   -7.8  56    -15.0 0     0     993.0    NA       0.0000   9999     0     0     0    
2019/06/27  10:56:00  BASE  2.57544  47   3.41628  40   -7.9  57    -15.0 0     0     993.0    NA       0.0000   9999     0     0     0    
2019/06/27  10:57:00  BASE  2.39904  52   3.41628  40   -7.9  57    -14.9 0     0     993.0    NA       0.0000   9999     0     0     0    
2019/06/27  10:58:00  BASE  2.47548  58   3.41628  40   -7.9  57    -14.9 0     0     993.0    NA       0.0000   9999     0     0     0    
2019/06/27  10:59:00  BASE  2.44608  59   3.41628  40   -7.8  57    -14.8 0     0     993.0    NA       0.0000   9999     0     0     0    
2019/06/27  11:00:00  BASE  2.40492  56   3.41628  40   -7.8  57    -14.8 0     0     993.0    NA       0.0000   9999     0     0     0    
2019/06/27  11:01:00  BASE  2.5578   52   3.41628  40   -7.8  57    -14.8 0     0     993.0    NA       0.0000   9999     0     0     0    
2019/06/27  11:02:00  BASE  2.7636   52   3.41628  40   -7.8  57    -14.8 0     0     992.9    NA       0.0000   9999     0     0     0    
2019/06/27  11:03:00  BASE  2.6754   52   3.41628  40   -7.7  57    -14.8 0     0     993.0    NA       0.0000   9999     0     0     0    
2019/06/27  11:04:00  BASE  2.52252  51   3.41628  40   -7.8  57    -14.8 0     0     992.9    NA       0.0000   9999     0     0     0    
2019/06/27  11:05:00  BASE  2.5578   52   3.26928  45   -7.8  57    -14.7 0     0     992.9    NA       0.0000   9999     0     0     0    
2019/06/27  11:06:00  BASE  2.56368  50   3.26928  45   -7.8  57    -14.8 0     0     992.9    NA       0.0000   9999     0     0     0    
2019/06/27  11:07:00  BASE  2.52252  52   3.26928  45   -7.8  58    -14.7 0     0     992.9    NA       0.0000   9999     0     0     0    
2019/06/27  11:08:00  BASE  2.42844  52   3.26928  45   -7.8  58    -14.7 0     0     992.9    NA       0.0000   9999     0     0     0    
2019/06/27  11:09:00  BASE  2.26968  49   3.26928  45   -7.8  58    -14.7 0     0     992.9    NA       0.0000   9999     0     0     0    
2019/06/27  11:10:00  BASE  2.41668  45   3.26928  36   -7.8  58    -14.7 0     0     992.9    NA       0.0000   9999     0     0     0    
2019/06/27  11:11:00  BASE  2.57544  46   3.26928  36   -7.8  58    -14.7 0     0     992.9    NA       0.0000   9999     0     0     0    
2019/06/27  11:12:00  BASE  2.48724  45   3.26928  36   -7.8  58    -14.7 0     0     992.9    NA       0.0000   9999     0     0     0    
2019/06/27  11:13:00  BASE  2.74596  42   3.26928  36   -7.9  58    -14.7 0     0     992.9    NA       0.0000   9999     0     0     0    
2019/06/27  11:14:01  BASE  2.75772  47   3.26928  36   -7.9  59    -14.6 0     0     992.9    NA       0.0000   9999     0     0     0    
2019/06/27  11:15:01  BASE  2.44608  48   3.26928  36   -8.0  59    -14.6 0     0     993.0    NA       0.0000   9999     0     0     0    
2019/06/27  11:16:00  BASE  2.4696   46   3.26928  36   -8.0  60    -14.5 0     0     993.0    NA       0.0000   9999     0     0     0    
2019/06/27  11:17:01  BASE  2.63424  47   3.26928  45   -8.1  60    -14.5 0     0     993.0    NA       0.0000   9999     0     0     0    
2019/06/27  11:18:01  BASE  2.68128  48   3.26928  45   -8.1  60    -14.5 0     0     993.0    NA       0.0000   9999     0     0     0    
2019/06/27  11:19:00  BASE  2.62836  46   3.26928  45   -8.1  60    -14.5 0     0     992.9    NA       0.0000   9999     0     0     0    
2019/06/27  11:20:01  BASE  2.57544  46   3.26928  45   -8.1  60    -14.5 0     0     992.9    NA       0.0000   9999     0     0     0    
2019/06/27  11:21:00  BASE  2.51664  49   3.26928  45   -8.1  60    -14.5 0     0     992.9    NA       0.0000   9999     0     0     0    
2019/06/27  11:22:00  BASE  2.40492  50   3.26928  45   -8.1  60    -14.5 0     0     992.9    NA       0.0000   9999     0     0     0    
2019/06/27  11:23:00  BASE  2.33436  52   3.26928  45   -8.1  60    -14.5 0     0     992.9    NA       0.0000   9999     0     0     0    
2019/06/27  11:24:00  BASE  2.45784  58   3.26928  45   -8.0  60    -14.4 0     0     993.0    NA       0.0000   9999     0     0     0    
2019/06/27  11:25:01  BASE  2.5578   61   3.26928  45   -7.9  59    -14.4 0     0     993.0    NA       0.0000   9999     0     0     0    
2019/06/27  11:26:00  BASE  2.43432  63   3.26928  45   -7.8  59    -14.5 0     0     993.0    NA       0.0000   9999     0     0     0    
2019/06/27  11:27:00  BASE  2.42844  63   3.087    72   -7.8  58    -14.5 0     0     993.0    NA       0.0000   9999     0     0     0    
2019/06/27  11:28:00  BASE  2.65188  65   3.29868  70   -7.7  58    -14.6 0     0     993.0    NA       0.0000   9999     0     0     0    
2019/06/27  11:29:01  BASE  2.58132  68   3.29868  70   -7.7  57    -14.7 0     0     993.0    NA       0.0000   9999     0     0     0    
2019/06/27  11:30:01  BASE  2.44608  69   3.29868  70   -7.7  57    -14.7 0     0     993.0    NA       0.0000   9999     0     0     0    
2019/06/27  11:31:00  BASE  2.48136  71   3.29868  70   -7.7  57    -14.8 0     0     993.0    NA       0.0000   9999     0     0     0    
2019/06/27  11:32:00  BASE  2.13444  69   3.29868  70   -7.7  57    -14.9 0     0     993.0    NA       0.0000   9999     0     0     0    
2019/06/27  11:33:00  BASE  1.911    72   3.29868  70   -7.8  57    -14.9 0     0     993.0    NA       0.0000   9999     0     0     0    
2019/06/27  11:34:00  BASE  1.98156  75   3.29868  70   -7.8  57    -14.9 0     0     993.0    NA       0.0000   9999     0     0     0    
2019/06/27  11:35:00  BASE  2.16972  74   3.29868  70   -7.8  57    -14.9 0     0     993.0    NA       0.0000   9999     0     0     0    
2019/06/27  11:36:00  BASE  2.60484  71   3.29868  70   -7.8  57    -14.9 0     0     993.0    NA       0.0000   9999     0     0     0    
2019/06/27  11:37:00  BASE  2.69304  65   3.29868  70   -7.9  57    -14.9 0     0     993.0    NA       0.0000   9999     0     0     0    
2019/06/27  11:38:00  BASE  2.48724  68   3.26928  64   -7.9  57    -14.9 0     0     993.0    NA       0.0000   9999     0     0     0    
2019/06/27  11:39:00  BASE  2.44608  74   3.26928  64   -7.9  57    -14.9 0     0     993.0    NA       0.0000   9999     0     0     0    
2019/06/27  11:40:00  BASE  2.36964  71   3.26928  64   -7.9  58    -14.9 0     0     993.0    NA       0.0000   9999     0     0     0    
2019/06/27  11:41:00  BASE  2.29908  69   3.26928  64   -8.0  58    -14.9 0     0     993.0    NA       0.0000   9999     0     0     0    
2019/06/27  11:42:00  BASE  2.5284   72   3.26928  64   -8.0  58    -14.8 0     0     993.1    NA       0.0000   9999     0     0     0    
2019/06/27  11:43:00  BASE  2.49312  72   3.26928  64   -8.0  58    -14.8 0     0     993.0    NA       0.0000   9999     0     0     0    
2019/06/27  11:44:00  BASE  2.47548  77   3.26928  64   -8.0  59    -14.7 0     0     992.9    NA       0.0000   9999     0     0     0    
2019/06/27  11:45:01  BASE  2.53428  81   3.26928  64   -8.1  59    -14.7 0     0     992.5    NA       0.0000   9999     0     0     0    
2019/06/27  11:46:00  BASE  2.42256  82   3.0576   58   -8.1  59    -14.7 0     0     993.0    NA       0.0000   9999     0     0     0    
2019/06/27  11:47:00  BASE  2.50488  75   3.0576   58   -8.1  59    -14.7 0     0     993.0    NA       0.0000   9999     0     0     0    
2019/06/27  11:48:00  BASE  2.54604  73   3.02232  67   -8.1  59    -14.7 0     0     993.0    NA       0.0000   9999     0     0     0    
2019/06/27  11:49:00  BASE  2.352    75   3.02232  67   -8.2  59    -14.7 0     0     993.0    NA       0.0000   9999     0     0     0    
2019/06/27  11:50:00  BASE  2.28144  77   3.02232  67   -8.2  60    -14.7 0     0     993.0    NA       0.0000   9999     0     0     0    
2019/06/27  11:51:00  BASE  2.78124  76   3.69264  61   -8.2  60    -14.6 0     0     993.0    NA       0.0000   9999     0     0     0    
2019/06/27  11:52:00  BASE  2.89884  72   3.69264  61   -8.2  60    -14.5 0     0     993.0    NA       0.0000   9999     0     0     0    
2019/06/27  11:53:00  BASE  2.74008  71   3.69264  61   -8.3  61    -14.5 0     0     993.0    NA       0.0000   9999     0     0     0    
2019/06/27  11:54:00  BASE  3.00468  70   3.69264  61   -8.4  61    -14.5 0     0     992.8    NA       0.0000   9999     0     0     0    
2019/06/27  11:55:00  BASE  3.15168  65   4.02192  47   -8.4  62    -14.5 0     0     993.2    NA       0.0000   9999     0     0     0    
2019/06/27  11:56:00  BASE  3.46332  56   4.1454   51   -8.5  62    -14.5 0     0     993.2    NA       0.0000   9999     3610  0     0    
2019/06/27  11:57:00  BASE  4.02192  50   4.53936  47   -8.6  63    -14.4 0     0     993.2    NA       0.0000   9999     3540  0     0    
2019/06/27  11:58:00  BASE  3.89844  47   4.53936  47   -8.6  63    -14.4 0     0     992.8    NA       0.0000   9999     0     0     0    
2019/06/27  11:59:00  BASE  3.42804  45   4.53936  47   -8.6  64    -14.2 0     0     993.2    NA       0.0000   9999     0     0     0    
2019/06/27  12:00:00  BASE  3.50448  44   4.53936  47   -8.6  65    -14.1 0     0     993.1    NA       0.0000   9999     0     0     0    
2019/06/27  12:01:00  BASE  3.83376  41   4.53936  47   -8.6  66    -13.9 0     0     993.0    NA       0.0000   9999     0     0     0    
2019/06/27  12:02:00  BASE  3.94548  37   4.53936  47   -8.5  66    -13.7 0     0     993.0    NA       0.0000   9999     0     0     0    
2019/06/27  12:03:00  BASE  3.90432  36   4.53936  47   -8.4  67    -13.5 0     0     993.0    NA       0.0000   9999     0     0     0    
2019/06/27  12:04:00  BASE  3.62796  33   4.53936  47   -8.3  67    -13.3 0     0     993.0    NA       0.0000   9999     0     0     0    
2019/06/27  12:05:00  BASE  3.52212  33   4.53936  47   -8.2  68    -13.1 0     0     993.0    NA       0.0000   9999     0     0     0    
2019/06/27  12:06:00  BASE  4.07484  37   4.78044  33   -8.1  68    -13.0 0     0     993.0    NA       0.0000   9999     0     0     0    
2019/06/27  12:07:00  BASE  4.36884  37   4.78044  33   -8.1  68    -12.9 0     0     993.0    NA       0.0000   9999     0     0     0    
2019/06/27  12:08:00  BASE  4.34532  38   4.78044  33   -8.0  68    -12.9 0     0     993.0    NA       0.0000   9999     0     0     0    
2019/06/27  12:09:00  BASE  4.32768  37   4.93332  34   -8.0  68    -12.9 0     0     993.0    NA       0.0000   9999     0     0     0    
2019/06/27  12:10:00  BASE  4.263    32   4.93332  34   -8.0  68    -12.8 0     0     993.0    NA       0.0000   9999     3580  0     0    
2019/06/27  12:11:00  BASE  4.15716  24   4.93332  34   -8.0  68    -12.8 0     0     993.0    NA       0.0000   9999     3510  0     0    
2019/06/27  12:12:00  BASE  3.78084  23   4.93332  34   -7.9  69    -12.7 0     0     993.0    NA       0.0000   9999     0     0     0    
2019/06/27  12:13:00  BASE  3.63384  25   4.93332  34   -7.8  69    -12.6 0     0     993.0    NA       0.0000   9999     3540  0     0    
2019/06/27  12:14:00  BASE  3.72204  25   4.93332  34   -7.7  69    -12.5 0     0     993.0    NA       0.0000   9999     3580  0     0    
2019/06/27  12:15:00  BASE  3.72204  28   4.93332  34   -7.6  68    -12.5 0     0     993.0    NA       0.0000   9999     3540  0     0    
2019/06/27  12:16:00  BASE  3.73968  31   4.93332  34   -7.6  68    -12.5 0     0     993.0    NA       0.0000   9999     3510  0     0    
2019/06/27  12:17:00  BASE  3.78672  30   4.93332  34   -7.6  67    -12.6 0     0     993.0    NA       0.0000   9999     3540  0     0    
2019/06/27  12:18:00  BASE  3.97488  30   4.93332  34   -7.6  67    -12.7 0     0     992.9    NA       0.0000   9999     0     0     0    
2019/06/27  12:19:00  BASE  4.07484  32   4.72164  27   -7.6  67    -12.7 0     0     993.0    NA       0.0000   9999     0     0     0    
2019/06/27  12:20:00  BASE  4.10424  32   4.72164  27   -7.7  67    -12.7 0     0     993.0    NA       0.0000   9999     3540  0     0    
2019/06/27  12:21:00  BASE  4.09248  35   4.53936  25   -7.7  67    -12.7 0     0     993.0    NA       0.0000   9999     0     0     0    
2019/06/27  12:22:00  BASE  4.19832  35   4.56876  40   -7.7  67    -12.7 0     0     993.0    NA       0.0000   9999     3480  0     0    
2019/06/27  12:23:00  BASE  4.31004  35   4.59816  30   -7.8  68    -12.7 0     0     992.9    NA       0.0000   9999     0     0     0    
2019/06/27  12:24:00  BASE  4.44528  36   4.80984  45   -7.9  68    -12.8 0     0     992.9    NA       0.0000   9999     0     0     0    
2019/06/27  12:25:01  BASE  4.06308  33   4.80984  45   -7.9  68    -12.8 0     0     993.0    NA       0.0000   9999     0     0     0    
2019/06/27  12:26:01  BASE  3.58092  29   4.80984  45   -7.9  69    -12.7 0     0     993.0    NA       0.0000   9999     0     0     0    
2019/06/27  12:27:00  BASE  3.95136  32   4.80984  39   -7.9  69    -12.6 0     0     993.0    NA       0.0000   9999     0     0     0    
2019/06/27  12:28:00  BASE  4.22772  33   4.80984  39   -7.8  69    -12.5 0     0     993.0    NA       0.0000   9999     0     0     0    
2019/06/27  12:29:00  BASE  4.27476  35   4.80984  39   -7.8  69    -12.5 0     0     993.0    NA       0.0000   9999     0     0     0    
2019/06/27  12:30:00  BASE  4.38648  37   4.80984  39   -7.8  69    -12.5 0     0     993.0    NA       0.0000   9999     0     0     0    
2019/06/27  12:31:00  BASE  4.15716  33   4.80984  39   -7.8  69    -12.6 0     0     992.9    NA       0.0000   9999     0     0     0    
2019/06/27  12:32:00  BASE  3.68088  28   4.80984  39   -7.8  68    -12.6 0     0     992.9    NA       0.0000   9999     0     0     0    
2019/06/27  12:33:00  BASE  3.675    23   4.80984  39   -7.8  68    -12.6 0     0     992.9    NA       0.0000   9999     0     0     0    
2019/06/27  12:34:00  BASE  3.92784  18   4.80984  39   -7.8  69    -12.5 0     0     992.9    NA       0.0000   9999     0     0     0    
2019/06/27  12:35:00  BASE  3.9102   20   4.80984  39   -7.6  69    -12.4 0     0     992.9    NA       0.0000   9999     0     0     0    
2019/06/27  12:36:00  BASE  3.89256  23   4.80984  39   -7.5  69    -12.3 0     0     993.0    NA       0.0000   9999     0     0     0    
2019/06/27  12:37:00  BASE  4.01016  25   4.75104  38   -7.4  68    -12.3 0     0     993.0    NA       0.0000   9999     0     0     0    
2019/06/27  12:38:00  BASE  4.05132  27   4.75104  38   -7.3  67    -12.3 0     0     993.0    NA       0.0000   9999     0     0     0    
2019/06/27  12:39:00  BASE  4.03368  26   4.75104  38   -7.2  67    -12.4 0     0     993.0    NA       0.0000   9999     0     0     0    
2019/06/27  12:40:00  BASE  3.95724  27   4.44528  34   -7.2  66    -12.5 0     0     993.0    NA       0.0000   9999     0     0     0    
2019/06/27  12:41:00  BASE  3.86904  26   4.44528  34   -7.2  66    -12.5 0     0     993.0    NA       0.0000   9999     0     0     0    
2019/06/27  12:42:00  BASE  3.83964  25   4.44528  34   -7.2  66    -12.5 0     0     993.0    NA       0.0000   9999     0     0     0    
2019/06/27  12:43:00  BASE  3.71616  26   4.44528  34   -7.2  66    -12.4 0     0     993.0    NA       0.0000   9999     0     0     0    
2019/06/27  12:44:00  BASE  3.72204  26   4.44528  34   -7.2  66    -12.4 0     0     993.0    NA       0.0000   9999     0     0     0    
2019/06/27  12:45:01  BASE  3.80436  27   4.44528  34   -7.2  66    -12.4 0     0     993.0    NA       0.0000   9999     0     0     0    
2019/06/27  12:46:00  BASE  3.74556  26   4.44528  34   -7.2  67    -12.4 0     0     993.0    NA       0.0000   9999     0     0     0    
2019/06/27  12:47:00  BASE  3.7926   23   4.35708  26   -7.3  67    -12.4 0     0     993.0    NA       0.0000   9999     0     0     0    
2019/06/27  12:48:00  BASE  3.75144  20   4.35708  26   -7.3  67    -12.3 0     0     993.0    NA       0.0000   9999     3540  0     0    
2019/06/27  12:49:00  BASE  3.80436  19   4.29828  13   -7.3  67    -12.4 0     0     993.1    NA       0.0000   9999     0     0     0    
2019/06/27  12:50:00  BASE  3.99252  19   4.41588  20   -7.3  67    -12.4 0     0     993.1    NA       0.0000   9999     0     0     0    
2019/06/27  12:51:00  BASE  4.03956  21   4.41588  20   -7.3  67    -12.4 0     0     993.1    NA       0.0000   9999     0     0     0    
2019/06/27  12:52:00  BASE  4.12188  23   4.47468  24   -7.3  67    -12.5 0     0     993.1    NA       0.0000   9999     0     0     0    
2019/06/27  12:53:00  BASE  4.3218   24   4.83924  22   -7.3  66    -12.5 0     0     993.1    NA       0.0000   9999     0     0     0    
2019/06/27  12:54:00  BASE  4.47468  26   4.83924  22   -7.3  66    -12.6 0     0     993.2    NA       0.0000   9999     0     0     0    
2019/06/27  12:55:00  BASE  4.28652  26   4.83924  22   -7.4  66    -12.7 0     0     993.2    NA       0.0000   9999     0     0     0    
2019/06/27  12:56:00  BASE  4.05132  25   4.83924  22   -7.4  66    -12.7 0     0     993.2    NA       0.0000   9999     0     0     0    
2019/06/27  12:57:00  BASE  4.00428  24   4.83924  22   -7.4  66    -12.7 0     0     993.2    NA       0.0000   9999     0     0     0    
2019/06/27  12:58:00  BASE  3.98664  23   4.83924  22   -7.4  66    -12.7 0     0     993.2    NA       0.0000   9999     0     0     0    
2019/06/27  12:59:00  BASE  3.91608  23   4.83924  22   -7.4  65    -12.8 0     0     993.2    NA       0.0000   9999     0     0     0    
2019/06/27  13:00:00  BASE  3.86316  23   4.83924  22   -7.4  65    -12.8 0     0     993.2    NA       0.0000   9999     0     0     0    
2019/06/27  13:01:00  BASE  3.78672  24   4.83924  22   -7.4  65    -12.8 0     0     993.2    NA       0.0000   9999     0     0     0    
2019/06/27  13:02:00  BASE  3.69852  23   4.83924  22   -7.3  65    -12.8 0     0     993.2    NA       0.0000   9999     0     0     0    
2019/06/27  13:03:00  BASE  3.62796  23   4.78044  26   -7.3  65    -12.8 0     0     993.2    NA       0.0000   9999     0     0     0    
2019/06/27  13:04:00  BASE  3.62208  28   4.38648  24   -7.3  65    -12.7 0     0     993.2    NA       0.0000   9999     0     0     0    
2019/06/27  13:05:00  BASE  3.59268  33   4.29828  16   -7.3  65    -12.7 0     0     993.2    NA       0.0000   9999     0     0     0    
2019/06/27  13:06:00  BASE  3.52212  35   4.29828  16   -7.3  65    -12.7 0     0     993.2    NA       0.0000   9999     0     0     0    
2019/06/27  13:07:00  BASE  3.53388  34   4.29828  16   -7.3  65    -12.7 0     0     993.2    NA       0.0000   9999     0     0     0    
2019/06/27  13:08:00  BASE  3.71028  34   4.1454   27   -7.3  65    -12.7 0     0     993.1    NA       0.0000   9999     0     0     0    
2019/06/27  13:09:00  BASE  4.02192  35   4.59816  31   -7.3  65    -12.8 0     0     993.1    NA       0.0000   9999     0     0     0    
2019/06/27  13:10:00  BASE  4.15128  33   4.59816  31   -7.3  65    -12.8 0     0     993.1    NA       0.0000   9999     0     0     0    
2019/06/27  13:11:00  BASE  4.116    29   4.59816  31   -7.3  65    -12.7 0     0     993.1    NA       0.0000   9999     0     0     0    
2019/06/27  13:12:00  BASE  3.9984   28   4.59816  31   -7.4  66    -12.7 0     0     993.2    NA       0.0000   9999     0     0     0    
2019/06/27  13:13:00  BASE  3.94548  27   4.59816  31   -7.3  66    -12.7 0     0     993.2    NA       0.0000   9999     0     0     0    
2019/06/27  13:14:00  BASE  3.93372  29   4.59816  31   -7.3  66    -12.6 0     0     993.2    NA       0.0000   9999     0     0     0    
2019/06/27  13:15:01  BASE  4.05132  29   4.59816  31   -7.3  66    -12.6 0     0     993.2    NA       0.0000   9999     0     0     0    
2019/06/27  13:16:00  BASE  4.36296  28   4.68636  31   -7.3  66    -12.6 0     0     993.2    NA       0.0000   9999     0     0     0    
2019/06/27  13:17:00  BASE  4.557    30   4.96272  23   -7.3  66    -12.6 0     0     993.2    NA       0.0000   9999     0     0     0    
2019/06/27  13:18:00  BASE  4.56876  29   4.96272  23   -7.3  66    -12.6 0     0     993.2    NA       0.0000   9999     0     0     0    
2019/06/27  13:19:00  BASE  4.48056  27   4.96272  23   -7.3  66    -12.6 0     0     993.2    NA       0.0000   9999     0     0     0    
2019/06/27  13:20:00  BASE  4.4688   28   4.96272  23   -7.4  66    -12.6 0     0     993.2    NA       0.0000   9999     0     0     0    
2019/06/27  13:21:00  BASE  4.41588  28   4.96272  23   -7.4  66    -12.6 0     0     993.2    NA       0.0000   9999     0     0     0    
2019/06/27  13:22:00  BASE  4.1748   28   4.96272  23   -7.4  67    -12.6 0     0     993.2    NA       0.0000   9999     0     0     0    
2019/06/27  13:23:00  BASE  4.09836  29   4.96272  23   -7.5  67    -12.5 0     0     993.0    NA       0.0000   9999     0     0     0    
2019/06/27  13:24:00  BASE  4.06896  27   4.96272  23   -7.5  67    -12.5 0     0     993.2    NA       0.0000   9999     0     0     0    
2019/06/27  13:25:00  BASE  4.0572   26   4.96272  23   -7.5  67    -12.5 0     0     993.2    NA       0.0000   9999     0     0     0    
2019/06/27  13:26:00  BASE  4.15128  27   4.96272  23   -7.4  68    -12.4 0     0     993.2    NA       0.0000   9999     0     0     0    
2019/06/27  13:27:00  BASE  4.15128  28   4.93332  26   -7.4  68    -12.4 0     0     993.2    NA       0.0000   9999     0     0     0    
2019/06/27  13:28:00  BASE  4.05132  28   4.68636  23   -7.4  68    -12.3 0     0     993.2    NA       0.0000   9999     0     0     0    
2019/06/27  13:29:00  BASE  3.93372  27   4.65696  32   -7.4  68    -12.3 0     0     993.2    NA       0.0000   9999     0     0     0    
2019/06/27  13:30:00  BASE  3.94548  26   4.65696  32   -7.4  68    -12.3 0     0     993.1    NA       0.0000   9999     0     0     0    
2019/06/27  13:31:00  BASE  3.90432  24   4.53936  30   -7.4  68    -12.3 0     0     993.0    NA       0.0000   9999     0     0     0    
2019/06/27  13:32:00  BASE  3.9102   23   4.53936  30   -7.4  68    -12.3 0     0     993.0    NA       0.0000   9999     0     0     0    
2019/06/27  13:33:00  BASE  3.92196  23   4.41588  24   -7.3  68    -12.2 0     0     993.0    NA       0.0000   9999     0     0     0    
2019/06/27  13:34:00  BASE  3.91608  26   4.41588  24   -7.3  68    -12.2 0     0     993.0    NA       0.0000   9999     0     0     0    
2019/06/27  13:35:00  BASE  4.00428  31   4.41588  24   -7.3  68    -12.3 1     0     993.0    NA       0.0000   9999     0     0     0    
2019/06/27  13:36:00  BASE  4.02192  35   4.41588  24   -7.3  67    -12.3 1     0     993.0    NA       0.0000   9999     0     0     0    
2019/06/27  13:37:00  BASE  4.05132  34   4.41588  24   -7.3  67    -12.4 1     0     993.0    NA       0.0000   9999     0     0     0    
2019/06/27  13:38:00  BASE  4.06896  34   4.38648  33   -7.3  67    -12.4 1     0     992.9    NA       0.0000   9999     0     0     0    
2019/06/27  13:39:00  BASE  4.06308  31   4.41588  26   -7.4  67    -12.4 1     0     992.9    NA       0.0000   9999     0     0     0    
2019/06/27  13:40:00  BASE  4.06308  26   4.41588  26   -7.5  67    -12.5 1     0     992.9    NA       0.0000   9999     0     0     0    
2019/06/27  13:41:00  BASE  4.07484  25   4.41588  26   -7.5  68    -12.4 1     0     992.9    NA       0.0000   9999     0     0     0    
2019/06/27  13:42:00  BASE  4.06308  27   4.44528  30   -7.5  68    -12.4 1     0     992.9    NA       0.0000   9999     0     0     0    
2019/06/27  13:43:00  BASE  4.18068  30   4.50996  34   -7.5  68    -12.4 1     0     992.9    NA       0.0000   9999     0     0     0    
2019/06/27  13:44:00  BASE  4.23948  34   4.50996  34   -7.5  68    -12.4 1     0     992.9    NA       0.0000   9999     0     0     0    
2019/06/27  13:45:00  BASE  4.12188  35   4.50996  34   -7.6  68    -12.5 1     0     992.9    NA       0.0000   9999     0     0     0    
2019/06/27  13:46:00  BASE  4.1748   35   4.50996  34   -7.6  68    -12.5 1     0     992.9    NA       0.0000   9999     0     0     0    
2019/06/27  13:47:00  BASE  4.21596  35   4.50996  34   -7.7  68    -12.5 1     0     992.9    NA       0.0000   9999     0     0     0    
2019/06/27  13:48:00  BASE  4.21596  35   4.53936  30   -7.7  69    -12.5 1     0     992.9    NA       0.0000   9999     0     0     0    
2019/06/27  13:49:00  BASE  4.15716  33   4.53936  31   -7.7  69    -12.4 1     0     992.9    NA       0.0000   9000     0     0     0    
2019/06/27  13:50:00  BASE  3.91608  29   4.53936  31   -7.6  69    -12.3 1     0     992.9    NA       0.0000   9000     0     0     0    
2019/06/27  13:51:00  BASE  3.7926   28   4.53936  31   -7.6  69    -12.3 1     0     992.9    NA       0.0000   9999     0     0     0    
2019/06/27  13:52:00  BASE  3.94548  29   4.53936  31   -7.5  69    -12.2 2     0     992.9    NA       0.0000   9999     0     0     0    
2019/06/27  13:53:00  BASE  4.0278   29   4.53936  31   -7.5  69    -12.2 2     0     992.9    NA       0.0000   9999     0     0     0    
2019/06/27  13:54:00  BASE  3.92196  25   4.53936  31   -7.4  69    -12.2 2     0     992.9    NA       0.0000   9999     0     0     0    
2019/06/27  13:55:00  BASE  3.78084  23   4.53936  31   -7.4  69    -12.1 2     0     992.9    NA       0.0000   HZ       9999  0     0    
2019/06/27  13:56:00  BASE  3.7044   24   4.53936  31   -7.3  69    -12.1 2     0     992.9    NA       0.0000   HZ       9999  0     0    
2019/06/27  13:57:00  BASE  3.73968  26   4.53936  31   -7.3  68    -12.1 2     0     992.9    NA       0.0000   HZ       9999  0     0    
2019/06/27  13:58:00  BASE  3.8808   26   4.53936  31   -7.3  68    -12.1 2     0     992.9    NA       0.0000   HZ       9999  0     0    
2019/06/27  13:59:00  BASE  3.99252  25   4.32768  35   -7.2  68    -12.1 2     0     992.9    NA       0.0000   9999     0     0     0    
2019/06/27  14:00:00  BASE  4.00428  25   4.32768  35   -7.2  68    -12.2 2     0     992.9    NA       0.0000   9999     0     0     0    
2019/06/27  14:01:00  BASE  4.03956  23   4.78044  17   -7.3  67    -12.3 2     0     992.9    NA       0.0000   9999     0     0     0    
2019/06/27  14:02:00  BASE  3.9396   23   4.78044  17   -7.2  67    -12.3 2     0     992.9    NA       0.0000   9999     0     0     0    
2019/06/27  14:03:00  BASE  3.69852  25   4.78044  17   -7.2  67    -12.3 2     0     992.9    NA       0.0000   9999     0     0     0    
2019/06/27  14:04:00  BASE  3.62208  27   4.78044  17   -7.2  67    -12.3 2     0     992.9    NA       0.0000   9999     0     0     0    
2019/06/27  14:05:00  BASE  3.78672  26   4.78044  17   -7.2  67    -12.3 3     0     992.9    NA       0.0000   9999     0     0     0    
2019/06/27  14:06:00  BASE  3.96312  23   4.78044  17   -7.2  67    -12.2 3     0     992.9    NA       0.0000   9999     0     0     0    
2019/06/27  14:07:00  BASE  3.86904  21   4.78044  17   -7.2  67    -12.2 3     0     992.9    NA       0.0000   9999     0     0     0    
2019/06/27  14:08:00  BASE  3.72204  22   4.78044  17   -7.2  67    -12.2 3     0     992.9    NA       0.0000   9999     0     0     0    
2019/06/27  14:09:00  BASE  3.65736  25   4.78044  17   -7.2  68    -12.2 3     0     992.9    NA       0.0000   9999     0     0     0    
2019/06/27  14:10:00  BASE  3.68676  25   4.78044  17   -7.2  68    -12.2 3     0     992.9    NA       0.0000   9999     0     0     0    
2019/06/27  14:11:00  BASE  3.72204  26   4.32768  18   -7.2  67    -12.2 3     0     992.9    NA       0.0000   9999     0     0     0    
2019/06/27  14:12:00  BASE  3.85728  26   4.41588  23   -7.2  68    -12.2 3     0     992.9    NA       0.0000   9999     0     0     0    
2019/06/27  14:13:00  BASE  3.8514   26   4.41588  23   -7.2  68    -12.2 3     0     992.9    NA       0.0000   9999     0     0     0    
2019/06/27  14:14:00  BASE  3.87492  24   4.41588  24   -7.2  67    -12.2 3     0     992.9    NA       0.0000   9999     0     0     0    
2019/06/27  14:15:00  BASE  3.78084  24   4.41588  24   -7.2  67    -12.2 3     0     992.9    NA       0.0000   9999     0     0     0    
2019/06/27  14:16:00  BASE  3.51624  24   4.41588  24   -7.2  67    -12.2 3     0     992.9    NA       0.0000   9999     0     0     0    
2019/06/27  14:17:00  BASE  3.84552  18   4.68636  8    -7.2  67    -12.2 4     0     992.9    NA       0.0000   9999     0     0     0    
2019/06/27  14:18:00  BASE  3.88668  16   4.68636  8    -7.2  67    -12.3 4     0     992.9    NA       0.0000   9999     0     0     0    
2019/06/27  14:19:00  BASE  3.7926   20   4.68636  8    -7.2  67    -12.3 4     0     992.9    NA       0.0000   9999     0     0     0    
2019/06/27  14:20:00  BASE  3.90432  24   4.68636  8    -7.2  67    -12.3 4     0     992.9    NA       0.0000   9999     0     0     0    
2019/06/27  14:21:00  BASE  3.96312  24   4.68636  8    -7.2  67    -12.3 4     0     992.9    NA       0.0000   9999     0     0     0    
2019/06/27  14:22:00  BASE  3.94548  23   4.68636  8    -7.2  67    -12.4 4     0     992.9    NA       0.0000   9999     0     0     0    
2019/06/27  14:23:00  BASE  3.63972  24   4.68636  8    -7.2  66    -12.4 4     0     993.0    NA       0.0000   9999     0     0     0    
2019/06/27  14:24:00  BASE  3.62208  27   4.68636  8    -7.2  66    -12.5 4     0     993.0    NA       0.0000   9999     0     0     0    
2019/06/27  14:25:00  BASE  3.75732  29   4.68636  8    -7.2  66    -12.5 4     0     993.0    NA       0.0000   9999     0     0     0    
2019/06/27  14:26:00  BASE  3.65148  27   4.68636  8    -7.2  66    -12.5 4     0     993.0    NA       0.0000   9999     0     0     0    
2019/06/27  14:27:00  BASE  3.50448  25   4.41588  24   -7.2  66    -12.5 4     0     993.0    NA       0.0000   9999     0     0     0    
2019/06/27  14:28:00  BASE  3.12816  25   4.41588  24   -7.3  66    -12.5 5     0     993.0    NA       0.0000   9999     0     0     0    
2019/06/27  14:29:00  BASE  3.09288  23   4.41588  24   -7.3  67    -12.5 5     0     993.0    NA       0.0000   9999     0     0     0    
2019/06/27  14:30:00  BASE  3.33396  24   4.41588  24   -7.3  67    -12.4 5     0     993.0    NA       0.0000   9999     0     0     0    
2019/06/27  14:31:00  BASE  3.31632  25   4.1454   28   -7.3  67    -12.4 5     0     993.0    NA       0.0000   9999     0     0     0    
2019/06/27  14:32:00  BASE  3.33984  23   4.1454   28   -7.3  67    -12.4 5     0     993.0    NA       0.0000   9999     0     0     0    
2019/06/27  14:33:00  BASE  3.33984  22   4.1454   28   -7.3  67    -12.3 5     0     993.0    NA       0.0000   9999     0     0     0    
2019/06/27  14:34:00  BASE  3.41628  22   4.1454   28   -7.3  67    -12.3 5     0     993.0    NA       0.0000   9000     0     0     0    
2019/06/27  14:35:01  BASE  3.53388  24   3.93372  25   -7.3  68    -12.2 5     0     993.1    NA       0.0000   9999     0     0     0    
2019/06/27  14:36:00  BASE  3.63384  26   3.86904  24   -7.3  68    -12.2 5     0     993.1    NA       0.0000   9999     0     0     0    
2019/06/27  14:37:00  BASE  3.60444  27   3.86904  24   -7.3  68    -12.2 6     0     993.2    NA       0.0000   9999     0     0     0    
2019/06/27  14:38:00  BASE  3.54564  27   3.93372  29   -7.3  68    -12.2 6     0     993.2    NA       0.0000   9000     0     0     0    
2019/06/27  14:39:00  BASE  3.69264  27   4.02192  26   -7.3  68    -12.2 6     0     993.2    NA       0.0000   9000     0     0     0    
2019/06/27  14:40:00  BASE  3.72204  29   4.02192  36   -7.3  68    -12.2 6     0     993.2    NA       0.0000   9999     0     0     0    
2019/06/27  14:41:00  BASE  3.62796  30   4.02192  36   -7.3  68    -12.2 6     0     993.2    NA       0.0000   9999     0     0     0    
2019/06/27  14:42:00  BASE  3.73968  31   4.32768  33   -7.3  68    -12.2 7     0     993.1    NA       0.0000   HZ       9000  0     0    
2019/06/27  14:43:00  BASE  4.13952  35   4.65696  33   -7.4  68    -12.3 7     0     993.1    NA       0.0000   HZ       9999  0     0    
2019/06/27  14:44:00  BASE  4.2924   34   4.65696  33   -7.5  68    -12.3 7     0     993.1    NA       0.0000   HZ       9999  0     0    
2019/06/27  14:45:00  BASE  4.2042   33   4.65696  33   -7.6  69    -12.3 7     0     993.0    NA       0.0000   HZ       9000  0     0    
2019/06/27  14:46:00  BASE  4.19244  30   4.65696  33   -7.7  69    -12.3 7     0     993.0    NA       0.0000   HZ       9999  0     0    
2019/06/27  14:47:00  BASE  4.07484  28   4.65696  33   -7.7  70    -12.3 7     0     993.0    NA       0.0000   HZ       9999  0     0    
2019/06/27  14:48:00  BASE  3.80436  26   4.65696  33   -7.7  70    -12.2 7     0     993.0    NA       0.0000   HZ       9999  0     0    
2019/06/27  14:49:00  BASE  3.66912  24   4.65696  33   -7.7  71    -12.1 7     0     993.0    NA       0.0000   HZ       9999  0     0    
2019/06/27  14:50:00  BASE  3.71028  24   4.65696  33   -7.6  71    -12.0 7     0     993.0    NA       0.0000   HZ       9999  0     0    
2019/06/27  14:51:00  BASE  3.7926   24   4.65696  33   -7.5  71    -11.9 7     0     993.0    NA       0.0000   HZ       9999  0     0    
2019/06/27  14:52:00  BASE  3.96312  24   4.65696  33   -7.5  71    -11.8 7     0     992.9    NA       0.0000   HZ       9000  0     0    
2019/06/27  14:53:00  BASE  3.89844  23   4.56876  26   -7.4  71    -11.8 7     0     992.9    NA       0.0000   HZ       9999  0     0    
2019/06/27  14:54:00  BASE  3.86904  22   4.56876  26   -7.4  71    -11.8 7     0     992.9    NA       0.0000   HZ       9999  0     0    
2019/06/27  14:55:00  BASE  4.0278   23   4.56876  26   -7.4  71    -11.8 8     0     992.9    NA       0.0000   9999     0     0     0    
2019/06/27  14:56:00  BASE  4.0278   22   4.41588  26   -7.4  71    -11.8 8     0     993.0    NA       0.0000   9999     0     0     0    
2019/06/27  14:57:00  BASE  3.90432  23   4.41588  26   -7.4  71    -11.7 8     0     993.0    NA       0.0000   9999     0     0     0    
2019/06/27  14:58:00  BASE  3.85728  25   4.41588  26   -7.4  71    -11.8 8     0     993.0    NA       0.0000   9999     0     0     0    
2019/06/27  14:59:00  BASE  3.88668  26   4.41588  26   -7.3  71    -11.8 8     0     993.1    NA       0.0000   9999     0     0     0    
2019/06/27  15:00:00  BASE  3.83964  27   4.41588  26   -7.3  70    -11.8 8     0     993.2    NA       0.0000   9999     0     0     0    
2019/06/27  15:01:00  BASE  3.86316  26   4.41588  26   -7.3  70    -11.9 8     0     993.2    NA       0.0000   9999     0     0     0    
2019/06/27  15:02:00  BASE  3.77496  26   4.35708  28   -7.3  70    -11.9 8     0     993.2    NA       0.0000   9999     3510  0     0    
2019/06/27  15:03:00  BASE  3.675    27   4.35708  28   -7.3  69    -12.0 8     0     993.2    NA       0.0000   9999     3510  0     0    
2019/06/27  15:04:00  BASE  3.66912  27   4.263    22   -7.4  69    -12.0 8     0     993.2    NA       0.0000   9999     0     0     0    
2019/06/27  15:05:00  BASE  3.77496  29   4.2042   25   -7.4  69    -12.0 8     0     993.2    NA       0.0000   9999     3480  0     0    
2019/06/27  15:06:00  BASE  3.79848  30   4.2042   25   -7.4  69    -12.0 8     0     993.2    NA       0.0000   9000     3540  0     0    
2019/06/27  15:07:00  BASE  3.79848  29   4.263    32   -7.4  70    -12.0 9     0     993.1    NA       0.0000   9999     0     0     0    
2019/06/27  15:08:00  BASE  3.86316  28   4.263    32   -7.5  70    -12.0 9     0     993.1    NA       0.0000   9999     0     0     0    
2019/06/27  15:09:00  BASE  3.72792  25   4.263    32   -7.5  70    -12.0 9     0     993.0    NA       0.0000   9999     0     0     0    
2019/06/27  15:10:00  BASE  3.62208  24   4.263    32   -7.5  70    -12.0 9     0     993.0    NA       0.0000   9000     0     0     0    
2019/06/27  15:11:00  BASE  3.72792  22   4.263    32   -7.5  71    -11.9 9     0     993.0    NA       0.0000   9999     0     0     0    
2019/06/27  15:12:00  BASE  3.92196  19   4.263    17   -7.5  71    -11.9 9     0     993.0    NA       0.0000   9999     0     0     0    
2019/06/27  15:13:00  BASE  3.95136  19   4.47468  13   -7.5  71    -11.8 9     0     993.0    NA       0.0000   HZ       9999  0     0    
2019/06/27  15:14:00  BASE  3.97488  21   4.47468  13   -7.4  71    -11.8 10    0     992.9    NA       0.0000   HZ       9999  0     0    
2019/06/27  15:15:00  BASE  4.08072  22   4.47468  13   -7.4  71    -11.7 10    0     992.9    NA       0.0000   HZ       9999  0     0    
2019/06/27  15:16:00  BASE  4.10424  22   4.47468  13   -7.4  71    -11.7 10    0     992.9    NA       0.0000   9999     0     0     0    
2019/06/27  15:17:00  BASE  4.116    23   4.47468  13   -7.3  70    -11.8 10    0     992.9    NA       0.0000   9999     0     0     0    
2019/06/27  15:18:00  BASE  4.1748   23   4.47468  27   -7.3  70    -11.9 10    0     992.9    NA       0.0000   9999     0     0     0    
2019/06/27  15:19:00  BASE  4.19832  24   4.53936  25   -7.3  70    -11.9 10    0     992.9    NA       0.0000   HZ       9000  0     0    
2019/06/27  15:20:00  BASE  4.0572   24   4.53936  25   -7.3  69    -12.0 10    0     992.9    NA       0.0000   HZ       9000  0     0    
2019/06/27  15:21:00  BASE  3.93372  25   4.53936  25   -7.3  69    -12.1 11    0     992.9    NA       0.0000   HZ       9999  0     0    
2019/06/27  15:22:00  BASE  3.88668  24   4.53936  25   -7.3  69    -12.1 11    0     993.0    NA       0.0000   9999     0     0     0    
2019/06/27  15:23:00  BASE  3.8514   23   4.53936  25   -7.3  69    -12.1 11    0     993.0    NA       0.0000   9999     0     0     0    
2019/06/27  15:24:00  BASE  3.71028  24   4.53936  25   -7.3  69    -12.0 11    0     993.0    NA       0.0000   9999     0     0     0    
2019/06/27  15:25:00  BASE  3.58092  26   4.53936  25   -7.3  69    -12.1 11    0     993.0    NA       0.0000   9999     0     0     0    
2019/06/27  15:26:00  BASE  3.50448  25   4.53936  25   -7.3  69    -12.1 11    0     993.1    NA       0.0000   9999     0     0     0    
2019/06/27  15:27:00  BASE  3.43392  27   4.53936  25   -7.3  68    -12.1 11    0     993.1    NA       0.0000   9999     0     0     0    
2019/06/27  15:28:00  BASE  3.4986   28   4.53936  25   -7.3  68    -12.2 11    0     993.1    NA       0.0000   9999     0     0     0    
2019/06/27  15:29:00  BASE  3.53388  29   4.29828  23   -7.3  68    -12.2 11    0     993.1    NA       0.0000   9999     0     0     0    
2019/06/27  15:30:00  BASE  3.69852  30   4.29828  23   -7.4  68    -12.3 11    0     993.1    NA       0.0000   9999     0     0     0    
2019/06/27  15:31:00  BASE  3.80436  27   4.2042   25   -7.4  68    -12.2 12    0     993.1    NA       0.0000   9999     0     0     0    
2019/06/27  15:32:00  BASE  3.84552  30   4.2042   33   -7.4  68    -12.2 12    0     993.2    NA       0.0000   9999     0     0     0    
2019/06/27  15:33:00  BASE  3.79848  31   4.2042   33   -7.5  69    -12.2 12    0     993.2    NA       0.0000   9999     0     0     0    
2019/06/27  15:34:00  BASE  3.71028  29   4.2042   33   -7.5  69    -12.2 12    0     993.2    NA       0.0000   9999     0     0     0    
2019/06/27  15:35:00  BASE  3.63972  30   4.2042   33   -7.5  70    -12.1 12    0     993.2    NA       0.0000   9999     0     0     0    
2019/06/27  15:36:00  BASE  3.53388  28   4.2042   33   -7.5  70    -12.0 12    0     993.2    NA       0.0000   9999     0     0     0    
2019/06/27  15:37:00  BASE  3.57504  26   4.2042   33   -7.4  71    -11.9 12    0     993.2    NA       0.0000   9999     0     0     0    
2019/06/27  15:38:00  BASE  3.59268  27   4.2042   33   -7.4  71    -11.8 12    0     993.2    NA       0.0000   9999     0     0     0    
2019/06/27  15:39:00  BASE  3.62208  28   4.2042   33   -7.4  71    -11.8 12    0     993.1    NA       0.0000   9999     0     0     0    
2019/06/27  15:40:00  BASE  3.78084  30   4.29828  28   -7.4  71    -11.8 12    0     993.0    NA       0.0000   9999     0     0     0    
2019/06/27  15:41:00  BASE  4.01604  32   4.29828  32   -7.5  71    -11.8 12    0     993.0    NA       0.0000   9999     0     0     0    
2019/06/27  15:42:00  BASE  4.07484  34   4.35708  41   -7.6  71    -11.9 12    0     993.0    NA       0.0000   9999     0     0     0    
2019/06/27  15:43:00  BASE  4.01016  33   4.47468  32   -7.7  71    -12.0 12    0     993.0    NA       0.0000   9999     0     0     0    
2019/06/27  15:44:00  BASE  3.96312  30   4.47468  32   -7.7  71    -12.0 12    0     993.0    NA       0.0000   9999     0     0     0    
2019/06/27  15:45:00  BASE  3.8514   28   4.47468  32   -7.8  72    -12.0 12    0     993.0    NA       0.0000   9000     0     0     0    
2019/06/27  15:46:00  BASE  3.69852  28   4.47468  32   -7.8  72    -12.0 12    0     993.0    NA       0.0000   9000     0     0     0    
2019/06/27  15:47:00  BASE  3.50448  25   4.47468  32   -7.7  72    -11.9 12    0     992.9    NA       0.0000   HZ       9999  0     0    
2019/06/27  15:48:00  BASE  3.36336  25   4.47468  32   -7.7  72    -11.8 12    0     992.9    NA       0.0000   HZ       9999  0     0    
2019/06/27  15:49:00  BASE  3.22224  29   4.47468  32   -7.6  73    -11.7 13    0     992.9    NA       0.0000   HZ       9999  0     0    
2019/06/27  15:50:00  BASE  3.18696  31   4.47468  32   -7.5  73    -11.6 13    0     993.0    NA       0.0000   HZ       9999  0     0    
2019/06/27  15:51:00  BASE  3.234    32   4.47468  32   -7.5  73    -11.5 13    0     993.0    NA       0.0000   HZ       9999  0     0    
2019/06/27  15:52:00  BASE  3.33984  30   4.47468  32   -7.4  72    -11.5 13    0     992.9    NA       0.0000   HZ       9999  0     0    
2019/06/27  15:53:00  BASE  3.38688  30   4.05132  19   -7.4  72    -11.5 13    0     992.9    NA       0.0000   HZ       9999  3410  0    
2019/06/27  15:54:00  BASE  3.39276  32   3.96312  36   -7.5  72    -11.6 14    0     992.9    NA       0.0000   HZ       9999  3280  0    
2019/06/27  15:55:00  BASE  3.39276  30   3.96312  36   -7.5  72    -11.7 14    0     993.0    NA       0.0000   HZ       9999  3220  0    
2019/06/27  15:56:00  BASE  3.29868  30   3.96312  36   -7.6  72    -11.8 15    0     993.0    NA       0.0000   9999     3180  0     0    
2019/06/27  15:57:00  BASE  3.45744  32   3.96312  36   -7.6  72    -11.8 15    0     993.0    NA       0.0000   9999     3220  0     0    
2019/06/27  15:58:00  BASE  3.6162   39   3.96312  36   -7.7  72    -11.8 15    0     993.0    NA       0.0000   9999     3220  0     0    
2019/06/27  15:59:00  BASE  3.68676  42   4.1748   37   -7.8  72    -11.9 15    0     993.0    NA       0.0000   9999     3250  0     0    
2019/06/27  16:00:00  BASE  3.51624  40   4.1748   37   -7.8  73    -11.9 14    0     993.0    NA       0.0000   9999     0     0     0    
2019/06/27  16:01:00  BASE  3.34572  42   4.1748   37   -7.9  73    -11.9 14    0     993.0    NA       0.0000   9999     3380  0     0    
2019/06/27  16:02:00  BASE  3.53976  44   4.1748   37   -7.9  73    -11.9 14    0     993.0    NA       0.0000   9999     0     0     0    
2019/06/27  16:03:00  BASE  3.69852  46   4.1748   51   -8.0  73    -12.0 14    0     992.6    NA       0.0000   9999     3220  0     0    
2019/06/27  16:04:00  BASE  3.7044   49   4.1748   51   -8.0  73    -12.0 14    0     993.0    NA       0.0000   9999     3250  0     0    
2019/06/27  16:05:00  BASE  3.65736  49   4.1748   51   -8.0  73    -12.0 14    0     993.0    NA       0.0000   9999     3250  0     0    
2019/06/27  16:06:00  BASE  3.75732  48   4.1748   51   -8.1  73    -12.1 14    0     993.0    NA       0.0000   9999     3250  0     0    
2019/06/27  16:07:00  BASE  3.7926   51   4.1748   51   -8.1  73    -12.1 14    0     993.0    NA       0.0000   9999     3380  0     0    
2019/06/27  16:08:00  BASE  3.83376  51   4.35708  45   -8.2  73    -12.2 13    0     993.0    NA       0.0000   9999     0     0     0    
2019/06/27  16:09:00  BASE  3.72204  50   4.35708  45   -8.2  73    -12.2 13    0     993.0    NA       0.0000   9000     0     0     0    
2019/06/27  16:10:00  BASE  3.2046   58   4.35708  45   -8.2  73    -12.2 13    0     992.9    NA       0.0000   9000     0     0     0    
2019/06/27  16:11:00  BASE  3.03408  60   4.35708  45   -8.2  73    -12.2 13    0     992.9    NA       0.0000   9000     0     0     0    
2019/06/27  16:12:00  BASE  3.31044  53   4.35708  45   -8.2  73    -12.2 13    0     992.9    NA       0.0000   HZ       9000  0     0    
2019/06/27  16:13:00  BASE  3.234    56   4.35708  45   -8.2  73    -12.2 13    0     992.9    NA       0.0000   HZ       9000  0     0    
2019/06/27  16:14:00  BASE  3.1752   58   4.35708  45   -8.2  73    -12.2 13    0     993.0    NA       0.0000   HZ       9000  0     0    
2019/06/27  16:15:00  BASE  3.13404  58   4.35708  45   -8.1  73    -12.2 13    0     992.9    NA       0.0000   HZ       9000  0     0    
2019/06/27  16:16:00  BASE  3.03996  61   4.35708  45   -8.1  72    -12.2 12    0     993.0    NA       0.0000   HZ       9999  0     0    
2019/06/27  16:17:00  BASE  3.15168  57   4.35708  45   -8.0  72    -12.2 12    0     993.0    NA       0.0000   HZ       9999  0     0    
2019/06/27  16:18:00  BASE  3.01056  58   3.86904  59   -8.0  72    -12.2 12    0     993.0    NA       0.0000   HZ       9999  0     0    
2019/06/27  16:19:00  BASE  3.09288  60   3.86904  59   -8.0  72    -12.2 12    0     993.0    NA       0.0000   HZ       9999  0     0    
2019/06/27  16:20:00  BASE  3.16344  64   3.86904  59   -8.0  72    -12.2 13    0     993.0    NA       0.0000   HZ       9999  0     0    
2019/06/27  16:21:00  BASE  3.087    67   3.86904  59   -8.0  72    -12.2 13    0     993.0    NA       0.0000   HZ       9999  0     0    
2019/06/27  16:22:00  BASE  3.09876  68   3.86904  59   -8.0  72    -12.2 13    0     993.0    NA       0.0000   9999     0     0     0    
2019/06/27  16:23:00  BASE  3.00468  73   3.86904  59   -7.9  72    -12.2 13    0     992.7    NA       0.0000   9999     0     0     0    
2019/06/27  16:24:00  BASE  2.9694   75   3.86904  59   -7.8  72    -12.1 13    0     993.0    NA       0.0000   9999     0     0     0    
2019/06/27  16:25:00  BASE  2.9106   70   3.86904  59   -7.8  71    -12.1 13    0     993.0    NA       0.0000   9999     0     0     0    
2019/06/27  16:26:00  BASE  2.66952  67   3.69264  52   -7.7  71    -12.1 13    0     993.0    NA       0.0000   9999     0     0     0    
2019/06/27  16:27:00  BASE  2.40492  64   3.69264  52   -7.6  70    -12.1 13    0     993.0    NA       0.0000   9999     0     0     0    
2019/06/27  16:28:00  BASE  2.47548  61   3.44568  62   -7.6  70    -12.2 13    0     992.9    NA       0.0000   9999     0     0     0    
2019/06/27  16:29:00  BASE  2.68716  64   3.41628  68   -7.6  69    -12.2 13    0     992.9    NA       0.0000   9999     0     0     0    
2019/06/27  16:30:00  BASE  2.78124  61   3.41628  68   -7.6  69    -12.3 13    0     992.9    NA       0.0000   9999     0     0     0    
2019/06/27  16:31:00  BASE  2.92824  55   3.29868  51   -7.6  69    -12.3 13    0     992.9    NA       0.0000   9999     0     0     0    
2019/06/27  16:32:00  BASE  2.79888  53   3.29868  51   -7.6  68    -12.4 13    0     992.9    NA       0.0000   9999     0     0     0    
2019/06/27  16:33:00  BASE  2.81652  55   3.29868  65   -7.6  68    -12.4 13    0     992.9    NA       0.0000   9999     0     0     0    
2019/06/27  16:34:00  BASE  2.99292  54   3.32808  45   -7.6  68    -12.4 13    0     992.9    NA       0.0000   9999     0     0     0    
2019/06/27  16:35:00  BASE  3.02232  48   3.38688  47   -7.6  68    -12.5 13    0     992.9    NA       0.0000   9999     0     0     0    
2019/06/27  16:36:00  BASE  3.05172  47   3.38688  47   -7.7  68    -12.6 13    0     992.9    NA       0.0000   9999     0     0     0    
2019/06/27  16:37:00  BASE  2.99292  48   3.38688  47   -7.7  68    -12.6 13    0     992.9    NA       0.0000   9999     0     0     0    
2019/06/27  16:38:00  BASE  2.94     48   3.38688  47   -7.8  68    -12.6 13    0     992.9    NA       0.0000   9999     0     0     0    
2019/06/27  16:39:00  BASE  2.74008  49   3.38688  47   -7.8  69    -12.6 12    0     992.9    NA       0.0000   9999     0     0     0    
2019/06/27  16:40:00  BASE  2.6754   50   3.38688  47   -7.8  69    -12.5 13    0     992.9    NA       0.0000   9999     0     0     0    
2019/06/27  16:41:00  BASE  2.69892  47   3.38688  47   -7.7  69    -12.4 13    0     992.9    NA       0.0000   9999     0     0     0    
2019/06/27  16:42:00  BASE  2.79888  44   3.38688  47   -7.7  69    -12.4 13    0     992.9    NA       0.0000   9999     0     0     0    
2019/06/27  16:43:00  BASE  2.95176  43   3.38688  47   -7.7  69    -12.4 13    0     992.9    NA       0.0000   9999     0     0     0    
2019/06/27  16:44:00  BASE  3.06348  42   3.38688  47   -7.8  69    -12.4 13    0     992.9    NA       0.0000   9999     0     0     0    
2019/06/27  16:45:00  BASE  3.01644  46   3.38688  41   -7.9  69    -12.6 14    0     992.9    NA       0.0000   9999     0     0     0    
2019/06/27  16:46:00  BASE  2.94     49   3.38688  41   -7.9  69    -12.6 14    0     992.9    NA       0.0000   9999     0     0     0    
2019/06/27  16:47:00  BASE  2.97528  50   3.38688  41   -7.9  69    -12.5 14    0     992.8    NA       0.0000   9999     0     0     0    
2019/06/27  16:48:00  BASE  2.74596  50   3.38688  41   -7.9  70    -12.5 14    0     992.8    NA       0.0000   9999     0     0     0    
2019/06/27  16:49:00  BASE  2.55192  51   3.38688  41   -7.8  70    -12.4 14    0     992.8    NA       0.0000   9999     0     0     0    
2019/06/27  16:50:00  BASE  2.5284   56   3.38688  41   -7.8  70    -12.3 14    0     992.8    NA       0.0000   9999     0     0     0    
2019/06/27  16:51:00  BASE  2.57544  63   3.38688  41   -7.7  70    -12.2 13    0     992.8    NA       0.0000   9999     0     0     0    
2019/06/27  16:52:00  BASE  2.60484  62   3.38688  41   -7.7  70    -12.2 13    0     992.8    NA       0.0000   9999     0     0     0    
2019/06/27  16:53:00  BASE  2.46372  57   3.38688  41   -7.7  70    -12.2 13    0     992.8    NA       0.0000   9999     0     0     0    
2019/06/27  16:54:00  BASE  2.5872   54   3.38688  41   -7.6  70    -12.2 13    0     992.7    NA       0.0000   9999     2850  0     0    
2019/06/27  16:55:00  BASE  2.53428  58   3.35748  49   -7.7  70    -12.3 13    0     992.7    NA       0.0000   9999     3150  0     0    
2019/06/27  16:56:00  BASE  2.5284   66   3.32808  49   -7.7  70    -12.3 13    0     992.7    NA       0.0000   9999     0     0     0    
2019/06/27  16:57:00  BASE  2.6166   61   3.2046   42   -7.7  70    -12.3 13    0     992.7    NA       0.0000   9999     0     0     0    
2019/06/27  16:58:00  BASE  2.49312  58   3.2046   42   -7.7  69    -12.3 13    0     992.5    NA       0.0000   9999     0     0     0    
2019/06/27  16:59:00  BASE  2.51076  62   3.2046   42   -7.6  69    -12.3 13    0     992.7    NA       0.0000   9000     0     0     0    
2019/06/27  17:00:00  BASE  2.56956  63   3.2046   42   -7.6  69    -12.2 14    0     992.7    NA       0.0000   9999     3050  0     0    
2019/06/27  17:01:00  BASE  2.75772  61   3.2046   42   -7.6  69    -12.2 15    0     992.7    NA       0.0000   9999     3150  0     0    
2019/06/27  17:02:00  BASE  2.69304  55   3.2046   42   -7.5  69    -12.2 16    0     992.7    NA       0.0000   9999     3120  0     0    
2019/06/27  17:03:00  BASE  2.58132  51   3.2046   42   -7.5  69    -12.2 18    0     992.7    NA       0.0000   9999     2890  0     0    
2019/06/27  17:04:00  BASE  2.57544  48   3.1458   59   -7.5  69    -12.2 20    0     992.8    NA       0.0000   9999     2850  0     0    
2019/06/27  17:05:00  BASE  2.48136  46   3.1458   59   -7.5  69    -12.2 22    0     992.8    NA       0.0000   9999     2890  0     0    
2019/06/27  17:06:00  BASE  2.42256  45   3.1458   59   -7.5  69    -12.2 23    0     992.8    NA       0.0000   9999     2920  0     0    
2019/06/27  17:07:00  BASE  2.42256  45   3.1458   59   -7.4  69    -12.1 22    0     992.8    NA       0.0000   9999     2850  0     0    
2019/06/27  17:08:00  BASE  2.42256  48   3.1458   59   -7.4  69    -12.1 21    0     992.8    NA       0.0000   9999     3080  0     0    
2019/06/27  17:09:00  BASE  2.33436  47   3.1458   59   -7.4  69    -12.1 19    0     992.9    NA       0.0000   9999     2990  0     0    
2019/06/27  17:10:00  BASE  2.46372  43   3.1458   59   -7.4  69    -12.1 18    0     992.9    NA       0.0000   9000     2920  0     0    
2019/06/27  17:11:00  BASE  2.46372  48   2.90472  48   -7.4  69    -12.1 16    0     992.7    NA       0.0000   HZ       9000  2920  0    
2019/06/27  17:12:00  BASE  2.38728  53   2.90472  48   -7.3  69    -12.1 15    0     992.9    NA       0.0000   HZ       9999  2950  0    
2019/06/27  17:13:00  BASE  2.5872   51   3.087    41   -7.3  69    -12.0 14    0     992.8    NA       0.0000   HZ       9999  2950  0    
2019/06/27  17:14:00  BASE  2.75772  48   3.1458   43   -7.3  69    -12.1 13    0     992.8    NA       0.0000   HZ       9000  2920  0    
2019/06/27  17:15:00  BASE  2.66952  48   3.1458   43   -7.3  69    -12.1 12    0     992.8    NA       0.0000   HZ       9999  3080  0    
2019/06/27  17:16:00  BASE  2.62836  47   3.1458   43   -7.4  69    -12.1 12    0     992.8    NA       0.0000   HZ       9999  3080  0    
2019/06/27  17:17:00  BASE  2.68128  45   3.1458   43   -7.4  69    -12.1 12    0     992.8    NA       0.0000   HZ       9999  3180  0    
2019/06/27  17:18:00  BASE  2.50488  44   3.1458   43   -7.5  69    -12.2 12    0     992.8    NA       0.0000   HZ       9999  3350  0    
2019/06/27  17:19:00  BASE  2.34024  41   3.1458   43   -7.5  69    -12.2 11    0     992.8    NA       0.0000   HZ       9999  3180  0    
2019/06/27  17:20:00  BASE  2.31084  44   3.1458   43   -7.5  69    -12.2 11    0     992.8    NA       0.0000   HZ       9999  3220  0    
2019/06/27  17:21:00  BASE  2.25204  53   3.1458   43   -7.4  69    -12.2 11    0     992.8    NA       0.0000   9999     2920  0     0    
2019/06/27  17:22:00  BASE  2.21088  56   3.1458   43   -7.4  69    -12.1 10    0     992.8    NA       0.0000   9999     2920  0     0    
2019/06/27  17:23:00  BASE  2.19912  47   3.1458   43   -7.4  69    -12.1 10    0     992.8    NA       0.0000   9999     3450  0     0    
2019/06/27  17:24:00  BASE  2.08152  45   2.90472  49   -7.4  69    -12.1 9     0     992.8    NA       0.0000   9999     3120  0     0    
2019/06/27  17:25:00  BASE  2.04624  49   2.90472  49   -7.3  69    -12.1 9     0     992.8    NA       0.0000   9999     3020  0     0    
2019/06/27  17:26:00  BASE  2.08152  50   2.87532  50   -7.3  69    -12.0 9     0     992.8    NA       0.0000   9999     2990  0     0    
2019/06/27  17:27:00  BASE  2.15208  50   2.75184  48   -7.3  69    -12.0 8     0     992.8    NA       0.0000   9999     3020  0     0    
2019/06/27  17:28:00  BASE  2.06388  46   2.56956  56   -7.3  69    -12.0 8     0     992.8    NA       0.0000   9999     2990  0     0    
2019/06/27  17:29:00  BASE  1.83456  44   2.56956  56   -7.2  69    -11.9 8     0     992.7    NA       0.0000   9999     2990  0     0    
2019/06/27  17:30:00  BASE  1.78752  47   2.48136  58   -7.2  69    -11.9 8     0     992.7    NA       0.0000   9999     3080  0     0    
2019/06/27  17:31:00  BASE  1.92276  46   2.48136  58   -7.1  69    -11.9 8     0     992.7    NA       0.0000   9999     3050  0     0    
2019/06/27  17:32:00  BASE  2.1462   45   2.56956  52   -7.2  69    -12.0 8     0     992.7    NA       0.0000   9000     3080  0     0    
2019/06/27  17:33:00  BASE  2.21676  46   2.63424  51   -7.2  69    -12.0 7     0     992.7    NA       0.0000   9999     2950  0     0    
2019/06/27  17:34:00  BASE  2.06976  50   2.63424  51   -7.3  69    -12.0 7     0     992.7    NA       0.0000   9999     2950  0     0    
2019/06/27  17:35:00  BASE  2.03448  51   2.63424  51   -7.3  69    -12.0 7     0     992.7    NA       0.0000   9999     2990  0     0    
2019/06/27  17:36:00  BASE  2.25204  48   2.66364  44   -7.3  69    -12.0 7     0     992.7    NA       0.0000   9999     2950  0     0    
2019/06/27  17:37:00  BASE  2.37552  48   2.87532  41   -7.2  69    -12.0 7     0     992.7    NA       0.0000   9999     2950  0     0    
2019/06/27  17:38:00  BASE  2.36376  51   2.87532  41   -7.2  69    -11.9 7     0     992.7    NA       0.0000   9999     0     0     0    
2019/06/27  17:39:00  BASE  2.4108   53   2.87532  41   -7.2  69    -11.9 7     0     992.7    NA       0.0000   9999     2950  0     0    
2019/06/27  17:40:00  BASE  2.35788  55   2.87532  41   -7.2  69    -12.0 7     0     992.7    NA       0.0000   9999     0     0     0    
2019/06/27  17:41:00  BASE  2.09916  54   2.87532  41   -7.2  69    -12.0 7     0     992.7    NA       0.0000   9999     0     0     0    
2019/06/27  17:42:00  BASE  1.84044  49   2.87532  41   -7.2  69    -12.0 7     0     992.7    NA       0.0000   9999     0     0     0    
2019/06/27  17:43:00  BASE  1.86984  48   2.87532  41   -7.3  69    -12.0 7     0     992.7    NA       0.0000   9999     0     0     0    
2019/06/27  17:44:00  BASE  1.96392  48   2.87532  41   -7.3  69    -12.0 7     0     992.6    NA       0.0000   9999     0     0     0    
2019/06/27  17:45:00  BASE  1.93452  49   2.87532  41   -7.3  69    -12.0 7     0     992.6    NA       0.0000   9999     0     0     0    
2019/06/27  17:46:00  BASE  1.83456  53   2.87532  41   -7.3  69    -12.1 7     0     992.6    NA       0.0000   9999     0     0     0    
2019/06/27  17:47:00  BASE  1.6464   54   2.75184  41   -7.3  68    -12.1 7     0     992.7    NA       0.0000   9999     0     0     0    
2019/06/27  17:48:00  BASE  1.6464   54   2.75184  41   -7.2  68    -12.1 7     0     992.7    NA       0.0000   9999     0     0     0    
2019/06/27  17:49:00  BASE  1.79928  54   2.48136  62   -7.2  68    -12.0 7     0     992.7    NA       0.0000   9000     0     0     0    
2019/06/27  17:50:00  BASE  1.76988  56   2.42256  51   -7.2  68    -12.1 7     0     992.7    NA       0.0000   HZ       9999  0     0    
2019/06/27  17:51:00  BASE  1.71696  57   2.42256  51   -7.1  68    -12.1 6     0     992.6    NA       0.0000   9999     0     0     0    
2019/06/27  17:52:00  BASE  1.79928  54   2.42256  51   -7.1  68    -12.1 6     0     992.6    NA       0.0000   9999     0     0     0    
2019/06/27  17:53:00  BASE  1.90512  51   2.1756   47   -7.1  67    -12.1 6     0     992.6    NA       0.0000   9999     0     0     0    
2019/06/27  17:54:00  BASE  1.89336  49   2.1756   47   -7.1  67    -12.2 6     0     992.6    NA       0.0000   9999     0     0     0    
2019/06/27  17:55:00  BASE  1.7934   46   2.1462   56   -7.1  67    -12.2 6     0     992.6    NA       0.0000   9999     0     0     0    
2019/06/27  17:56:00  BASE  1.65816  47   2.1462   56   -7.1  67    -12.2 6     0     992.6    NA       0.0000   9999     0     0     0    
2019/06/27  17:57:00  BASE  1.64052  45   2.1462   56   -7.1  67    -12.2 6     0     992.6    NA       0.0000   9999     0     0     0    
2019/06/27  17:58:00  BASE  1.64052  42   2.1462   56   -7.1  67    -12.2 6     0     992.6    NA       0.0000   9999     0     0     0    
2019/06/27  17:59:00  BASE  1.56408  42   2.1462   56   -7.1  67    -12.2 6     0     992.6    NA       0.0000   9999     0     0     0    
2019/06/27  18:00:00  BASE  1.56408  43   2.1462   56   -7.2  67    -12.2 6     0     992.6    NA       0.0000   9999     0     0     0    
2019/06/27  18:01:00  BASE  1.62876  49   2.1462   56   -7.2  67    -12.3 6     0     992.6    NA       0.0000   9999     0     0     0    
2019/06/27  18:02:00  BASE  1.66992  54   2.1462   56   -7.3  67    -12.3 6     0     992.6    NA       0.0000   9999     0     0     0    
2019/06/27  18:03:00  BASE  1.63464  50   2.0286   49   -7.3  67    -12.4 6     0     992.6    NA       0.0000   9999     0     0     0    
2019/06/27  18:04:00  BASE  1.53468  44   1.87572  57   -7.3  67    -12.4 5     0     992.6    NA       0.0000   9999     0     0     0    
2019/06/27  18:05:00  BASE  1.51116  41   1.87572  57   -7.3  67    -12.4 5     0     992.5    NA       0.0000   9999     0     0     0    
2019/06/27  18:06:00  BASE  1.60524  39   1.87572  57   -7.2  67    -12.3 5     0     992.4    NA       0.0000   9999     0     0     0    
2019/06/27  18:07:00  BASE  1.58172  36   1.87572  57   -7.2  67    -12.3 5     0     992.4    NA       0.0000   9999     0     0     0    
2019/06/27  18:08:00  BASE  1.45236  35   1.87572  57   -7.2  67    -12.2 5     0     992.4    NA       0.0000   9999     0     0     0    
2019/06/27  18:09:00  BASE  1.42296  35   1.87572  57   -7.2  68    -12.2 5     0     992.4    NA       0.0000   9999     3050  0     0    
2019/06/27  18:10:00  BASE  1.42884  38   1.87572  57   -7.2  68    -12.1 5     0     992.4    NA       0.0000   9999     2990  0     0    
2019/06/27  18:11:00  BASE  1.36416  42   1.87572  57   -7.2  68    -12.1 5     0     992.4    NA       0.0000   9999     3080  0     0    
2019/06/27  18:12:00  BASE  1.2348   43   1.78752  35   -7.1  68    -12.0 5     0     992.4    NA       0.0000   9999     0     0     0    
2019/06/27  18:13:00  BASE  1.16424  42   1.78752  35   -7.1  68    -12.0 5     0     992.4    NA       0.0000   9999     0     0     0    
2019/06/27  18:14:00  BASE  1.2348   40   1.78752  35   -7.1  68    -12.0 5     0     992.4    NA       0.0000   9999     3220  0     0    
2019/06/27  18:15:00  BASE  1.30536  39   1.78752  35   -7.0  68    -11.9 5     0     992.4    NA       0.0000   9999     3080  0     0    
2019/06/27  18:16:00  BASE  1.2642   36   1.72284  35   -7.0  68    -12.0 5     0     992.4    NA       0.0000   9999     3120  0     0    
2019/06/27  18:17:00  BASE  1.21128  35   1.66404  36   -7.0  68    -12.0 5     0     992.4    NA       0.0000   9999     2950  0     0    
2019/06/27  18:18:00  BASE  1.176    37   1.60524  41   -7.0  68    -11.9 5     0     992.4    NA       0.0000   9999     2890  0     0    
2019/06/27  18:19:00  BASE  1.18188  33   1.60524  41   -7.0  68    -11.9 5     0     992.4    NA       0.0000   9999     2950  0     0    
2019/06/27  18:20:00  BASE  1.24068  33   1.54056  41   -7.0  68    -11.9 4     0     992.4    NA       0.0000   9999     2790  0     0    
2019/06/27  18:21:00  BASE  1.31124  34   1.48176  37   -7.0  68    -11.9 4     0     992.4    NA       0.0000   9999     3150  0     0    
2019/06/27  18:22:00  BASE  1.27596  34   1.48176  37   -7.0  68    -11.8 4     0     992.4    NA       0.0000   9999     3250  0     0    
2019/06/27  18:23:00  BASE  1.21128  39   1.48176  37   -7.0  69    -11.8 4     0     992.5    NA       0.0000   9999     2790  3280  0    
2019/06/27  18:24:00  BASE  1.13484  46   1.45236  42   -7.0  69    -11.8 4     0     992.4    NA       0.0000   9999     2720  3350  0    
2019/06/27  18:25:00  BASE  1.18188  43   1.48176  28   -7.0  69    -11.7 4     0     992.4    NA       0.0000   9999     2690  0     0    
2019/06/27  18:26:00  BASE  1.16424  41   1.48176  28   -7.0  69    -11.7 4     0     992.4    NA       0.0000   9999     2690  0     0    
2019/06/27  18:27:00  BASE  0.97608  45   1.48176  28   -6.9  69    -11.6 4     0     992.4    NA       0.0000   9999     2690  0     0    
2019/06/27  18:28:00  BASE  0.77616  43   1.48176  28   -6.9  70    -11.5 4     0     992.4    NA       0.0000   9999     2690  3350  0    
2019/06/27  18:29:00  BASE  0.31164  61   1.48176  28   -6.9  70    -11.5 4     0     992.4    NA       0.0000   9999     3050  0     0    
2019/06/27  18:30:00  BASE  0        142  1.48176  28   -6.9  70    -11.4 4     0     992.4    NA       0.0000   9999     3120  0     0    
2019/06/27  18:31:00  BASE  0.12936  253  1.48176  28   -6.8  70    -11.4 3     0     992.4    NA       0.0000   9999     2920  0     0    
2019/06/27  18:32:00  BASE  0.30576  79   1.48176  28   -6.8  70    -11.4 3     0     992.4    NA       0.0000   9999     2890  0     0    
2019/06/27  18:33:00  BASE  0.18228  104  1.48176  28   -6.8  70    -11.3 3     0     992.4    NA       0.0000   9999     2920  0     0    
2019/06/27  18:34:00  BASE  0.15876  92   1.48176  28   -6.7  70    -11.4 3     0     992.4    NA       0.0000   9999     2920  0     0    
2019/06/27  18:35:00  BASE  0.6174   65   1.24068  103  -6.7  69    -11.4 3     0     992.4    NA       0.0000   9999     2950  3640  0    
2019/06/27  18:36:00  BASE  0.59976  63   1.24068  103  -6.7  69    -11.4 3     0     992.4    NA       0.0000   9999     2920  0     0    
2019/06/27  18:37:00  BASE  0.441    71   1.24068  103  -6.7  69    -11.4 3     0     992.4    NA       0.0000   9999     2890  0     0    
2019/06/27  18:38:00  BASE  0.6762   78   1.24068  103  -6.6  69    -11.4 3     0     992.4    NA       0.0000   9999     2890  0     0    
2019/06/27  18:39:00  BASE  0.88788  77   1.48176  100  -6.6  68    -11.5 3     0     992.4    NA       0.0000   9999     0     0     0    
2019/06/27  18:40:00  BASE  1.19364  94   1.63464  118  -6.6  68    -11.6 3     0     992.3    NA       0.0000   9999     2890  0     0    
2019/06/27  18:41:00  BASE  1.39356  109  1.63464  108  -6.7  67    -11.7 2     0     992.4    NA       0.0000   9999     2890  0     0    
2019/06/27  18:42:00  BASE  1.53468  105  1.90512  115  -6.8  67    -11.9 2     0     992.3    NA       0.0000   9999     0     0     0    
2019/06/27  18:43:00  BASE  1.64052  105  2.058    114  -6.9  67    -12.0 2     0     992.3    NA       0.0000   9999     0     0     0    
2019/06/27  18:44:00  BASE  1.60524  108  2.1462   122  -6.9  67    -12.0 2     0     992.3    NA       0.0000   9999     3150  0     0    
2019/06/27  18:45:00  BASE  1.5876   109  2.1462   122  -6.8  67    -11.9 2     0     992.3    NA       0.0000   9999     3050  0     0    
2019/06/27  18:46:00  BASE  1.764    107  2.1462   122  -6.8  67    -11.9 2     0     992.3    NA       0.0000   9999     2990  0     0    
2019/06/27  18:47:00  BASE  1.89336  109  2.1462   122  -6.8  67    -11.9 2     0     992.3    NA       0.0000   9999     2950  0     0    
2019/06/27  18:48:00  BASE  1.63464  121  2.1462   122  -6.7  66    -11.9 2     0     992.3    NA       0.0000   9999     2990  0     0    
2019/06/27  18:49:00  BASE  1.24656  128  2.1462   122  -6.7  66    -12.0 2     0     992.2    NA       0.0000   9999     2950  0     0    
2019/06/27  18:50:00  BASE  1.22892  114  2.1462   122  -6.7  66    -12.0 2     0     992.2    NA       0.0000   9999     0     0     0    
2019/06/27  18:51:00  BASE  1.48764  106  2.1462   122  -6.7  66    -12.1 2     0     992.3    NA       0.0000   9999     3180  0     0    
2019/06/27  18:52:00  BASE  1.5288   111  2.1462   122  -6.7  66    -12.1 1     0     992.3    NA       0.0000   9999     0     0     0    
2019/06/27  18:53:00  BASE  1.39944  110  2.1462   122  -6.7  66    -12.1 1     0     992.3    NA       0.0000   9999     0     0     0    
2019/06/27  18:54:00  BASE  1.5876   112  2.1462   120  -6.7  66    -12.1 1     0     992.3    NA       0.0000   9999     0     0     0    
2019/06/27  18:55:00  BASE  1.89336  118  2.1462   120  -6.7  66    -12.1 1     0     992.3    NA       0.0000   9999     0     0     0    
2019/06/27  18:56:00  BASE  1.95216  119  2.32848  116  -6.7  66    -12.0 1     0     992.3    NA       0.0000   9999     3220  0     0    
2019/06/27  18:57:00  BASE  1.8816   120  2.32848  116  -6.6  66    -12.0 1     0     992.3    NA       0.0000   9999     3250  0     0    
2019/06/27  18:58:00  BASE  1.45824  145  2.32848  116  -6.6  66    -12.0 1     0     992.3    NA       0.0000   9999     3150  0     0    
2019/06/27  18:59:00  BASE  1.31124  154  2.32848  116  -6.6  65    -12.0 1     0     992.3    NA       0.0000   9999     3350  0     0    
2019/06/27  19:00:00  BASE  1.59936  137  2.32848  116  -6.7  65    -12.2 1     0     992.3    NA       0.0000   9999     3180  0     0    
2019/06/27  19:01:00  BASE  1.8816   141  2.35788  137  -6.9  65    -12.4 1     0     992.3    NA       0.0000   9999     2990  0     0    
2019/06/27  19:02:00  BASE  2.07564  142  2.35788  137  -7.0  65    -12.5 1     0     992.3    NA       0.0000   9999     3050  0     0    
2019/06/27  19:03:00  BASE  2.0874   131  2.48136  124  -7.1  65    -12.6 1     0     992.3    NA       0.0000   9999     3080  0     0    
2019/06/27  19:04:00  BASE  2.21676  122  2.56956  111  -7.3  65    -12.7 1     0     992.3    NA       0.0000   9999     3050  0     0    
2019/06/27  19:05:00  BASE  2.352    119  2.59896  117  -7.4  66    -12.7 1     0     992.3    NA       0.0000   9999     3080  0     0    
2019/06/27  19:06:00  BASE  2.54604  121  3.69264  104  -7.3  67    -12.5 1     0     992.3    NA       0.0000   9999     2950  0     0    
2019/06/27  19:07:00  BASE  2.42844  125  3.69264  104  -7.2  67    -12.4 1     0     992.3    NA       0.0000   9999     3080  0     0    
2019/06/27  19:08:00  BASE  2.1168   124  3.69264  104  -7.2  67    -12.2 0     0     992.3    NA       0.0000   9999     3080  0     0    
2019/06/27  19:09:00  BASE  2.0286   114  3.69264  104  -7.0  67    -12.1 0     0     992.3    NA       0.0000   9999     2950  0     0    
2019/06/27  19:10:00  BASE  1.78752  111  3.69264  104  -6.9  67    -12.0 0     0     992.3    NA       0.0000   9999     3050  0     0    
2019/06/27  19:11:00  BASE  1.62876  116  3.69264  104  -6.8  66    -12.0 0     0     992.3    NA       0.0000   9999     2890  0     0    
2019/06/27  19:12:00  BASE  1.59936  124  3.69264  104  -6.8  66    -12.2 0     0     992.3    NA       0.0000   9999     3020  0     0    
2019/06/27  19:13:00  BASE  1.62288  127  3.69264  104  -6.9  65    -12.3 0     0     992.3    NA       0.0000   9999     2990  0     0    
2019/06/27  19:14:00  BASE  1.6464   123  3.69264  104  -6.9  65    -12.4 0     0     992.3    NA       0.0000   9999     0     0     0    
2019/06/27  19:15:00  BASE  1.56408  132  3.69264  104  -6.9  65    -12.4 0     0     992.3    NA       0.0000   9999     0     0     0    
2019/06/27  19:16:00  BASE  1.42296  144  2.63424  128  -7.0  65    -12.5 0     0     992.3    NA       0.0000   9999     0     0     0    
2019/06/27  19:17:00  BASE  1.3524   145  2.63424  128  -7.0  65    -12.5 0     0     992.3    NA       0.0000   9999     0     0     0    
2019/06/27  19:18:00  BASE  1.24068  144  2.29908  110  -7.0  64    -12.6 0     0     992.3    NA       0.0000   9999     0     0     0    
2019/06/27  19:19:00  BASE  0.77616  142  2.1462   149  -7.1  64    -12.7 0     0     992.3    NA       0.0000   9999     0     0     0    
2019/06/27  19:20:00  BASE  0.65856  145  2.1462   149  -7.1  64    -12.8 0     0     992.3    NA       0.0000   9999     0     0     0    
2019/06/27  19:21:00  BASE  0.85848  147  2.1462   149  -7.2  64    -12.8 0     0     992.3    NA       0.0000   9999     0     0     0    
2019/06/27  19:22:00  BASE  0.86436  138  2.1462   149  -7.2  64    -12.8 0     0     992.3    NA       0.0000   9999     0     0     0    
2019/06/27  19:23:00  BASE  0.81732  144  1.84632  113  -7.2  64    -12.8 0     0     992.3    NA       0.0000   9999     0     0     0    
2019/06/27  19:24:00  BASE  0.8526   164  1.81692  131  -7.2  64    -12.8 0     0     992.3    NA       0.0000   9999     0     0     0    
2019/06/27  19:25:00  BASE  1.04076  152  1.69344  151  -7.2  64    -12.8 0     0     992.3    NA       0.0000   9999     0     0     0    
2019/06/27  19:26:00  BASE  0.57036  138  1.69344  151  -7.2  64    -12.9 0     0     992.3    NA       0.0000   9999     0     0     0    
2019/06/27  19:27:00  BASE  0.43512  157  1.69344  151  -7.2  64    -12.8 0     0     992.3    NA       0.0000   9999     0     0     0    
2019/06/27  19:28:00  BASE  0.93492  185  1.48176  119  -7.1  65    -12.6 0     0     992.3    NA       0.0000   9999     0     0     0    
2019/06/27  19:29:00  BASE  0.87024  204  1.48176  119  -7.0  64    -12.6 0     0     992.3    NA       0.0000   9999     0     0     0    
2019/06/27  19:30:00  BASE  0.82908  205  1.48176  119  -7.0  64    -12.6 0     0     992.3    NA       0.0000   9999     0     0     0    
2019/06/27  19:31:00  BASE  1.10544  200  2.32848  202  -6.9  64    -12.6 0     0     992.3    NA       0.0000   9999     0     0     0    
2019/06/27  19:32:00  BASE  1.65228  194  2.32848  202  -6.8  63    -12.7 0     0     992.3    NA       0.0000   9999     0     0     0    
2019/06/27  19:33:00  BASE  2.27556  189  2.99292  190  -6.8  62    -12.8 0     0     992.3    NA       0.0000   9999     0     0     0    
2019/06/27  19:34:00  BASE  2.7636   189  3.59856  198  -6.9  62    -13.0 0     0     992.3    NA       0.0000   9999     0     0     0    
2019/06/27  19:35:00  BASE  2.7048   196  3.59856  198  -6.9  61    -13.2 0     0     992.2    NA       0.0000   9999     0     0     0    
2019/06/27  19:36:00  BASE  2.5578   199  3.59856  198  -7.0  60    -13.4 0     0     992.2    NA       0.0000   9999     0     0     0    
2019/06/27  19:37:00  BASE  2.793    203  3.59856  198  -7.0  60    -13.5 0     0     992.2    NA       0.0000   9999     0     0     0    
2019/06/27  19:38:00  BASE  2.9988   203  3.59856  198  -7.1  60    -13.5 0     0     992.2    NA       0.0000   9999     0     0     0    
2019/06/27  19:39:00  BASE  2.82828  201  3.59856  198  -7.0  60    -13.4 0     0     992.2    NA       0.0000   9999     0     0     0    
2019/06/27  19:40:00  BASE  2.76948  194  3.59856  182  -7.0  60    -13.4 0     0     992.2    NA       0.0000   9999     0     0     0    
2019/06/27  19:41:00  BASE  3.36924  185  4.116    182  -6.9  60    -13.4 0     0     992.2    NA       0.0000   9999     0     0     0    
2019/06/27  19:42:00  BASE  3.68676  180  4.116    182  -6.8  59    -13.5 0     0     992.2    NA       0.0000   9999     0     0     0    
2019/06/27  19:43:00  BASE  3.58092  180  4.116    182  -6.8  59    -13.6 0     0     992.2    NA       0.0000   9999     0     0     0    
2019/06/27  19:44:00  BASE  3.62796  182  4.116    182  -6.8  58    -13.6 0     0     992.2    NA       0.0000   9999     0     0     0    
2019/06/27  19:45:00  BASE  3.4398   182  4.116    182  -6.8  58    -13.6 0     0     992.2    NA       0.0000   9999     0     0     0    
2019/06/27  19:46:00  BASE  2.85768  184  4.116    182  -6.8  58    -13.6 0     0     992.2    NA       0.0000   9999     0     0     0    
2019/06/27  19:47:00  BASE  2.352    186  4.116    182  -6.8  58    -13.6 0     0     992.2    NA       0.0000   9999     0     0     0    
2019/06/27  19:48:00  BASE  2.42844  186  4.116    182  -6.8  58    -13.6 0     0     992.1    NA       0.0000   9999     0     0     0    
2019/06/27  19:49:00  BASE  3.02232  187  4.116    182  -6.8  58    -13.6 0     0     992.1    NA       0.0000   9999     0     0     0    
2019/06/27  19:50:00  BASE  2.80476  193  4.116    182  -6.8  59    -13.6 0     0     992.2    NA       0.0000   9999     0     0     0    
2019/06/27  19:51:00  BASE  2.34024  193  4.02192  184  -6.8  59    -13.6 0     0     992.2    NA       0.0000   9999     0     0     0    
2019/06/27  19:52:00  BASE  2.499    186  4.02192  184  -6.8  59    -13.5 0     0     992.2    NA       0.0000   9999     0     0     0    
2019/06/27  19:53:00  BASE  2.50488  179  4.02192  184  -6.8  59    -13.4 0     0     992.2    NA       0.0000   9999     0     0     0    
2019/06/27  19:54:00  BASE  2.54604  183  4.02192  184  -6.9  59    -13.5 0     0     992.1    NA       0.0000   9999     0     0     0    
2019/06/27  19:55:00  BASE  2.4108   184  4.02192  184  -6.9  59    -13.5 0     0     992.1    NA       0.0000   9999     0     0     0    
2019/06/27  19:56:00  BASE  1.69932  160  4.02192  184  -7.1  59    -13.6 0     0     992.1    NA       0.0000   9999     0     0     0    
2019/06/27  19:57:00  BASE  1.61112  156  4.02192  184  -7.3  60    -13.8 0     0     992.1    NA       0.0000   9999     0     0     0    
2019/06/27  19:58:00  BASE  1.99332  172  4.02192  184  -7.5  60    -13.9 0     0     992.1    NA       0.0000   9999     0     0     0    
2019/06/27  19:59:00  BASE  2.205    174  3.53976  187  -7.7  61    -14.0 0     0     992.1    NA       0.0000   9999     0     0     0    
2019/06/27  20:00:00  BASE  2.39316  172  3.53976  187  -7.8  62    -13.9 0     0     992.1    NA       0.0000   9999     0     0     0    
2019/06/27  20:01:00  BASE  2.32848  170  3.53976  187  -7.9  63    -13.7 0     0     992.1    NA       0.0000   9999     0     0     0    
2019/06/27  20:02:00  BASE  2.04036  159  3.53976  187  -7.8  63    -13.5 0     0     992.0    NA       0.0000   9999     0     0     0    
2019/06/27  20:03:00  BASE  1.8228   144  3.53976  187  -7.6  64    -13.3 0     0     992.0    NA       0.0000   9999     0     0     0    
2019/06/27  20:04:00  BASE  1.92864  138  3.02232  183  -7.5  64    -13.1 0     0     992.0    NA       0.0000   9999     0     0     0    
2019/06/27  20:05:00  BASE  1.9992   142  3.02232  183  -7.4  64    -13.1 0     0     992.0    NA       0.0000   9999     0     0     0    
2019/06/27  20:06:00  BASE  2.0286   146  3.02232  183  -7.4  64    -13.0 0     0     992.0    NA       0.0000   9999     0     0     0    
2019/06/27  20:07:00  BASE  2.03448  149  3.02232  183  -7.4  64    -13.1 0     0     992.0    NA       0.0000   9999     0     0     0    
2019/06/27  20:08:00  BASE  1.9992   153  3.02232  163  -7.5  64    -13.1 0     0     992.0    NA       0.0000   9999     0     0     0    
2019/06/27  20:09:00  BASE  1.89924  156  3.02232  163  -7.6  64    -13.1 0     0     992.0    NA       0.0000   9999     0     0     0    
2019/06/27  20:10:00  BASE  1.62876  148  3.02232  163  -7.6  65    -13.1 0     0     992.0    NA       0.0000   9999     0     0     0    
2019/06/27  20:11:00  BASE  1.51704  138  3.02232  163  -7.6  65    -13.1 0     0     991.9    NA       0.0000   9999     0     0     0    
2019/06/27  20:12:00  BASE  1.56408  136  3.02232  163  -7.6  65    -13.0 0     0     991.8    NA       0.0000   9999     0     0     0    
2019/06/27  20:13:00  BASE  1.56408  130  3.02232  163  -7.5  65    -12.9 0     0     991.8    NA       0.0000   9999     0     0     0    
2019/06/27  20:14:00  BASE  1.51704  126  3.02232  163  -7.4  65    -12.8 0     0     991.8    NA       0.0000   9999     0     0     0    
2019/06/27  20:15:00  BASE  1.48176  128  3.02232  163  -7.4  65    -12.9 0     0     991.8    NA       0.0000   9999     0     0     0    
2019/06/27  20:16:00  BASE  1.54056  133  3.02232  163  -7.4  65    -12.9 0     0     991.8    NA       0.0000   9999     0     0     0    
2019/06/27  20:17:00  BASE  1.62288  139  3.02232  163  -7.4  65    -12.9 0     0     991.8    NA       0.0000   9999     0     0     0    
2019/06/27  20:18:00  BASE  1.38768  139  2.93412  194  -7.5  65    -12.9 0     0     991.8    NA       0.0000   9999     0     0     0    
2019/06/27  20:19:00  BASE  1.27008  131  2.0286   138  -7.5  65    -12.9 0     0     991.8    NA       0.0000   9999     0     0     0    
2019/06/27  20:20:00  BASE  1.39944  125  2.0286   138  -7.6  66    -12.9 0     0     991.8    NA       0.0000   9999     0     0     0    
2019/06/27  20:21:00  BASE  1.55232  121  2.24028  127  -7.6  66    -12.9 0     0     991.8    NA       0.0000   9999     0     0     0    
2019/06/27  20:22:00  BASE  1.89924  119  2.32848  116  -7.6  66    -12.8 0     0     991.8    NA       0.0000   9999     0     0     0    
2019/06/27  20:23:00  BASE  1.89924  125  2.32848  116  -7.6  66    -12.9 0     0     991.8    NA       0.0000   9999     0     0     0    
2019/06/27  20:24:00  BASE  1.69344  130  2.32848  116  -7.7  66    -12.9 0     0     991.8    NA       0.0000   9999     0     0     0    
2019/06/27  20:25:00  BASE  1.57584  122  2.32848  116  -7.7  66    -13.0 0     0     991.8    NA       0.0000   9999     0     0     0    
2019/06/27  20:26:00  BASE  1.74636  122  2.35788  146  -7.7  66    -13.0 0     0     991.8    NA       0.0000   9999     0     0     0    
2019/06/27  20:27:00  BASE  1.9698   137  2.38728  139  -7.7  66    -12.9 0     0     991.8    NA       0.0000   9999     0     0     0    
2019/06/27  20:28:00  BASE  1.62288  139  2.38728  139  -7.6  66    -12.9 0     0     991.8    NA       0.0000   9999     0     0     0    
2019/06/27  20:29:00  BASE  1.31124  135  2.38728  139  -7.6  66    -12.9 0     0     991.8    NA       0.0000   9999     0     0     0    
2019/06/27  20:30:00  BASE  1.13484  150  2.38728  139  -7.5  65    -12.9 0     0     991.8    NA       0.0000   9999     0     0     0    
2019/06/27  20:31:00  BASE  0.94668  156  2.38728  139  -7.5  65    -13.0 0     0     991.9    NA       0.0000   9999     0     0     0    
2019/06/27  20:32:00  BASE  0.8526   152  2.38728  139  -7.5  65    -13.0 0     0     992.0    NA       0.0000   9999     0     0     0    
2019/06/27  20:33:00  BASE  0.58212  175  2.38728  139  -7.5  65    -12.9 0     0     992.0    NA       0.0000   9999     0     0     0    
2019/06/27  20:34:00  BASE  0.18816  187  2.38728  139  -7.4  65    -12.8 0     0     992.0    NA       0.0000   9999     0     0     0    
2019/06/27  20:35:00  BASE  0.54096  158  2.38728  139  -7.3  65    -12.7 0     0     991.9    NA       0.0000   9999     0     0     0    
2019/06/27  20:36:00  BASE  1.18188  135  2.38728  139  -7.3  65    -12.7 0     0     991.8    NA       0.0000   9999     0     0     0    
2019/06/27  20:37:00  BASE  1.17012  124  1.63464  139  -7.3  65    -12.8 0     0     991.8    NA       0.0000   9999     0     0     0    
2019/06/27  20:38:00  BASE  1.03488  138  1.63464  139  -7.4  65    -12.9 0     0     991.8    NA       0.0000   9999     0     0     0    
2019/06/27  20:39:00  BASE  0.89376  157  1.63464  139  -7.5  65    -13.0 0     0     991.8    NA       0.0000   9999     0     0     0    
2019/06/27  20:40:00  BASE  0.69384  170  1.63464  139  -7.5  65    -13.0 0     0     991.8    NA       0.0000   9999     0     0     0    
2019/06/27  20:41:00  BASE  0.6468   185  1.63464  139  -7.4  65    -12.9 0     0     991.8    NA       0.0000   9999     0     0     0    
2019/06/27  20:42:00  BASE  0.93492  188  1.63464  139  -7.3  65    -12.8 0     0     991.8    NA       0.0000   9999     0     0     0    
2019/06/27  20:43:00  BASE  1.16424  181  1.63464  139  -7.3  65    -12.8 0     0     991.8    NA       0.0000   9999     0     0     0    
2019/06/27  20:44:00  BASE  1.03488  165  1.63464  139  -7.3  65    -12.8 0     0     991.8    NA       0.0000   9999     0     0     0    
2019/06/27  20:45:00  BASE  0.89376  141  1.45236  129  -7.3  65    -12.9 0     0     991.8    NA       0.0000   9999     0     0     0    
2019/06/27  20:46:00  BASE  1.41708  132  2.35788  132  -7.5  65    -13.0 0     0     991.8    NA       0.0000   9999     0     0     0    
2019/06/27  20:47:00  BASE  1.95216  137  2.35788  132  -7.6  65    -13.2 0     0     991.8    NA       0.0000   9999     3080  0     0    
2019/06/27  20:48:00  BASE  1.85808  137  2.35788  132  -7.8  65    -13.2 0     0     991.8    NA       0.0000   9999     0     0     0    
2019/06/27  20:49:00  BASE  1.76988  131  2.35788  132  -7.8  65    -13.1 0     0     991.8    NA       0.0000   9999     3020  0     0    
2019/06/27  20:50:00  BASE  1.97568  134  2.48136  141  -7.8  66    -13.1 0     0     991.8    NA       0.0000   9999     0     0     0    
2019/06/27  20:51:00  BASE  1.97568  144  2.48136  141  -7.8  66    -13.0 0     0     991.9    NA       0.0000   9999     0     0     0    
2019/06/27  20:52:00  BASE  1.66404  154  2.48136  141  -7.6  66    -12.9 0     0     992.0    NA       0.0000   9999     0     0     0    
2019/06/27  20:53:00  BASE  1.96392  161  2.54016  156  -7.5  66    -12.8 0     0     992.0    NA       0.0000   9999     0     0     0    
2019/06/27  20:54:00  BASE  2.08152  151  2.54016  156  -7.5  66    -12.8 0     0     992.0    NA       0.0000   9999     0     0     0    
2019/06/27  20:55:00  BASE  1.78752  131  2.54016  156  -7.5  66    -12.8 0     0     991.9    NA       0.0000   9999     0     0     0    
2019/06/27  20:56:00  BASE  1.66992  119  2.54016  156  -7.6  65    -12.9 0     0     992.0    NA       0.0000   9999     0     0     0    
2019/06/27  20:57:00  BASE  1.6758   123  2.54016  156  -7.7  65    -13.0 0     0     991.9    NA       0.0000   9999     2920  0     0    
2019/06/27  20:58:00  BASE  1.7934   133  2.54016  156  -7.7  65    -13.1 0     0     991.9    NA       0.0000   9999     3020  0     0    
2019/06/27  20:59:00  BASE  2.05212  142  2.63424  149  -7.8  66    -13.1 0     0     991.9    NA       0.0000   9999     2950  0     0    
2019/06/27  21:00:00  BASE  1.99332  149  2.63424  149  -7.8  66    -13.0 0     0     992.0    NA       0.0000   9999     2820  0     0    
2019/06/27  21:01:00  BASE  1.56408  141  2.63424  149  -7.7  66    -12.9 0     0     992.0    NA       0.0000   9999     2920  0     0    
2019/06/27  21:02:00  BASE  1.4112   126  2.63424  149  -7.7  66    -12.9 0     0     992.0    NA       0.0000   9999     2920  0     0    
2019/06/27  21:03:00  BASE  1.39944  132  2.63424  149  -7.7  66    -12.9 0     0     992.0    NA       0.0000   9999     2890  0     0    
2019/06/27  21:04:00  BASE  1.48176  150  2.63424  149  -7.7  66    -12.9 0     0     992.0    NA       0.0000   9999     2850  0     0    
2019/06/27  21:05:00  BASE  1.77576  156  2.63424  149  -7.7  66    -13.0 0     0     992.0    NA       0.0000   9999     2820  0     0    
2019/06/27  21:06:00  BASE  1.74048  146  2.63424  149  -7.7  66    -13.0 0     0     992.0    NA       0.0000   9999     0     0     0    
2019/06/27  21:07:00  BASE  1.4994   124  2.63424  149  -7.7  66    -12.8 0     0     992.0    NA       0.0000   9999     2820  3220  0    
2019/06/27  21:08:00  BASE  1.2936   108  2.63424  149  -7.6  66    -12.8 0     0     992.0    NA       0.0000   9999     2720  0     0    
2019/06/27  21:09:00  BASE  1.24068  107  2.38728  156  -7.5  66    -12.7 0     0     992.0    NA       0.0000   9999     2760  0     0    
2019/06/27  21:10:00  BASE  1.08192  112  2.38728  156  -7.4  66    -12.6 0     0     992.0    NA       0.0000   9999     2720  3150  0    
2019/06/27  21:11:00  BASE  0.97608  128  2.38728  156  -7.3  66    -12.5 0     0     992.0    NA       0.0000   9999     2760  0     0    
2019/06/27  21:12:00  BASE  1.33476  144  2.38728  156  -7.3  66    -12.6 0     0     992.0    NA       0.0000   9999     2790  0     0    
2019/06/27  21:13:00  BASE  1.42884  161  2.38728  156  -7.4  66    -12.6 0     0     992.0    NA       0.0000   9999     2720  0     0    
2019/06/27  21:14:00  BASE  1.19364  179  2.38728  156  -7.4  66    -12.7 0     0     992.0    NA       0.0000   9999     2660  0     0    
2019/06/27  21:15:00  BASE  1.27596  183  2.38728  156  -7.5  66    -12.7 0     0     992.0    NA       0.0000   9999     2620  0     0    
2019/06/27  21:16:00  BASE  2.01684  190  2.87532  210  -7.5  67    -12.6 0     0     991.9    NA       0.0000   9999     2620  0     0    
2019/06/27  21:17:00  BASE  2.47548  206  2.87532  210  -7.3  67    -12.4 0     0     991.8    NA       0.0000   9999     2790  0     0    
2019/06/27  21:18:00  BASE  2.25792  207  2.87532  210  -7.2  67    -12.2 0     0     991.8    NA       0.0000   9999     2720  0     0    
2019/06/27  21:19:00  BASE  1.8816   197  2.87532  210  -7.0  67    -12.0 0     0     991.8    NA       0.0000   9999     2690  0     0    
2019/06/27  21:20:00  BASE  2.34612  202  4.1454   219  -6.9  67    -11.9 0     0     991.8    NA       0.0000   9999     2720  0     0    
2019/06/27  21:21:00  BASE  3.01644  209  4.1454   219  -6.8  67    -11.8 0     0     991.8    NA       0.0000   9999     2690  0     0    
2019/06/27  21:22:00  BASE  3.234    205  4.1454   219  -6.7  68    -11.7 0     0     991.8    NA       0.0000   9999     2660  0     0    
2019/06/27  21:23:00  BASE  4.01604  212  4.86864  212  -6.7  68    -11.6 0     0     991.8    NA       0.0000   9999     2660  0     0    
2019/06/27  21:24:00  BASE  4.08072  222  4.86864  212  -6.6  68    -11.4 0     0     991.9    NA       0.0000   9999     2620  0     0    
2019/06/27  21:25:00  BASE  3.2634   228  4.86864  212  -6.5  68    -11.3 0     0     991.9    NA       0.0000   9999     2620  0     0    
2019/06/27  21:26:00  BASE  3.10464  232  4.86864  212  -6.4  68    -11.4 0     0     991.9    NA       0.0000   9999     2620  0     0    
2019/06/27  21:27:00  BASE  3.52212  230  4.86864  212  -6.4  67    -11.4 0     0     991.8    NA       0.0000   9999     2660  0     0    
2019/06/27  21:28:00  BASE  3.86904  221  4.86864  212  -6.3  67    -11.5 0     0     991.8    NA       0.0000   9999     2660  0     0    
2019/06/27  21:29:00  BASE  4.08072  213  4.86864  212  -6.3  67    -11.5 0     0     991.8    NA       0.0000   9999     2690  0     0    
2019/06/27  21:30:00  BASE  4.16892  202  4.86864  212  -6.3  67    -11.5 0     0     991.8    NA       0.0000   9999     2720  0     0    
2019/06/27  21:31:00  BASE  4.0572   200  4.86864  212  -6.3  67    -11.5 0     0     991.8    NA       0.0000   9999     2560  0     0    
2019/06/27  21:32:00  BASE  3.97488  202  4.93332  200  -6.3  67    -11.4 0     0     991.8    NA       0.0000   9999     2590  0     0    
2019/06/27  21:33:00  BASE  3.59856  181  4.93332  200  -6.3  67    -11.5 0     0     991.8    NA       0.0000   9999     2620  0     0    
2019/06/27  21:34:00  BASE  3.12228  162  4.93332  200  -6.4  67    -11.6 0     0     991.9    NA       0.0000   9999     2620  0     0    
2019/06/27  21:35:00  BASE  2.89296  168  4.93332  200  -6.5  67    -11.7 0     0     991.9    NA       0.0000   9999     2620  0     0    
2019/06/27  21:36:00  BASE  2.85768  177  4.93332  200  -6.7  67    -11.8 0     0     991.9    NA       0.0000   9999     2620  0     0    
2019/06/27  21:37:00  BASE  3.56916  186  4.93332  200  -6.8  67    -12.0 0     0     991.9    NA       0.0000   9999     2660  0     0    
2019/06/27  21:38:00  BASE  4.32768  202  4.99212  209  -6.9  68    -11.9 0     0     991.8    NA       0.0000   9999     2620  0     0    
2019/06/27  21:39:00  BASE  4.28652  210  4.99212  209  -6.9  68    -11.8 0     0     991.8    NA       0.0000   9999     2590  0     0    
2019/06/27  21:40:00  BASE  3.9396   208  4.99212  209  -6.8  68    -11.6 0     0     991.8    NA       0.0000   9999     2590  0     0    
2019/06/27  21:41:00  BASE  3.27516  204  4.99212  209  -6.6  68    -11.5 0     0     991.8    NA       0.0000   9999     2660  0     0    
2019/06/27  21:42:00  BASE  2.75184  198  4.99212  209  -6.5  68    -11.5 0     0     991.8    NA       0.0000   9999     2560  0     0    
2019/06/27  21:43:00  BASE  2.7636   200  4.99212  209  -6.5  67    -11.5 0     0     991.7    NA       0.0000   9999     2590  0     0    
2019/06/27  21:44:00  BASE  2.97528  208  4.99212  209  -6.5  67    -11.6 0     0     991.7    NA       0.0000   9999     3020  0     0    
2019/06/27  21:45:00  BASE  3.03408  202  4.99212  209  -6.5  66    -11.7 0     0     991.7    NA       0.0000   9999     2620  0     0    
2019/06/27  21:46:00  BASE  2.82828  198  4.99212  209  -6.4  66    -11.8 0     0     991.7    NA       0.0000   9999     2720  0     0    
2019/06/27  21:47:00  BASE  2.92236  213  4.99212  209  -6.4  65    -11.8 0     0     991.7    NA       0.0000   9999     2720  0     0    
2019/06/27  21:48:00  BASE  3.65736  228  4.80984  226  -6.4  65    -11.9 0     0     991.7    NA       0.0000   9999     2620  0     0    
2019/06/27  21:49:00  BASE  4.39824  236  5.86824  239  -6.4  65    -11.8 0     0     991.6    NA       0.0000   9999     2620  0     0    
2019/06/27  21:50:00  BASE  4.30416  234  5.86824  239  -6.4  65    -11.8 0     0     991.7    NA       0.0000   9999     2690  0     0    
2019/06/27  21:51:00  BASE  4.05132  230  5.86824  239  -6.4  65    -11.8 0     0     991.6    NA       0.0000   9999     2720  0     0    
2019/06/27  21:52:00  BASE  3.78084  232  5.86824  239  -6.4  66    -11.7 0     0     991.6    NA       0.0000   9999     2820  0     0    
2019/06/27  21:53:00  BASE  3.44568  238  5.86824  239  -6.4  66    -11.7 0     0     991.6    NA       0.0000   9999     0     0     0    
2019/06/27  21:54:00  BASE  3.33984  244  5.86824  239  -6.4  66    -11.7 0     0     991.6    NA       0.0000   9999     0     0     0    
2019/06/27  21:55:00  BASE  3.29868  241  5.86824  239  -6.4  66    -11.7 0     0     991.6    NA       0.0000   9999     2790  0     0    
2019/06/27  21:56:00  BASE  3.2928   223  5.86824  239  -6.4  66    -11.7 0     0     991.7    NA       0.0000   9999     0     0     0    
2019/06/27  21:57:00  BASE  3.36336  215  5.86824  239  -6.4  66    -11.7 0     0     991.7    NA       0.0000   9999     0     0     0    
2019/06/27  21:58:00  BASE  3.69264  218  5.86824  239  -6.4  67    -11.6 0     0     991.6    NA       0.0000   9999     2660  0     0    
2019/06/27  21:59:00  BASE  4.15128  218  5.05092  237  -6.4  67    -11.6 0     0     991.6    NA       0.0000   9999     2760  0     0    
2019/06/27  22:00:00  BASE  4.02192  218  5.02152  218  -6.4  67    -11.6 0     0     991.7    NA       0.0000   9999     2620  0     0    
2019/06/27  22:01:00  BASE  3.26928  218  5.02152  218  -6.3  66    -11.6 0     0     991.7    NA       0.0000   9999     2760  0     0    
2019/06/27  22:02:00  BASE  2.3226   215  5.02152  218  -6.3  66    -11.7 0     0     991.7    NA       0.0000   9999     2590  0     0    
2019/06/27  22:03:00  BASE  2.1462   198  5.02152  218  -6.3  65    -11.8 0     0     991.7    NA       0.0000   9999     2620  0     0    
2019/06/27  22:04:00  BASE  2.34024  187  5.02152  218  -6.3  65    -11.9 0     0     991.7    NA       0.0000   9999     2560  0     0    
2019/06/27  22:05:00  BASE  2.352    192  5.02152  218  -6.4  65    -11.9 0     0     991.6    NA       0.0000   9999     2560  0     0    
2019/06/27  22:06:00  BASE  2.47548  188  5.02152  218  -6.4  65    -11.9 0     0     991.6    NA       0.0000   9999     2590  0     0    
2019/06/27  22:07:00  BASE  2.59308  185  5.02152  218  -6.5  66    -11.9 0     0     991.6    NA       0.0000   9999     2620  0     0    
2019/06/27  22:08:00  BASE  2.53428  184  5.02152  218  -6.6  66    -11.8 0     0     991.6    NA       0.0000   9999     2560  0     0    
2019/06/27  22:09:00  BASE  2.3226   180  4.2042   215  -6.6  67    -11.8 0     0     991.6    NA       0.0000   9999     2560  0     0    
2019/06/27  22:10:00  BASE  2.35788  176  3.72204  220  -6.6  67    -11.7 0     0     991.6    NA       0.0000   9999     2590  0     0    
2019/06/27  22:11:00  BASE  2.35788  179  3.41628  184  -6.6  67    -11.7 0     0     991.7    NA       0.0000   9999     2560  0     0    
2019/06/27  22:12:00  BASE  2.3226   179  3.41628  184  -6.6  67    -11.7 0     0     991.7    NA       0.0000   9999     2560  0     0    
2019/06/27  22:13:00  BASE  2.36964  191  3.2046   213  -6.6  67    -11.7 0     0     991.7    NA       0.0000   9999     2530  0     0    
2019/06/27  22:14:00  BASE  2.9988   206  4.44528  212  -6.6  68    -11.6 0     0     991.7    NA       0.0000   9999     2590  0     0    
2019/06/27  22:15:00  BASE  4.04544  209  5.145    210  -6.6  68    -11.5 0     0     991.6    NA       0.0000   9999     2560  0     0    
2019/06/27  22:16:00  BASE  4.31592  213  5.145    210  -6.5  68    -11.4 0     0     991.6    NA       0.0000   9999     2560  0     0    
2019/06/27  22:17:00  BASE  4.28652  217  5.145    210  -6.4  69    -11.2 0     0     991.6    NA       0.0000   9999     2530  0     0    
2019/06/27  22:18:00  BASE  4.2042   222  5.145    210  -6.3  69    -11.1 0     0     991.6    NA       0.0000   9999     2590  0     0    
2019/06/27  22:19:00  BASE  3.7044   217  5.145    210  -6.3  68    -11.2 0     0     991.6    NA       0.0000   9999     2660  0     0    
2019/06/27  22:20:00  BASE  3.7044   216  5.145    210  -6.3  68    -11.2 0     0     991.6    NA       0.0000   9999     0     0     0    
2019/06/27  22:21:00  BASE  3.72792  220  5.145    210  -6.3  68    -11.3 0     0     991.6    NA       0.0000   9999     2660  0     0    
2019/06/27  22:22:00  BASE  3.35748  214  5.145    210  -6.3  67    -11.4 0     0     991.6    NA       0.0000   9999     2660  0     0    
2019/06/27  22:23:00  BASE  3.22812  220  5.145    210  -6.3  67    -11.4 0     0     991.6    NA       0.0000   9999     2560  0     0    
2019/06/27  22:24:00  BASE  3.12228  232  5.145    210  -6.3  67    -11.4 0     0     991.6    NA       0.0000   9999     2560  0     0    
2019/06/27  22:25:00  BASE  2.4696   222  4.83924  226  -6.3  67    -11.4 0     0     991.7    NA       0.0000   9999     2590  0     0    
2019/06/27  22:26:00  BASE  1.8228   216  4.83924  226  -6.3  67    -11.5 0     0     991.7    NA       0.0000   9999     2560  0     0    
2019/06/27  22:27:00  BASE  1.98156  228  4.38648  224  -6.3  67    -11.5 0     0     991.7    NA       0.0000   9999     2560  0     0    
2019/06/27  22:28:00  BASE  2.24028  233  4.38648  224  -6.3  67    -11.5 0     0     991.6    NA       0.0000   9999     2590  0     0    
2019/06/27  22:29:00  BASE  2.09916  229  4.38648  224  -6.3  67    -11.5 0     0     991.6    NA       0.0000   9999     2560  0     0    
2019/06/27  22:30:00  BASE  2.06388  222  4.08072  218  -6.3  67    -11.5 0     0     991.6    NA       0.0000   9999     2590  0     0    
2019/06/27  22:31:00  BASE  2.38728  213  3.93372  230  -6.3  67    -11.4 0     0     991.6    NA       0.0000   9999     2590  0     0    
2019/06/27  22:32:00  BASE  2.69304  213  3.93372  230  -6.3  67    -11.4 0     0     991.6    NA       0.0000   9999     2620  0     0    
2019/06/27  22:33:00  BASE  3.09288  224  3.86904  230  -6.3  68    -11.3 0     0     991.6    NA       0.0000   9999     2620  0     0    
2019/06/27  22:34:00  BASE  3.51624  228  3.86904  230  -6.3  68    -11.2 0     0     991.6    NA       0.0000   9999     2590  0     0    
2019/06/27  22:35:00  BASE  3.42804  229  3.86904  230  -6.3  68    -11.2 0     0     991.6    NA       0.0000   9999     2620  0     0    
2019/06/27  22:36:00  BASE  3.21636  231  3.86904  230  -6.3  68    -11.2 0     0     991.6    NA       0.0000   9999     2690  0     0    
2019/06/27  22:37:00  BASE  3.51036  230  4.29828  235  -6.4  68    -11.3 0     0     991.6    NA       0.0000   9999     2720  0     0    
2019/06/27  22:38:00  BASE  3.81612  230  4.29828  235  -6.4  68    -11.3 0     0     991.6    NA       0.0000   9999     2590  0     0    
2019/06/27  22:39:00  BASE  3.83376  229  4.44528  226  -6.4  68    -11.4 0     0     991.6    NA       0.0000   9999     2560  0     0    
2019/06/27  22:40:00  BASE  3.7044   225  4.44528  226  -6.4  67    -11.5 0     0     991.6    NA       0.0000   9999     0     0     0    
2019/06/27  22:41:00  BASE  2.9988   224  4.44528  226  -6.4  67    -11.5 0     0     991.6    NA       0.0000   9999     0     0     0    
2019/06/27  22:42:00  BASE  2.7048   220  4.44528  226  -6.4  66    -11.6 0     0     991.6    NA       0.0000   9999     0     0     0    
2019/06/27  22:43:00  BASE  3.47508  218  4.44528  226  -6.3  66    -11.7 0     0     991.6    NA       0.0000   9999     0     0     0    
2019/06/27  22:44:00  BASE  3.7044   221  4.44528  226  -6.3  65    -11.8 0     0     991.6    NA       0.0000   9999     0     0     0    
2019/06/27  22:45:00  BASE  3.01056  226  4.44528  226  -6.3  65    -11.8 0     0     991.6    NA       0.0000   9999     0     0     0    
2019/06/27  22:46:00  BASE  2.59896  232  4.44528  226  -6.3  65    -11.8 0     0     991.6    NA       0.0000   9999     2690  0     0    
2019/06/27  22:47:00  BASE  2.22852  233  4.44528  226  -6.3  65    -11.8 0     0     991.6    NA       0.0000   9999     2620  0     0    
2019/06/27  22:48:00  BASE  1.9698   232  4.44528  226  -6.3  65    -11.8 0     0     991.6    NA       0.0000   9999     2590  0     0    
2019/06/27  22:49:00  BASE  1.9992   239  4.41588  222  -6.3  65    -11.8 0     0     991.6    NA       0.0000   9999     2620  0     0    
2019/06/27  22:50:00  BASE  2.12856  235  4.41588  222  -6.4  65    -11.9 0     0     991.6    NA       0.0000   9999     2690  0     0    
2019/06/27  22:51:00  BASE  2.5284   219  4.41588  222  -6.4  65    -11.8 0     0     991.6    NA       0.0000   9999     2590  0     0    
2019/06/27  22:52:00  BASE  2.90472  214  4.41588  222  -6.4  65    -11.8 0     0     991.6    NA       0.0000   9999     2430  0     0    
2019/06/27  22:53:00  BASE  3.46332  214  4.263    208  -6.4  66    -11.7 0     0     991.6    NA       0.0000   9999     2490  3020  0    
2019/06/27  22:54:00  BASE  3.80436  209  4.263    207  -6.4  66    -11.6 0     0     991.6    NA       0.0000   9999     2690  0     0    
2019/06/27  22:55:00  BASE  3.48684  206  4.263    207  -6.3  67    -11.5 0     0     991.6    NA       0.0000   9999     2660  0     0    
2019/06/27  22:56:00  BASE  3.05172  208  4.263    207  -6.3  67    -11.5 0     0     991.6    NA       0.0000   9999     2620  0     0    
2019/06/27  22:57:00  BASE  2.92236  221  4.263    207  -6.3  67    -11.5 0     0     991.6    NA       0.0000   9999     2720  0     0    
2019/06/27  22:58:00  BASE  2.793    235  4.263    207  -6.3  67    -11.5 0     0     991.6    NA       0.0000   9999     2690  0     0    
2019/06/27  22:59:00  BASE  2.31084  235  4.263    207  -6.3  67    -11.5 0     0     991.6    NA       0.0000   9999     2660  0     0    
2019/06/27  23:00:00  BASE  2.52252  216  4.263    207  -6.4  66    -11.6 0     0     991.6    NA       0.0000   9999     2620  0     0    
2019/06/27  23:01:00  BASE  3.36924  196  4.263    207  -6.4  66    -11.6 0     0     991.6    NA       0.0000   9999     2660  0     0    
2019/06/27  23:02:00  BASE  3.78084  194  4.41588  195  -6.4  66    -11.7 0     0     991.6    NA       0.0000   9999     2690  0     0    
2019/06/27  23:03:00  BASE  3.7632   206  4.41588  195  -6.4  66    -11.6 0     0     991.6    NA       0.0000   9999     2790  0     0    
2019/06/27  23:04:00  BASE  4.04544  219  4.80984  227  -6.4  67    -11.6 0     0     991.6    NA       0.0000   9999     2620  0     0    
2019/06/27  23:05:00  BASE  3.85728  220  4.80984  227  -6.4  67    -11.5 0     0     991.6    NA       0.0000   9999     2660  0     0    
2019/06/27  23:06:00  BASE  3.28104  214  4.80984  227  -6.3  67    -11.5 0     0     991.6    NA       0.0000   9999     0     0     0    
2019/06/27  23:07:00  BASE  3.07524  208  4.80984  227  -6.3  67    -11.4 0     0     991.6    NA       0.0000   9999     0     0     0    
2019/06/27  23:08:00  BASE  2.79888  202  4.80984  227  -6.3  67    -11.4 0     0     991.6    NA       0.0000   9999     2620  0     0    
2019/06/27  23:09:00  BASE  3.01644  200  4.80984  227  -6.3  67    -11.5 0     0     991.6    NA       0.0000   9999     2660  0     0    
2019/06/27  23:10:00  BASE  3.62208  197  4.80984  227  -6.4  67    -11.5 0     0     991.6    NA       0.0000   9999     2620  0     0    
2019/06/27  23:11:00  BASE  3.80436  194  4.80984  227  -6.4  67    -11.5 0     0     991.6    NA       0.0000   9999     2590  0     0    
2019/06/27  23:12:00  BASE  3.56916  203  4.80984  227  -6.4  67    -11.6 0     0     991.6    NA       0.0000   9999     2590  0     0    
2019/06/27  23:13:00  BASE  3.15168  207  4.80984  227  -6.5  67    -11.6 0     0     991.6    NA       0.0000   9999     2620  0     0    
2019/06/27  23:14:00  BASE  3.06936  195  4.47468  185  -6.5  67    -11.6 0     0     991.6    NA       0.0000   9999     2690  0     0    
2019/06/27  23:15:00  BASE  3.23988  190  4.47468  185  -6.5  67    -11.6 0     0     991.6    NA       0.0000   9999     2760  0     0    
2019/06/27  23:16:00  BASE  3.32808  194  4.47468  185  -6.5  67    -11.7 0     0     991.6    NA       0.0000   9999     2720  0     0    
2019/06/27  23:17:00  BASE  3.62208  206  4.47468  185  -6.5  67    -11.7 0     0     991.6    NA       0.0000   9999     0     0     0    
2019/06/27  23:18:00  BASE  3.86316  215  4.47468  185  -6.5  67    -11.7 0     0     991.6    NA       0.0000   9999     0     0     0    
2019/06/27  23:19:00  BASE  3.7632   211  4.41588  193  -6.5  67    -11.6 0     0     991.6    NA       0.0000   9999     0     0     0    
2019/06/27  23:20:00  BASE  3.19872  207  4.29828  216  -6.5  67    -11.7 0     0     991.6    NA       0.0000   9999     0     0     0    
2019/06/27  23:21:00  BASE  2.68716  209  4.29828  216  -6.5  67    -11.7 0     0     991.6    NA       0.0000   9999     0     0     0    
2019/06/27  23:22:00  BASE  3.13992  209  4.29828  216  -6.5  67    -11.6 0     0     991.6    NA       0.0000   9999     2620  0     0    
2019/06/27  23:23:00  BASE  3.63384  206  4.29828  216  -6.5  67    -11.7 0     0     991.6    NA       0.0000   9999     0     0     0    
2019/06/27  23:24:00  BASE  3.53976  211  4.29828  216  -6.5  67    -11.7 0     0     991.6    NA       0.0000   9999     0     0     0    
2019/06/27  23:25:00  BASE  3.28692  220  4.29828  216  -6.5  67    -11.7 0     0     991.7    NA       0.0000   9999     2530  0     0    
2019/06/27  23:26:00  BASE  2.2932   222  4.29828  216  -6.4  67    -11.6 0     0     991.7    NA       0.0000   9999     2560  0     0    
2019/06/27  23:27:00  BASE  1.92276  228  4.29828  216  -6.4  66    -11.7 0     0     991.6    NA       0.0000   9999     2690  0     0    
2019/06/27  23:28:00  BASE  2.63424  231  4.1748   212  -6.4  66    -11.7 0     0     991.6    NA       0.0000   9999     2820  0     0    
2019/06/27  23:29:00  BASE  3.13404  225  4.1748   212  -6.4  65    -11.8 0     0     991.6    NA       0.0000   9999     0     0     0    
2019/06/27  23:30:00  BASE  3.53388  214  4.35708  210  -6.4  65    -11.8 0     0     991.6    NA       0.0000   9999     0     0     0    
2019/06/27  23:31:00  BASE  3.19284  207  4.35708  210  -6.4  65    -11.8 0     0     991.6    NA       0.0000   9999     0     0     0    
2019/06/27  23:32:00  BASE  2.56956  204  4.35708  210  -6.4  65    -11.8 0     0     991.7    NA       0.0000   9999     2690  0     0    
2019/06/27  23:33:00  BASE  2.31672  201  4.35708  210  -6.4  66    -11.8 0     0     991.6    NA       0.0000   9999     2620  0     0    
2019/06/27  23:34:00  BASE  2.19912  205  4.35708  210  -6.4  66    -11.8 0     0     991.6    NA       0.0000   9999     2620  0     0    
2019/06/27  23:35:00  BASE  2.22264  210  4.35708  210  -6.5  66    -11.7 0     0     991.6    NA       0.0000   9999     2620  0     0    
2019/06/27  23:36:00  BASE  2.01096  212  4.35708  210  -6.5  66    -11.7 0     0     991.6    NA       0.0000   9999     2620  0     0    
2019/06/27  23:37:00  BASE  1.74048  213  4.35708  210  -6.5  66    -11.7 0     0     991.6    NA       0.0000   9999     2620  0     0    
2019/06/27  23:38:00  BASE  1.6464   207  4.35708  210  -6.4  66    -11.7 0     0     991.6    NA       0.0000   9999     2560  0     0    
2019/06/27  23:39:00  BASE  1.81104  196  4.35708  210  -6.4  66    -11.7 0     0     991.6    NA       0.0000   9999     2590  0     0    
2019/06/27  23:40:00  BASE  2.4696   198  3.29868  204  -6.5  66    -11.8 0     0     991.6    NA       0.0000   9999     2620  0     0    
2019/06/27  23:41:00  BASE  2.94     206  3.29868  204  -6.5  66    -11.8 0     0     991.6    NA       0.0000   9999     2690  0     0    
2019/06/27  23:42:00  BASE  2.97528  207  3.29868  209  -6.5  66    -11.8 0     0     991.6    NA       0.0000   9999     2820  0     0    
2019/06/27  23:43:00  BASE  2.86944  204  3.29868  209  -6.5  67    -11.7 0     0     991.6    NA       0.0000   9999     2590  0     0    
2019/06/27  23:44:00  BASE  2.98116  200  3.44568  202  -6.5  67    -11.7 0     0     991.6    NA       0.0000   9999     2590  0     0    
2019/06/27  23:45:00  BASE  3.0576   194  3.44568  202  -6.5  67    -11.6 0     0     991.6    NA       0.0000   9999     2590  0     0    
2019/06/27  23:46:00  BASE  2.64012  188  3.44568  202  -6.4  67    -11.6 0     0     991.6    NA       0.0000   9999     2530  0     0    
2019/06/27  23:47:00  BASE  2.16972  185  3.44568  202  -6.4  66    -11.7 0     0     991.6    NA       0.0000   9999     2620  0     0    
2019/06/27  23:48:00  BASE  1.92864  179  3.44568  202  -6.5  66    -11.7 0     0     991.6    NA       0.0000   9999     2620  0     0    
2019/06/27  23:49:00  BASE  1.62288  173  3.44568  202  -6.5  66    -11.7 0     0     991.6    NA       0.0000   9999     2590  0     0    
2019/06/27  23:50:00  BASE  1.68756  172  3.44568  202  -6.5  66    -11.8 0     0     991.5    NA       0.0000   9999     2720  0     0    
2019/06/27  23:51:00  BASE  1.92864  179  3.44568  202  -6.5  66    -11.8 0     0     991.5    NA       0.0000   9999     2620  0     0    
2019/06/27  23:52:00  BASE  1.69932  190  3.44568  202  -6.5  66    -11.8 0     0     991.5    NA       0.0000   9999     2530  0     0    
2019/06/27  23:53:00  BASE  1.27008  196  3.44568  202  -6.5  67    -11.7 0     0     991.5    NA       0.0000   9999     2660  0     0    
2019/06/27  23:54:00  BASE  1.02312  192  3.1458   187  -6.5  67    -11.7 0     0     991.6    NA       0.0000   9999     2690  0     0    
2019/06/27  23:55:00  BASE  1.3524   198  2.54016  190  -6.5  67    -11.6 0     0     991.6    NA       0.0000   9999     2690  0     0    
2019/06/27  23:56:00  BASE  2.10504  211  3.1164   206  -6.5  67    -11.6 0     0     991.6    NA       0.0000   9999     2660  0     0    
2019/06/27  23:57:00  BASE  3.1458   219  4.59816  231  -6.5  67    -11.6 0     0     991.5    NA       0.0000   9999     2620  0     0    
2019/06/27  23:58:00  BASE  3.81612  225  4.59816  231  -6.5  68    -11.5 0     0     991.5    NA       0.0000   9999     2620  0     0    
2019/06/27  23:59:00  BASE  3.7044   226  4.59816  231  -6.5  68    -11.5 0     0     991.5    NA       0.0000   9999     2660  0     0